[[{"header":{"parameterUnit":"m.s-1","parameterCategory":1,"la1":30.6,"la2":28.766,"lo1":-90.7593,"lo2":-88.6598,"dy":0.0162,"dx":0.0183,"nx":116,"ny":114,"refTime":"2023-10-09T18:00:00:Z","depth":0,"parameterNumber":2,"parameterNumberName":"U-component_of_WINDS"},"data":[0.0,0.0,0.0,0.0,0.0,0.0,0.0,0.0,0.0,0.0,0.0,0.0,0.0,0.0,0.0,0.0,0.0,0.0,0.0,0.0,0.0,0.0,0.0,0.0,0.0,0.0,0.0,0.0,0.0,0.0,0.0,0.0,0.0,0.0,0.0,0.0,0.0,0.0,0.0,0.0,0.0,0.0,0.0,0.0,0.0,0.0,0.0,0.0,0.0,0.0,0.0,0.0,0.0,0.0,0.0,0.0,0.0,0.0,0.0,0.0,0.0,0.0,0.0,0.0,0.0,0.0,0.0,0.0,0.0,0.0,0.0,0.0,0.0,0.0,0.0,0.0,0.0,0.0,0.0,0.0,0.0,0.0,0.0,0.0,0.0,0.0,0.0,0.0,0.0,0.0,0.0,0.0,0.0,0.0,0.0,0.0,0.0,0.0,0.0,0.0,0.0,0.0,0.0,0.0,0.0,0.0,0.0,0.0,0.0,0.0,0.0,0.0,0.0,0.0,0.0,0.0,0.0,0.0,0.0,0.0,0.0,0.0,0.0,0.0,0.0,0.0,0.0,0.0,0.0,0.0,0.0,0.0,0.0,0.0,0.0,0.0,0.0,0.0,0.0,0.0,0.0,0.0,0.0,0.0,0.0,0.0,0.0,0.0,0.0,0.0,0.0,0.0,0.0,0.0,0.0,0.0,0.0,0.0,0.0,0.0,0.0,0.0,0.0,0.0,0.0,0.0,0.0,0.0,0.0,0.0,0.0,0.0,0.0,0.0,0.0,0.0,0.0,0.0,0.0,0.0,0.0,0.0,0.0,0.0,0.0,0.0,0.0,0.0,0.0,0.0,0.0,0.0,0.0,0.0,0.0,0.0,0.0,0.0,0.0,0.0,0.0,0.0,0.0,0.0,0.0,0.0,0.0,0.0,0.0,0.0,0.0,0.0,0.0,0.0,0.0,0.0,0.0,0.0,0.0,0.0,0.0,0.0,0.0,0.0,0.0,0.0,0.0,0.0,0.0,0.0,0.0,0.0,0.0,0.0,0.0,0.0,0.0,0.0,0.0,0.0,0.0,0.0,0.0,0.0,0.0,0.0,0.0,0.0,0.0,0.0,0.0,0.0,0.0,0.0,0.0,0.0,0.0,0.0,0.0,0.0,0.0,0.0,0.0,0.0,0.0,0.0,0.0,0.0,0.0,0.0,0.0,0.0,0.0,0.0,0.0,0.0,0.0,0.0,0.0,0.0,0.0,0.0,0.0,0.0,0.0,0.0,0.0,0.0,0.0,0.0,0.0,0.0,0.0,0.0,0.0,0.0,0.0,0.0,0.0,0.0,0.0,0.0,0.0,0.0,0.0,0.0,0.0,0.0,0.0,0.0,0.0,0.0,0.0,0.0,0.0,0.0,0.0,0.0,0.0,0.0,0.0,0.0,0.0,0.0,0.0,0.0,0.0,0.0,0.0,0.0,0.0,0.0,0.0,0.0,0.0,0.0,0.0,0.0,0.0,0.0,0.0,0.0,0.0,0.0,0.0,0.0,0.0,0.0,0.0,0.0,0.0,0.0,0.0,0.0,0.0,0.0,0.0,0.0,0.0,0.0,0.0,0.0,0.0,0.0,0.0,0.0,0.0,0.0,0.0,0.0,0.0,0.0,0.0,0.0,0.0,0.0,0.0,0.0,0.0,0.0,0.0,0.0,0.0,0.0,0.0,0.0,0.0,0.0,0.0,0.0,0.0,0.0,0.0,0.0,0.0,0.0,0.0,0.0,0.0,0.0,0.0,0.0,0.0,0.0,0.0,0.0,0.0,0.0,0.0,0.0,0.0,0.0,0.0,0.0,0.0,0.0,0.0,0.0,0.0,0.0,0.0,0.0,0.0,0.0,0.0,0.0,0.0,0.0,0.0,0.0,0.0,0.0,0.0,0.0,0.0,0.0,0.0,0.0,0.0,0.0,0.0,0.0,0.0,0.0,0.0,0.0,0.0,0.0,0.0,0.0,0.0,0.0,0.0,0.0,0.0,0.0,0.0,0.0,0.0,0.0,0.0,0.0,0.0,0.0,0.0,0.0,0.0,0.0,0.0,0.0,0.0,0.0,0.0,0.0,0.0,0.0,0.0,0.0,0.0,0.0,0.0,0.0,0.0,0.0,0.0,0.0,0.0,0.0,0.0,0.0,0.0,0.0,0.0,0.0,0.0,0.0,0.0,0.0,0.0,0.0,0.0,0.0,0.0,0.0,0.0,0.0,0.0,0.0,0.0,0.0,0.0,0.0,0.0,0.0,0.0,0.0,0.0,0.0,0.0,0.0,0.0,0.0,0.0,0.0,0.0,0.0,0.0,0.0,0.0,0.0,0.0,0.0,0.0,0.0,0.0,0.0,0.0,0.0,0.0,0.0,0.0,0.0,0.0,0.0,0.0,0.0,0.0,0.0,0.0,0.0,0.0,0.0,0.0,0.0,0.0,0.0,0.0,0.0,0.0,0.0,0.0,0.0,0.0,0.0,0.0,0.0,0.0,0.0,0.0,0.0,0.0,0.0,0.0,0.0,0.0,0.0,0.0,0.0,0.0,0.0,0.0,0.0,0.0,0.0,0.0,0.0,0.0,0.0,0.0,0.0,0.0,0.0,0.0,0.0,0.0,0.0,0.0,0.0,0.0,0.0,0.0,0.0,0.0,0.0,0.0,0.0,0.0,0.0,0.0,0.0,0.0,0.0,0.0,0.0,0.0,0.0,0.0,0.0,0.0,0.0,0.0,0.0,0.0,0.0,0.0,0.0,0.0,0.0,0.0,0.0,0.0,0.0,0.0,0.0,0.0,0.0,0.0,0.0,0.0,0.0,0.0,0.0,0.0,0.0,0.0,0.0,0.0,0.0,0.0,0.0,0.0,0.0,0.0,0.0,0.0,0.0,0.0,0.0,0.0,0.0,0.0,0.0,0.0,0.0,0.0,0.0,0.0,0.0,0.0,0.0,0.0,0.0,0.0,0.0,0.0,0.0,0.0,0.0,0.0,0.0,0.0,0.0,0.0,0.0,0.0,0.0,0.0,0.0,0.0,0.0,0.0,0.0,0.0,0.0,0.0,0.0,0.0,0.0,0.0,0.0,0.0,0.0,0.0,0.0,0.0,0.0,0.0,0.0,0.0,0.0,0.0,0.0,0.0,0.0,0.0,0.0,0.0,0.0,0.0,0.0,0.0,0.0,0.0,0.0,0.0,0.0,0.0,0.0,0.0,0.0,0.0,0.0,0.0,0.0,0.0,0.0,0.0,0.0,0.0,0.0,0.0,0.0,0.0,0.0,0.0,0.0,0.0,0.0,0.0,0.0,0.0,0.0,0.0,0.0,0.0,0.0,0.0,0.0,0.0,0.0,0.0,0.0,0.0,0.0,0.0,0.0,0.0,0.0,0.0,0.0,0.0,0.0,0.0,0.0,0.0,0.0,0.0,0.0,0.0,0.0,0.0,0.0,0.0,0.0,0.0,0.0,0.0,0.0,0.0,0.0,0.0,0.0,0.0,0.0,0.0,0.0,0.0,0.0,0.0,0.0,0.0,0.0,0.0,0.0,0.0,0.0,0.0,0.0,0.0,0.0,0.0,0.0,0.0,0.0,0.0,0.0,0.0,0.0,0.0,0.0,0.0,0.0,0.0,0.0,0.0,0.0,0.0,0.0,0.0,0.0,0.0,0.0,0.0,0.0,0.0,0.0,0.0,0.0,0.0,0.0,0.0,0.0,0.0,0.0,0.0,0.0,0.0,0.0,0.0,0.0,0.0,0.0,0.0,0.0,0.0,0.0,0.0,0.0,0.0,0.0,0.0,0.0,0.0,0.0,0.0,0.0,0.0,0.0,0.0,0.0,0.0,0.0,0.0,0.0,0.0,0.0,0.0,0.0,0.0,0.0,0.0,0.0,0.0,0.0,0.0,0.0,0.0,0.0,0.0,0.0,0.0,0.0,0.0,0.0,0.0,0.0,0.0,0.0,0.0,0.0,0.0,0.0,0.0,0.0,0.0,0.0,0.0,0.0,0.0,0.0,0.0,0.0,0.0,0.0,0.0,0.0,0.0,0.0,0.0,0.0,0.0,0.0,0.0,0.0,0.0,0.0,0.0,0.0,0.0,0.0,0.0,0.0,0.0,0.0,0.0,0.0,0.0,0.0,0.0,0.0,0.0,0.0,0.0,0.0,0.0,0.0,0.0,0.0,0.0,0.0,0.0,0.0,0.0,0.0,0.0,0.0,0.0,0.0,0.0,0.0,0.0,0.0,0.0,0.0,0.0,0.0,0.0,0.0,0.0,0.0,0.0,0.0,0.0,0.0,0.0,0.0,0.0,0.0,0.0,0.0,0.0,0.0,0.0,0.0,0.0,0.0,0.0,0.0,0.0,0.0,0.0,0.0,0.0,0.0,0.0,0.0,0.0,0.0,0.0,0.0,0.0,0.0,0.0,0.0,0.0,0.0,0.0,0.0,0.0,0.0,0.0,0.0,0.0,0.0,0.0,0.0,0.0,0.0,0.0,0.0,0.0,0.0,0.0,0.0,0.0,0.0,0.0,0.0,0.0,0.0,0.0,0.0,0.0,0.0,0.0,0.0,0.0,0.0,0.0,0.0,0.0,0.0,0.0,0.0,0.0,0.0,0.0,0.0,0.0,0.0,0.0,0.0,0.0,0.0,0.0,0.0,0.0,0.0,0.0,0.0,0.0,0.0,0.0,0.0,0.0,0.0,0.0,0.0,0.0,0.0,0.0,0.0,0.0,0.0,0.0,0.0,0.0,0.0,0.0,0.0,0.0,0.0,0.0,0.0,0.0,0.0,0.0,0.0,0.0,0.0,0.0,0.0,0.0,0.0,0.0,0.0,0.0,0.0,0.0,0.0,0.0,0.0,0.0,0.0,0.0,0.0,0.0,0.0,0.0,0.0,0.0,0.0,0.0,0.0,0.0,0.0,0.0,0.0,0.0,0.0,0.0,0.0,0.0,0.0,0.0,0.0,0.0,0.0,0.0,0.0,0.0,0.0,0.0,0.0,0.0,0.0,0.0,0.0,0.0,0.0,0.0,0.0,0.0,0.0,0.0,0.0,0.0,0.0,0.0,0.0,0.0,0.0,0.0,0.0,0.0,0.0,0.0,0.0,0.0,0.0,0.0,0.0,0.0,0.0,0.0,0.0,0.0,0.0,0.0,0.0,0.0,0.0,0.0,0.0,0.0,0.0,0.0,0.0,0.0,0.0,0.0,0.0,0.0,0.0,0.0,0.0,0.0,0.0,0.0,0.0,0.0,0.0,0.0,0.0,0.0,0.0,0.0,0.0,0.0,0.0,0.0,0.0,0.0,0.0,0.0,0.0,0.0,0.0,0.0,0.0,0.0,0.0,0.0,0.0,0.0,0.0,0.0,0.0,0.0,0.0,0.0,0.0,0.0,0.0,0.0,0.0,0.0,0.0,0.0,0.0,0.0,0.0,0.0,0.0,0.0,0.0,0.0,0.0,0.0,0.0,0.0,0.0,0.0,0.0,0.0,0.0,0.0,0.0,0.0,0.0,0.0,0.0,0.0,0.0,0.0,0.0,0.0,0.0,0.0,0.0,0.0,0.0,0.0,0.0,0.0,0.0,0.0,0.0,0.0,0.0,0.0,0.0,0.0,0.0,0.0,0.0,0.0,0.0,0.0,0.0,0.0,0.0,0.0,0.0,0.0,0.0,0.0,0.0,0.0,0.0,0.0,0.0,0.0,0.0,0.0,0.0,0.0,0.0,0.0,0.0,0.0,0.0,0.0,0.0,0.0,0.0,0.0,0.0,0.0,0.0,0.0,0.0,0.0,0.0,0.0,0.0,0.0,0.0,0.0,0.0,0.0,0.0,0.0,0.0,0.0,0.0,0.0,0.0,0.0,0.0,0.0,0.0,0.0,0.0,0.0,0.0,0.0,0.0,0.0,0.0,0.0,0.0,0.0,0.0,0.0,0.0,0.0,0.0,0.0,0.0,0.0,0.0,0.0,0.0,0.0,0.0,0.0,0.0,0.0,0.0,0.0,0.0,0.0,0.0,0.0,0.0,0.0,0.0,0.0,0.0,0.0,0.0,0.0,0.0,0.0,0.0,0.0,0.0,0.0,0.0,6.4641,0.0,0.0,0.0,0.0,0.0,0.0,0.0,0.0,0.0,0.0,0.0,0.0,0.0,0.0,0.0,0.0,0.0,0.0,0.0,0.0,0.0,0.0,0.0,0.0,0.0,0.0,0.0,0.0,0.0,0.0,0.0,0.0,0.0,0.0,0.0,0.0,0.0,0.0,0.0,0.0,0.0,0.0,0.0,0.0,0.0,0.0,0.0,0.0,0.0,0.0,0.0,0.0,0.0,0.0,0.0,0.0,0.0,0.0,0.0,0.0,0.0,0.0,0.0,0.0,0.0,0.0,0.0,0.0,0.0,0.0,0.0,0.0,0.0,0.0,0.0,0.0,0.0,0.0,0.0,0.0,0.0,0.0,0.0,0.0,0.0,0.0,0.0,0.0,0.0,0.0,0.0,0.0,0.0,0.0,0.0,0.0,0.0,0.0,0.0,0.0,0.0,0.0,0.0,0.0,0.0,0.0,0.0,0.0,0.0,0.0,0.0,0.0,0.0,0.0,0.0,0.0,6.5728,0.0,0.0,0.0,0.0,0.0,0.0,0.0,0.0,0.0,0.0,0.0,0.0,0.0,0.0,0.0,0.0,0.0,0.0,0.0,0.0,0.0,0.0,0.0,0.0,0.0,0.0,0.0,0.0,0.0,0.0,0.0,0.0,0.0,0.0,0.0,0.0,0.0,0.0,0.0,0.0,0.0,0.0,0.0,0.0,0.0,0.0,0.0,0.0,0.0,0.0,0.0,0.0,0.0,0.0,0.0,0.0,0.0,0.0,0.0,0.0,0.0,0.0,0.0,0.0,0.0,0.0,0.0,0.0,0.0,0.0,0.0,0.0,0.0,0.0,0.0,0.0,0.0,0.0,0.0,0.0,0.0,0.0,0.0,0.0,0.0,0.0,0.0,0.0,0.0,0.0,0.0,0.0,0.0,0.0,0.0,0.0,0.0,0.0,0.0,0.0,0.0,0.0,0.0,0.0,0.0,0.0,0.0,0.0,6.6101,6.6667,6.7321,6.7321,6.7705,6.8321,6.6936,6.632,6.632,6.632,0.0,0.0,0.0,0.0,0.0,0.0,0.0,0.0,0.0,0.0,0.0,0.0,0.0,0.0,0.0,0.0,0.0,0.0,0.0,0.0,0.0,0.0,5.3794,5.3794,5.3794,5.3794,0.0,0.0,0.0,0.0,0.0,0.0,0.0,0.0,0.0,0.0,0.0,0.0,5.8698,5.8986,5.9103,5.8953,5.8676,0.0,0.0,0.0,0.0,0.0,0.0,0.0,0.0,0.0,0.0,0.0,0.0,0.0,0.0,0.0,0.0,0.0,0.0,0.0,0.0,0.0,0.0,0.0,0.0,0.0,0.0,0.0,0.0,0.0,0.0,0.0,0.0,0.0,0.0,0.0,0.0,0.0,0.0,0.0,0.0,0.0,0.0,0.0,5.8698,5.8698,0.0,0.0,0.0,0.0,0.0,0.0,0.0,0.0,0.0,0.0,0.0,0.0,0.0,6.5563,6.5563,6.6435,6.6845,6.6884,6.7679,6.8129,6.8244,6.8244,6.8282,6.8398,6.8167,0.0,6.809,6.809,0.0,0.0,0.0,0.0,0.0,0.0,0.0,0.0,0.0,0.0,0.0,0.0,0.0,0.0,0.0,0.0,0.0,0.0,0.0,0.0,0.0,5.3794,5.3794,5.3794,5.4203,5.4463,5.4463,0.0,0.0,0.0,0.0,0.0,0.0,0.0,0.0,0.0,5.8698,5.8821,5.8986,5.914,5.9325,5.9537,5.9361,5.9434,5.9537,5.9537,0.0,0.0,0.0,0.0,0.0,0.0,0.0,0.0,0.0,0.0,0.0,0.0,0.0,0.0,0.0,0.0,0.0,0.0,0.0,0.0,0.0,0.0,0.0,0.0,0.0,0.0,0.0,0.0,0.0,0.0,0.0,0.0,0.0,0.0,0.0,0.0,0.0,0.0,0.0,5.8865,5.8945,5.8698,5.9275,5.9775,0.0,0.0,0.0,0.0,0.0,0.0,0.0,0.0,0.0,6.5126,6.6077,6.6551,6.6551,6.7398,6.7821,6.7859,6.8244,6.8667,6.9129,6.9129,6.9398,6.9821,6.9821,6.9821,6.9744,6.8783,6.8706,6.9129,0.0,0.0,0.0,0.0,6.9821,6.9821,0.0,0.0,0.0,0.0,0.0,0.0,0.0,0.0,0.0,0.0,0.0,0.0,5.3794,5.3794,5.3868,5.4091,5.4648,5.5094,5.5317,0.0,0.0,0.0,0.0,0.0,0.0,0.0,0.0,0.0,5.8825,5.8986,5.9361,5.943,5.9639,5.9937,6.003,6.003,5.9937,5.9937,6.0,0.0,0.0,0.0,0.0,0.0,0.0,0.0,0.0,0.0,0.0,0.0,0.0,0.0,0.0,0.0,0.0,0.0,0.0,0.0,0.0,0.0,0.0,0.0,0.0,0.0,0.0,0.0,0.0,0.0,0.0,0.0,0.0,0.0,0.0,0.0,0.0,0.0,0.0,5.9134,5.9363,5.9323,6.019,6.0868,0.0,0.0,0.0,0.0,0.0,0.0,6.491,6.5743,6.6205,6.6205,6.7013,6.7436,6.7436,6.8321,6.8744,6.8744,6.8936,6.9398,7.0014,7.0244,7.0667,7.1245,7.1475,7.1591,7.1437,6.9744,6.9436,7.0014,7.0244,7.0706,7.1245,7.1475,7.1591,7.1591,0.0,0.0,0.0,0.0,0.0,0.0,0.0,0.0,0.0,0.0,0.0,5.3794,5.3794,5.3794,5.4128,5.4871,5.4983,5.5354,5.6172,5.6989,5.7472,0.0,0.0,0.0,0.0,0.0,0.0,5.9178,5.9178,5.9397,5.9777,6.0121,6.0265,6.0293,6.0597,6.0572,6.0265,6.0265,6.0468,6.0757,0.0,0.0,0.0,0.0,0.0,0.0,0.0,0.0,0.0,0.0,0.0,0.0,0.0,0.0,0.0,0.0,0.0,0.0,0.0,0.0,0.0,0.0,0.0,0.0,0.0,0.0,0.0,0.0,0.0,0.0,0.0,0.0,0.0,0.0,0.0,0.0,0.0,0.0,0.0,6.0808,6.1317,0.0,0.0,0.0,0.0,6.4462,6.4977,6.5408,6.582,6.659,6.7051,6.7051,6.7898,6.8321,6.8321,6.9206,6.9629,6.9629,7.0398,7.0783,7.086,7.1706,7.2091,7.2168,7.3014,7.336,7.3245,7.1475,7.0783,7.0937,7.1745,7.2091,7.2206,7.3053,7.336,7.336,0.0,0.0,0.0,0.0,0.0,0.0,0.0,0.0,0.0,5.3794,5.3794,5.3794,5.3794,5.3794,5.4128,5.4946,5.5503,5.6209,5.7026,5.7843,5.8289,0.0,0.0,0.0,0.0,0.0,5.9178,5.9571,5.9571,5.9772,6.0121,6.0237,6.0441,6.0622,6.0734,6.0734,6.0597,6.0597,6.071,6.0781,6.0781,6.0781,0.0,0.0,0.0,0.0,0.0,0.0,0.0,0.0,0.0,0.0,0.0,0.0,0.0,0.0,0.0,0.0,0.0,0.0,0.0,0.0,0.0,0.0,0.0,0.0,0.0,0.0,0.0,0.0,0.0,0.0,0.0,0.0,0.0,0.0,0.0,0.0,0.0,6.1466,6.2466,0.0,6.3618,6.4253,6.487,6.541,6.6089,6.6523,6.6667,6.7475,6.7936,6.7936,6.8783,6.9244,6.9244,7.0052,7.0744,7.1321,7.1591,7.2041,7.2673,7.2981,7.3097,7.3135,7.3443,7.3542,7.3437,7.2822,7.2591,7.2591,7.2937,7.3053,7.3091,7.3399,7.3514,7.3514,0.0,0.0,0.0,0.0,0.0,0.0,0.0,0.0,0.0,5.3794,5.3794,5.3794,5.3794,5.4054,5.4537,5.5391,5.6209,5.7066,5.8008,5.8567,5.8865,0.0,0.0,0.0,0.0,5.9397,5.9605,6.0,6.0,6.015,6.0494,6.0494,6.0572,6.0781,6.0781,6.0781,6.0781,6.0781,6.0781,6.0781,6.0781,6.0781,6.0781,0.0,0.0,0.0,0.0,0.0,0.0,0.0,0.0,0.0,0.0,0.0,0.0,0.0,0.0,0.0,0.0,0.0,0.0,0.0,0.0,0.0,0.0,0.0,0.0,0.0,0.0,0.0,0.0,0.0,0.0,0.0,0.0,0.0,0.0,0.0,6.2947,6.272,6.374,6.4488,6.4709,6.5437,6.5991,6.6282,6.7051,6.7552,6.7552,6.8359,6.8859,6.8886,6.9694,7.0298,7.0632,7.1133,7.1826,7.2712,7.2712,7.3047,7.3639,7.3909,7.4063,7.4063,7.4345,7.4406,7.4389,7.4389,7.435,7.4322,7.4014,7.3899,7.3937,7.4245,7.4361,7.4361,0.0,0.0,0.0,0.0,0.0,0.0,0.0,0.0,5.3794,5.3794,5.3794,5.3831,5.3831,5.4537,5.5354,5.6246,5.7063,5.7968,5.914,5.9215,5.9215,0.0,0.0,0.0,5.9809,5.9842,6.0,6.0321,6.0321,6.0494,6.0781,6.0781,6.0781,6.0781,6.0781,6.0781,6.0781,6.0781,6.0781,6.0781,6.0781,6.0781,6.0781,0.0,0.0,0.0,0.0,0.0,0.0,0.0,0.0,0.0,0.0,0.0,0.0,0.0,0.0,0.0,0.0,0.0,0.0,0.0,0.0,0.0,0.0,0.0,0.0,0.0,0.0,0.0,0.0,0.0,0.0,0.0,0.0,0.0,6.2383,6.3027,6.3823,6.4552,6.5015,6.5485,6.591,6.6628,6.709,6.7128,6.7936,6.8436,6.8436,6.9283,6.9771,6.9887,7.0658,7.1493,7.2417,7.2417,7.288,7.3729,7.3729,7.3729,7.3832,7.4604,7.4925,7.4964,7.5798,7.609,7.609,7.609,7.6062,7.5899,7.5053,7.4745,7.4861,7.5707,7.6015,7.6015,0.0,0.0,0.0,0.0,0.0,0.0,0.0,5.3794,5.3794,5.3794,5.3794,5.4017,5.4611,5.4871,5.5614,5.7063,5.736,5.7884,5.8788,5.9064,0.0,0.0,0.0,0.0,6.015,6.0179,6.0321,6.0685,6.0685,6.071,6.0781,6.0781,6.0781,6.0781,6.0781,6.0781,6.0781,6.0781,6.0781,6.0781,6.0781,6.0781,6.0781,0.0,0.0,0.0,0.0,0.0,0.0,0.0,0.0,0.0,0.0,0.0,0.0,0.0,0.0,0.0,0.0,0.0,0.0,0.0,0.0,0.0,0.0,0.0,0.0,0.0,0.0,0.0,0.0,0.0,0.0,0.0,0.0,6.4527,6.3619,6.4479,6.5197,6.514,6.5482,6.6012,6.6705,6.6974,6.7359,6.8013,6.8859,6.9386,6.9438,7.0208,7.0966,7.1659,7.1891,7.2456,7.3305,7.3343,7.3768,7.4578,7.4578,7.4912,7.5581,7.5812,7.5928,7.5928,7.6135,7.6225,7.6172,7.6172,7.6145,7.6145,7.5821,7.5687,7.5668,7.5899,7.6015,7.6015,0.0,0.0,0.0,0.0,0.0,0.0,0.0,5.3794,5.3794,5.3794,5.4091,5.45,5.4946,5.5652,5.6432,5.7435,5.7806,5.8341,5.9103,5.9467,0.0,0.0,0.0,6.0179,6.052,6.052,6.0597,6.0781,6.0781,6.0781,6.0781,6.0781,6.0781,6.0781,6.0781,6.0781,6.0781,6.0781,6.0781,6.0781,6.0781,6.0781,6.0781,6.0781,6.0781,6.0781,6.0781,6.0781,6.0781,6.0781,0.0,0.0,0.0,0.0,0.0,0.0,0.0,0.0,0.0,0.0,0.0,0.0,0.0,0.0,0.0,0.0,0.0,0.0,0.0,0.0,0.0,0.0,0.0,0.0,6.4993,6.5291,6.5283,6.564,6.5961,6.6068,6.6254,6.6744,6.7552,6.7975,6.8398,6.8924,6.9797,7.0439,7.0863,7.1326,7.2007,7.2969,7.3007,7.3393,7.4292,7.4292,7.4717,7.5528,7.5528,7.5799,7.635,7.635,7.635,7.635,7.6326,7.6276,7.625,7.625,7.6225,0.0,0.0,0.0,0.0,0.0,7.6015,7.6015,0.0,0.0,0.0,0.0,0.0,0.0,0.0,5.3794,5.3794,5.3794,5.45,5.5057,5.5131,5.6543,5.7546,5.7702,5.8371,5.9064,5.9809,0.0,0.0,6.0781,6.052,6.0494,6.0781,6.0781,6.0781,6.0781,6.0781,6.0781,6.0781,6.0781,6.0781,6.0781,6.0781,6.0781,6.0781,6.0781,6.0781,6.0781,6.0781,6.0781,6.0781,6.0781,6.0781,6.0781,6.0781,6.0781,6.0781,6.0781,0.0,0.0,0.0,0.0,0.0,0.0,0.0,0.0,0.0,0.0,0.0,0.0,0.0,0.0,0.0,0.0,0.0,0.0,0.0,0.0,0.0,0.0,0.0,0.0,6.5512,6.5906,6.7102,6.6628,6.6436,6.7167,6.7244,6.759,6.8475,6.9244,6.9771,6.9926,7.0696,7.1519,7.2365,0.0,0.0,0.0,0.0,7.4378,7.5237,7.5237,7.5624,7.6397,7.6397,7.6397,7.6397,7.6397,7.6397,7.6397,7.635,7.6301,7.6301,7.6301,7.6276,7.6225,7.6198,7.6145,7.609,7.6005,7.6015,7.6015,0.0,0.0,0.0,0.0,0.0,0.0,0.0,5.3794,5.3794,5.3794,5.45,5.528,5.5986,5.6915,5.7854,5.8802,5.9028,5.9432,0.0,0.0,6.0468,6.0781,6.0734,6.0734,6.0781,6.0781,6.0781,6.0781,6.0781,6.0781,6.0781,6.0781,6.0781,6.0781,6.0781,6.0781,6.0781,6.0781,6.0781,6.0781,6.0781,6.0781,6.0781,6.0781,6.0781,6.0781,6.0781,6.0781,6.0781,6.0781,6.0781,6.0781,6.0781,6.0781,0.0,0.0,0.0,0.0,0.0,0.0,0.0,0.0,0.0,0.0,0.0,0.0,0.0,0.0,0.0,0.0,0.0,0.0,0.0,6.66,6.6742,6.7076,6.8013,6.8013,6.7975,6.8129,6.8167,6.8475,6.936,6.9643,7.0054,7.0735,7.1596,7.2249,7.2452,7.3148,7.393,7.4827,7.4866,7.5252,7.6127,7.6165,7.6243,7.6397,0.0,0.0,7.6397,7.6397,7.6397,7.6397,7.6397,7.6374,7.6374,7.6374,7.6374,7.635,7.625,7.6145,7.609,7.609,7.6034,7.6015,0.0,0.0,0.0,0.0,0.0,0.0,0.0,5.3794,5.3943,5.4351,5.5131,5.5986,5.6803,5.7784,5.8576,5.914,5.9534,5.9931,0.0,6.0468,6.0622,6.0781,6.0781,6.0781,6.0781,6.0781,6.0781,6.0781,6.0781,6.0781,6.0781,6.0781,6.0781,6.0781,6.0781,6.0843,6.0866,6.0866,6.0888,6.0949,6.1334,6.1466,6.1405,6.0997,6.0781,6.0781,6.0781,6.0781,6.0858,6.1281,6.1435,6.1512,6.1935,6.205,6.205,0.0,0.0,0.0,0.0,0.0,0.0,0.0,0.0,0.0,0.0,0.0,0.0,0.0,0.0,6.5778,0.0,0.0,6.6546,6.7564,6.7744,6.8052,6.8936,6.9052,6.9052,6.9052,6.9078,6.9451,7.0259,7.0838,7.1274,7.1723,7.2597,7.3302,7.3798,7.4224,7.4866,7.574,7.574,7.5972,7.6397,7.6397,7.6397,7.6397,7.6397,7.6397,7.6397,7.6397,7.6397,7.6397,7.6397,7.6397,7.6397,7.6397,7.6397,7.6397,7.6326,7.625,7.6198,7.6172,7.609,7.6034,0.0,0.0,0.0,0.0,0.0,0.0,0.0,0.0,5.4091,5.4909,5.5763,5.6617,5.7398,5.8461,5.914,5.9325,5.9992,0.0,0.0,6.0622,6.0781,6.0781,6.0781,6.0781,6.0781,6.0781,6.0781,6.0781,6.0781,6.0781,6.0781,6.0781,6.0781,6.0781,6.0781,6.0866,6.0911,6.1065,6.1164,6.1306,6.2116,6.2403,6.2298,6.1559,6.1304,6.1281,6.1281,6.1281,6.1396,6.2089,6.232,6.2435,6.3089,6.332,6.332,6.332,6.3435,0.0,0.0,0.0,0.0,0.0,0.0,0.0,0.0,0.0,6.5936,6.609,6.6128,6.6359,6.7205,6.7359,6.7628,6.8513,6.8667,6.8936,6.9821,7.009,7.0233,7.0233,7.0247,7.0542,7.1223,7.2122,7.2698,7.2747,7.3582,7.4378,7.5082,7.5276,7.5662,7.6359,7.6397,7.6397,7.6397,7.6397,7.6397,7.6397,7.6397,7.6397,7.6397,7.6397,7.6397,7.6397,7.6397,7.6397,7.6397,7.6397,7.6397,7.6397,7.6397,7.6374,7.6301,7.625,7.6172,7.6118,0.0,0.0,0.0,0.0,0.0,0.0,0.0,0.0,0.0,5.4909,5.5763,5.6617,5.7398,5.8256,5.9024,5.9711,6.0349,0.0,6.0734,6.0757,6.0781,6.0781,6.0781,6.0781,6.0781,6.0781,6.0781,6.0781,6.0781,6.0781,6.0781,6.0781,6.0781,6.0781,6.0781,6.0866,6.0949,6.172,6.2073,6.2116,6.3004,6.3329,6.3222,6.3145,6.306,6.3012,6.3012,6.3012,6.3051,6.3128,6.3166,6.3166,6.3281,6.332,6.332,6.332,6.3858,6.4436,6.4436,6.5013,6.5628,6.5743,6.582,6.5897,0.0,0.0,6.609,6.6821,6.6974,6.7244,6.809,6.8244,6.8552,6.9398,6.9552,6.986,7.0667,7.1491,7.2006,7.2006,7.2006,7.2071,7.2225,7.3085,7.3635,7.3635,7.4456,7.4982,7.5082,7.5817,7.6281,7.6397,7.6397,7.6397,7.6397,7.6397,7.6397,7.6397,7.6397,7.6397,7.6397,7.6397,7.6397,7.6397,7.6397,7.6397,7.6397,7.6397,7.6397,7.6397,7.6397,7.6397,7.6374,7.6326,7.625,7.6172,0.0,0.0,0.0,0.0,0.0,0.0,0.0,0.0,0.0,0.0,5.6469,5.7286,5.8103,5.8877,5.9537,6.0061,0.0,0.0,6.0781,6.0781,6.0781,6.0781,6.0781,6.0781,6.0781,6.0781,6.0781,6.0781,6.0781,6.0781,6.0781,6.0781,6.0781,6.0781,6.0781,6.1119,6.1709,6.2056,6.2523,6.3147,6.4036,6.4321,6.427,6.4733,6.4879,6.4666,6.3666,6.332,0.0,6.3897,6.4051,6.4166,6.4666,6.482,6.482,6.482,6.5051,6.5359,6.5359,6.5628,6.5897,6.5897,6.6244,6.659,6.659,6.6974,6.7436,6.7782,6.7859,6.8129,6.9013,6.9167,6.9436,0.0,7.0398,7.0706,7.1552,7.203,7.2495,7.3061,7.3575,7.3677,7.3263,7.4045,7.4572,7.4572,7.5368,7.5856,7.5856,7.6204,7.6397,7.6397,7.6397,7.6397,7.6397,7.6397,7.6397,7.6397,7.6397,7.6397,7.6397,7.6397,7.6397,7.6397,7.6397,7.6397,7.6397,7.6397,7.6397,7.6397,7.6397,7.6397,7.6397,7.6374,7.6326,7.625,0.0,0.0,0.0,0.0,0.0,0.0,0.0,0.0,0.0,0.0,0.0,5.7806,5.8624,5.9253,5.9772,6.015,0.0,0.0,0.0,6.0781,6.0781,6.0781,6.0781,6.0781,6.0781,6.0781,6.0781,6.0781,6.0781,6.0781,6.0781,6.0781,6.0781,6.0819,6.105,6.1543,6.2232,6.2695,6.3317,6.4115,6.4946,6.523,6.518,6.5797,6.5958,6.5743,6.4474,6.4012,6.4128,6.4743,6.4974,6.5051,6.5705,6.5897,6.5897,6.5897,6.5897,6.5897,6.5897,6.5897,6.5936,6.6167,6.6667,6.7167,6.7398,6.7936,6.8475,6.8706,6.8783,6.9013,6.986,7.0014,7.0283,7.1129,7.1245,7.1552,7.2465,7.2854,7.3292,7.3986,7.4847,7.5166,7.4548,7.5098,7.5469,7.5469,7.6049,7.6397,7.6397,7.6397,7.6397,7.6397,7.6397,7.6397,7.6397,7.6397,7.6397,7.6397,7.663,7.6746,7.6784,7.7016,7.7132,7.7132,7.7132,7.7132,7.7132,7.7132,7.7132,7.7132,7.7132,7.7132,7.7132,7.7132,7.6915,7.6673,0.0,0.0,0.0,0.0,0.0,0.0,0.0,0.0,0.0,0.0,0.0,0.0,0.0,0.0,5.9397,0.0,0.0,0.0,0.0,6.0781,6.0781,6.0781,6.0781,6.0781,6.0781,6.0781,6.0781,6.0781,6.0781,6.0781,6.0781,6.0781,6.0781,6.0819,6.1666,6.2121,6.2309,6.39,6.4717,6.4943,6.5688,6.599,6.5958,6.5996,6.5972,6.5897,6.582,6.582,6.582,6.5859,6.5859,6.5859,6.5897,6.5897,6.5897,6.5897,6.5897,6.5897,6.5897,6.5897,6.609,6.6859,6.709,6.7321,6.8167,6.8398,6.8629,6.9475,6.9667,6.9898,7.0706,7.086,7.1168,7.2014,7.2168,7.2503,7.3432,7.4294,7.4874,7.4949,7.577,7.6359,0.0,7.6359,7.6359,7.6359,7.6397,7.6397,7.6397,7.6397,7.6397,7.6397,7.6397,7.6397,7.6397,7.6397,7.6397,7.6397,7.7248,7.7674,7.7674,7.8525,7.8912,7.8912,7.8912,7.8912,7.8912,7.8912,7.8912,7.8912,7.8912,7.8912,7.8912,7.8912,7.837,7.7674,0.0,0.0,0.0,0.0,0.0,0.0,0.0,0.0,0.0,0.0,0.0,0.0,0.0,0.0,0.0,0.0,0.0,0.0,0.0,6.0546,6.071,6.0494,6.0685,6.0781,6.0781,6.0781,6.0781,6.0781,6.0781,6.0781,6.0781,6.0781,6.0781,6.0819,6.1704,6.2467,6.3119,6.4209,6.5103,6.5715,6.592,6.6005,6.5996,6.5996,6.5972,6.5897,0.0,6.5897,6.5897,6.5897,6.5897,6.5897,6.5897,6.5897,6.6013,6.6551,6.632,6.6128,6.7244,6.7128,6.6898,6.7744,6.8398,6.8898,6.9206,6.9667,7.0129,7.0437,7.0975,7.1437,7.1706,7.2245,7.2706,7.3014,7.3053,7.3388,7.4279,7.4706,7.5144,7.5799,7.6181,0.0,0.0,0.0,0.0,7.6397,7.6397,7.6397,7.6397,7.6397,7.6397,7.6397,7.6397,7.6668,7.7248,7.7248,7.7558,7.8138,7.8409,7.8564,7.8564,7.8873,7.8989,7.8989,7.8989,7.8989,7.8989,7.8989,7.8989,7.8989,7.8989,7.8989,7.8989,7.8989,7.9144,7.9299,0.0,0.0,0.0,0.0,0.0,0.0,0.0,0.0,0.0,0.0,0.0,0.0,0.0,0.0,0.0,0.0,0.0,0.0,0.0,6.0321,6.052,6.0293,6.0597,6.0781,6.0781,6.0781,6.0781,6.0781,6.0781,6.0781,6.0781,6.0781,6.0781,6.0858,6.2012,6.2891,6.356,6.4648,6.5481,6.6074,6.6005,6.5958,6.5972,6.5972,6.5947,0.0,6.5897,6.5897,6.5897,6.5897,6.5897,6.5897,6.5897,6.609,6.6436,6.6936,6.6936,6.7013,6.8129,6.7975,6.7782,6.8667,6.9283,6.9783,7.0052,7.0514,7.0898,7.0898,7.1591,7.2206,7.2206,7.2899,7.3591,7.3899,7.3937,7.4235,7.5154,7.5323,7.5633,7.6248,7.6374,7.6397,0.0,0.0,0.0,7.6397,7.6397,7.6397,7.6397,7.6397,7.6552,7.6862,7.6862,7.7287,7.8177,7.8177,7.8602,7.9415,7.9415,7.9608,7.9879,7.9879,7.9879,7.9879,7.9879,7.9879,7.9879,7.9879,7.9879,7.9879,7.9879,7.9879,7.9879,7.9879,8.0227,8.0536,0.0,0.0,0.0,0.0,0.0,0.0,0.0,0.0,0.0,0.0,0.0,0.0,0.0,0.0,0.0,0.0,0.0,0.0,5.9744,6.0091,6.0265,6.0265,6.0597,6.0781,6.0781,6.0781,6.0781,6.0781,6.0781,6.0781,6.0781,6.0781,6.0819,6.0935,6.2589,6.3344,6.3569,6.5191,6.5947,6.5996,6.5923,6.5897,6.5897,6.5897,6.5897,6.5897,6.5897,6.5897,6.5897,6.5897,6.5897,6.5897,6.5897,6.6436,6.709,6.7128,6.7744,6.8436,6.8513,6.8513,6.8667,6.9552,6.9744,6.9975,7.0706,7.0898,7.0898,7.0937,7.1668,7.2283,0.0,0.0,7.3899,7.463,7.4784,7.511,7.6056,7.6198,7.625,0.0,0.0,0.0,0.0,0.0,0.0,7.6397,0.0,7.6397,7.6436,7.6475,7.6862,7.7751,7.7751,7.8177,7.9067,7.9105,7.9492,8.0266,8.0266,8.0691,8.1504,8.1504,8.1504,8.1504,8.1504,8.1504,8.1504,8.1504,8.1504,8.1504,8.1504,8.1504,8.1504,8.1504,8.1504,8.1387,0.0,0.0,0.0,0.0,0.0,0.0,0.0,0.0,0.0,0.0,0.0,0.0,0.0,0.0,0.0,0.0,0.0,0.0,5.8984,5.9571,5.9937,5.9937,6.0237,6.0546,6.0781,6.0781,6.0781,6.0781,6.0781,6.0781,6.0781,6.0781,6.1127,6.182,6.2858,6.369,6.4455,6.5461,6.5947,6.5996,6.5923,6.5897,6.5897,6.5897,6.5897,6.5897,6.5897,6.5897,6.5897,6.5897,6.5897,6.5897,6.5897,6.6436,6.7244,6.7898,6.8244,6.8667,6.9937,6.9821,6.959,7.0398,7.0591,7.0629,7.0914,7.0925,7.1118,7.1826,7.258,7.336,7.3937,0.0,0.0,7.563,7.5668,0.0,7.6133,7.6198,0.0,7.6397,0.0,7.6397,7.6397,7.6397,0.0,0.0,7.6397,7.6668,7.7326,7.7365,7.7751,7.8641,7.868,7.9067,7.9879,8.0536,8.0962,8.1194,8.1194,8.1271,8.1504,8.1504,8.1504,8.1504,8.1504,8.1504,8.1504,8.1504,8.1504,8.1504,8.1504,8.1504,8.1504,8.1504,8.1504,8.1465,0.0,0.0,0.0,0.0,0.0,0.0,0.0,0.0,0.0,0.0,0.0,0.0,0.0,0.0,0.0,0.0,0.0,0.0,0.0,5.9253,5.9605,5.9809,6.0121,6.0468,6.0781,6.0781,6.0781,6.0781,6.0781,6.0781,6.0781,6.0781,6.1281,6.2127,6.2935,6.3806,6.4715,6.5538,6.5923,0.0,0.0,6.5897,6.5897,6.5897,6.5897,6.5897,6.5897,6.5897,6.5897,6.5897,6.5897,6.5897,6.5897,6.6705,6.7782,6.8282,6.8936,6.9706,7.0629,7.0552,7.036,7.0783,7.0925,7.1068,7.1453,7.1556,7.1787,7.2646,7.3493,7.4197,7.463,7.5399,7.6015,0.0,0.0,0.0,7.6172,7.6225,7.6276,0.0,7.6397,0.0,7.6397,7.6397,7.6552,0.0,7.6978,7.7171,7.7674,7.8061,7.8641,7.9492,7.9531,7.9918,8.0769,8.1658,8.2084,8.2084,8.2471,8.2625,8.2625,8.2625,8.2625,8.2625,0.0,8.2625,8.2625,8.2625,8.2625,8.2625,8.2625,8.2625,8.2625,8.2625,8.2625,8.2625,0.0,0.0,0.0,0.0,0.0,0.0,0.0,0.0,0.0,0.0,0.0,0.0,0.0,0.0,0.0,0.0,0.0,0.0,0.0,0.0,0.0,5.9673,6.0061,6.0376,6.0734,6.0757,6.0781,6.0781,6.0781,6.0781,6.0781,6.0781,6.1281,6.2127,6.2935,6.3782,6.4666,6.5513,6.5897,6.5897,6.5897,6.5897,6.5897,0.0,6.5897,6.5897,6.5897,6.5897,6.5897,6.5897,6.5897,6.5897,6.6013,6.7128,6.8436,6.8552,6.9667,7.0898,7.0898,7.0898,7.0898,7.0898,7.0952,7.121,7.2069,7.2302,7.2662,7.3504,7.4263,7.4791,7.4861,7.5476,7.6015,7.6015,0.0,7.6118,7.6172,7.625,7.6326,7.6397,7.6397,7.6397,7.6397,7.6514,7.69,7.7635,7.7906,7.8022,7.8022,7.8757,7.9531,8.0343,8.0498,8.0923,8.1658,8.2548,8.2973,8.2973,8.3747,8.4095,8.4095,8.4095,8.4095,8.4095,8.4095,8.4095,8.4095,8.4095,8.4095,8.4095,8.4095,8.4095,8.4095,8.4095,8.4095,8.4095,0.0,0.0,0.0,0.0,0.0,0.0,0.0,0.0,0.0,0.0,5.8614,5.8698,0.0,0.0,0.0,0.0,0.0,0.0,0.0,0.0,0.0,0.0,5.9673,6.0061,6.0376,6.0685,6.0781,6.0781,6.0781,6.0781,6.0781,6.0781,6.1281,6.2127,6.2935,6.3782,6.4666,6.5513,6.5897,6.5897,6.5897,6.5897,6.5897,6.5897,0.0,0.0,6.5897,6.5897,6.5897,6.5897,6.5897,6.6013,6.6667,6.759,6.8552,6.9244,7.0167,7.0898,7.0898,7.0898,7.0925,7.0979,7.1005,7.1236,7.2174,7.2354,7.2817,7.4279,7.4703,7.4984,7.563,7.5899,7.6015,7.6015,7.6034,7.6118,7.6172,7.625,7.6326,0.0,7.6397,7.6397,7.6397,7.7055,0.0,0.0,7.8989,7.9763,7.9763,7.9918,8.0382,8.1271,8.1968,8.2432,8.2548,8.3438,8.3863,8.3863,8.4018,8.4095,8.4095,8.4095,8.4095,8.4095,8.4095,0.0,8.4095,8.4095,8.4095,8.4095,8.4095,8.4095,8.4095,8.4095,8.4095,8.4095,0.0,0.0,0.0,0.0,0.0,0.0,0.0,5.8656,5.8572,5.8529,5.8529,5.8529,5.8614,5.8656,5.8698,0.0,0.0,0.0,0.0,0.0,0.0,0.0,0.0,0.0,0.0,6.0546,6.071,6.0546,0.0,6.0781,6.0781,6.0781,6.1281,6.2127,6.2512,6.3397,6.4628,6.5051,6.5474,6.5897,6.5897,6.5897,6.5897,0.0,0.0,0.0,0.0,6.5897,6.5897,6.5897,6.5897,6.6051,6.6859,6.7705,6.859,6.9436,7.0283,7.0898,7.0898,7.0898,7.0925,7.0979,7.103,7.1403,7.2765,7.3123,7.3611,7.5154,7.5501,7.5617,7.5928,7.6015,7.6015,7.6015,7.6062,7.6145,7.6198,7.6276,7.6374,7.6397,7.6397,7.6591,7.7016,7.7442,7.8061,7.895,7.9763,8.0188,8.0188,8.1078,8.1736,8.2161,8.3012,8.3476,8.3476,8.4327,8.4714,8.4714,8.5178,8.541,8.541,8.541,8.541,8.541,8.541,8.541,8.541,8.541,8.541,8.541,8.541,8.541,8.541,8.541,8.541,8.541,0.0,0.0,0.0,0.0,0.0,0.0,0.0,5.8572,5.8449,5.8443,5.84,5.8437,5.8486,5.8572,5.8656,0.0,0.0,0.0,0.0,0.0,0.0,0.0,0.0,0.0,0.0,0.0,0.0,6.0403,6.0685,0.0,0.0,0.0,0.0,0.0,6.2012,6.282,6.4089,6.4436,6.5013,0.0,0.0,6.5897,0.0,0.0,0.0,0.0,0.0,6.5897,6.5897,6.5897,6.6013,6.6282,6.7128,6.7859,6.8629,6.9667,7.0398,7.0898,7.0898,7.0898,7.0925,7.1005,7.1056,7.1569,7.333,7.379,7.434,7.5798,7.6145,7.6145,7.6034,7.6015,7.6015,7.6015,7.609,7.6198,7.6198,7.6326,7.6397,7.6397,7.6397,0.0,7.7635,7.7867,0.0,8.0111,8.0536,8.0769,8.0769,8.2045,8.2896,8.3051,8.3902,8.4366,8.4366,8.5178,8.5565,8.5604,8.6261,8.661,8.661,8.661,8.661,8.661,8.661,8.661,0.0,8.661,8.661,8.661,8.661,8.661,8.661,8.661,8.661,8.661,0.0,0.0,0.0,0.0,0.0,0.0,0.0,5.8529,5.8443,5.8223,5.8349,5.8393,5.8393,5.8486,5.8572,0.0,0.0,0.0,0.0,0.0,0.0,0.0,0.0,0.0,0.0,0.0,0.0,6.0757,6.0781,0.0,0.0,0.0,0.0,0.0,0.0,6.2166,6.2435,6.3935,0.0,0.0,0.0,0.0,0.0,0.0,0.0,0.0,0.0,6.5897,6.5897,6.5897,6.6397,6.7128,6.8013,6.8359,6.8706,7.0321,7.0821,7.0898,7.0898,7.0898,7.0925,7.1056,7.1106,7.1569,7.3379,7.3837,7.434,7.5877,7.6198,7.6172,7.609,7.6034,7.6015,7.6015,7.609,7.6198,7.6198,7.6326,7.6397,7.6397,0.0,0.0,7.7635,7.8409,7.926,8.015,8.1658,8.2548,8.2548,8.2703,8.3167,8.394,8.4753,8.5178,8.5178,8.6068,8.6494,8.6494,8.6571,8.661,8.661,8.661,8.661,8.661,8.661,8.661,0.0,8.661,8.661,8.661,8.661,8.661,8.661,8.661,8.661,8.661,0.0,0.0,0.0,0.0,0.0,0.0,5.8492,5.8486,5.8356,5.8223,5.8215,5.8215,5.8305,5.8393,5.8486,5.8656,0.0,0.0,0.0,0.0,0.0,0.0,0.0,0.0,0.0,0.0,6.0265,6.0208,6.0597,0.0,0.0,0.0,0.0,0.0,0.0,6.1589,6.2127,6.282,0.0,0.0,0.0,0.0,0.0,0.0,0.0,0.0,0.0,0.0,6.5897,6.5897,6.609,6.659,6.7975,6.8398,6.8744,7.0398,7.0898,7.0898,7.0898,7.0898,7.0925,7.103,7.1467,7.2211,7.3519,7.4224,7.4943,7.6044,7.625,7.6225,7.6118,7.6062,7.6034,7.6015,7.609,7.6198,7.6198,7.6326,7.6397,7.6397,7.6862,7.7519,0.0,0.0,8.0304,8.1658,8.2393,8.3244,8.425,8.4289,8.4443,8.4792,8.5643,8.6068,8.6068,8.6416,8.661,8.661,8.661,8.661,8.661,8.661,8.661,8.661,8.661,8.661,0.0,8.661,8.661,8.661,8.661,8.661,8.661,8.661,8.661,8.661,0.0,0.0,0.0,0.0,0.0,5.8656,5.8486,5.8437,5.8349,5.8133,5.8042,5.8042,5.8215,5.8305,5.848,5.8609,5.8656,0.0,0.0,0.0,0.0,0.0,0.0,0.0,0.0,0.0,5.9962,5.9969,6.0403,6.071,0.0,0.0,6.0781,6.0781,0.0,0.0,0.0,0.0,0.0,0.0,0.0,0.0,0.0,0.0,0.0,0.0,0.0,0.0,0.0,0.0,0.0,6.6513,6.7936,0.0,0.0,7.0475,7.0898,7.0898,7.0898,7.0898,7.0925,7.0979,7.1519,7.2327,7.3558,7.4301,7.5059,7.6118,7.6301,7.625,7.6145,7.6118,7.609,7.6034,7.6145,7.6225,7.6225,7.6326,7.6397,7.6397,0.0,7.8022,0.0,8.0188,8.1465,8.2703,8.3244,8.4057,8.5256,8.5526,8.5681,8.5681,8.63,8.661,8.661,8.661,8.661,8.661,8.661,8.661,8.661,8.661,8.661,8.661,8.661,8.661,0.0,8.661,8.661,8.661,8.661,8.661,8.661,8.661,8.661,8.661,0.0,0.0,0.0,0.0,0.0,0.0,5.8437,5.8393,5.8305,5.8042,5.7997,5.8042,5.8215,5.8305,5.8393,5.8393,5.8609,0.0,0.0,0.0,0.0,0.0,0.0,0.0,0.0,0.0,5.9568,6.0293,6.0293,6.0494,6.0781,6.0781,6.0781,6.0781,0.0,0.0,0.0,0.0,0.0,0.0,0.0,0.0,0.0,0.0,0.0,0.0,0.0,0.0,0.0,0.0,0.0,0.0,0.0,6.9013,6.986,7.0667,7.0898,7.0898,7.0898,7.0898,7.0925,7.0979,7.1056,7.1593,7.3403,7.3876,7.4386,7.6049,7.6301,7.6198,7.6198,7.6145,7.609,7.609,7.6225,7.6301,7.6301,7.635,7.6397,0.0,0.0,7.8022,7.8912,8.1271,8.278,8.278,8.4327,0.0,8.5294,8.6107,8.661,8.661,8.661,8.661,8.661,8.661,8.661,8.661,8.661,8.661,8.661,8.661,8.661,8.661,8.661,8.661,0.0,8.661,8.661,8.661,8.661,8.661,8.661,8.661,8.661,8.661,0.0,0.0,0.0,0.0,0.0,0.0,0.0,5.8393,5.8305,5.8042,5.7997,5.7997,5.8042,5.826,5.8393,5.8393,5.8486,0.0,0.0,0.0,0.0,0.0,0.0,0.0,0.0,0.0,5.9287,5.9534,6.0053,6.0349,6.0468,6.071,6.0781,6.0781,6.0781,6.0781,0.0,0.0,0.0,0.0,0.0,0.0,0.0,0.0,0.0,0.0,0.0,0.0,0.0,0.0,0.0,0.0,0.0,0.0,0.0,6.9821,7.0475,7.0898,7.0898,7.0898,7.0898,7.0925,7.1441,7.2251,7.3446,7.4215,7.4997,7.6165,7.6374,7.6326,7.6276,7.625,7.6225,7.6172,7.625,7.6301,7.6301,7.635,0.0,7.6397,7.7713,7.9144,0.0,0.0,8.3051,8.3631,8.4675,8.5565,8.6145,8.6455,8.661,8.661,8.661,8.661,8.661,8.661,8.661,8.661,8.661,8.661,8.661,8.661,8.661,8.661,8.661,8.6958,8.7499,8.7499,8.7847,8.8389,8.8389,8.8389,8.8389,8.8389,8.8389,8.8389,0.0,0.0,0.0,0.0,0.0,0.0,0.0,5.8393,5.8305,5.8042,5.7997,5.7997,5.7997,5.8179,5.8305,5.826,5.8312,0.0,0.0,0.0,0.0,0.0,0.0,0.0,0.0,5.8905,5.9065,5.9215,5.9635,6.0023,6.0293,6.052,6.0685,6.0781,6.0781,6.0781,0.0,0.0,0.0,0.0,0.0,0.0,6.4205,0.0,0.0,0.0,0.0,0.0,0.0,0.0,0.0,0.0,0.0,0.0,0.0,0.0,7.0283,7.0898,7.0898,7.0898,7.0898,7.0898,7.1376,7.2148,7.3421,7.4127,7.4896,7.6165,7.6374,7.635,7.6301,7.6301,7.6276,7.625,7.6301,7.635,7.635,7.6374,0.0,7.7287,0.0,0.0,0.0,8.2587,8.3515,8.4057,8.514,8.6029,8.6571,8.661,8.661,8.661,8.661,8.661,8.661,8.661,8.661,8.661,8.661,8.661,8.661,8.6958,8.7112,8.7112,8.7461,8.7886,0.0,8.8389,8.8698,8.9201,8.9201,8.9201,8.9201,8.9201,8.9201,8.9201,0.0,0.0,0.0,0.0,0.0,0.0,0.0,5.8393,5.8305,5.8042,5.7997,5.7997,5.7997,5.8133,5.8133,5.8042,0.0,0.0,0.0,0.0,0.0,0.0,0.0,0.0,0.0,5.8614,5.8865,5.9178,5.9178,5.9534,6.0237,6.0265,6.0468,6.0757,6.0781,6.0781,0.0,0.0,0.0,0.0,0.0,0.0,0.0,0.0,0.0,0.0,0.0,0.0,0.0,0.0,0.0,0.0,0.0,0.0,0.0,0.0,0.0,0.0,0.0,7.0898,7.0898,7.0898,7.0952,7.1467,7.3305,7.3741,0.0,7.6049,7.635,7.6301,7.6301,7.6301,7.6301,7.6301,7.6374,7.6397,7.6397,7.6436,0.0,0.0,7.9724,0.0,8.1504,8.3128,8.4134,8.4173,8.5681,8.661,8.661,8.661,8.661,8.661,8.661,8.661,8.661,8.661,8.661,8.661,8.6648,8.6687,8.6726,8.7615,8.8002,0.0,8.8853,8.924,0.0,8.9279,8.9317,8.9395,8.9395,8.9395,8.9395,8.9395,8.9395,8.9395,0.0,0.0,0.0,0.0,0.0,0.0,0.0,0.0,0.0,0.0,5.7997,5.8042,5.8133,5.8179,5.826,0.0,0.0,0.0,0.0,0.0,0.0,0.0,0.0,0.0,0.0,5.8614,5.8739,5.8825,5.9065,5.9289,5.9465,6.0023,6.0321,6.0441,6.0685,6.0781,0.0,0.0,0.0,0.0,0.0,0.0,0.0,0.0,0.0,0.0,6.482,6.532,0.0,0.0,0.0,0.0,0.0,0.0,0.0,0.0,6.9321,7.0129,7.0744,0.0,7.0898,7.0898,7.0898,7.1414,0.0,7.3716,0.0,0.0,0.0,7.6374,7.6374,7.6374,7.6374,7.6374,7.6397,7.6397,7.6397,7.6978,0.0,7.8873,7.9724,8.0807,8.2355,8.3476,8.4366,8.4985,8.5991,8.661,8.661,8.661,8.661,8.661,8.661,8.661,8.661,8.661,8.661,8.661,8.7267,8.7577,8.7615,8.8505,8.8892,8.8892,8.9124,0.0,9.013,9.013,9.0516,9.1097,9.1097,9.1097,9.1097,9.1097,9.1097,9.1097,0.0,0.0,0.0,0.0,0.0,0.0,0.0,0.0,0.0,0.0,0.0,0.0,0.0,0.0,0.0,0.0,0.0,0.0,0.0,0.0,0.0,0.0,0.0,0.0,5.8443,5.8614,5.8698,5.8698,5.8905,5.9064,5.9215,5.9804,6.015,6.0321,6.0622,6.0781,0.0,0.0,0.0,0.0,6.132,0.0,0.0,0.0,0.0,0.0,6.4474,6.5166,0.0,6.5897,6.5897,6.5897,0.0,0.0,0.0,0.0,6.9013,6.9898,7.0667,7.0898,7.0898,7.0898,7.0898,7.1414,7.3279,0.0,0.0,0.0,0.0,7.6397,7.6397,7.6397,7.6397,7.6397,7.6397,7.6397,7.6397,0.0,7.8486,7.895,8.0072,8.131,0.0,8.3592,8.4443,8.5256,8.6107,8.661,8.661,8.661,8.661,8.661,8.661,8.661,8.661,8.6996,8.719,8.7228,8.8079,8.8505,8.8505,8.9356,8.9743,8.9782,9.0168,0.0,9.0981,9.0981,9.1251,9.1716,9.1716,9.1716,9.1716,9.1716,9.1716,9.1716,0.0,0.0,0.0,0.0,0.0,0.0,0.0,0.0,0.0,0.0,0.0,0.0,0.0,0.0,0.0,0.0,0.0,0.0,0.0,0.0,0.0,0.0,0.0,5.8443,5.8393,5.8609,5.8698,5.8698,5.8698,5.8825,5.914,5.9571,6.003,6.0376,6.0685,6.0781,0.0,0.0,0.0,0.0,6.0781,0.0,0.0,0.0,0.0,0.0,0.0,0.0,0.0,6.5859,6.5897,6.5897,6.5897,0.0,0.0,0.0,0.0,0.0,7.0667,7.0898,7.0898,7.0898,7.1014,7.1568,7.3279,0.0,0.0,0.0,0.0,0.0,0.0,7.6397,0.0,7.6397,7.6397,7.6397,7.6397,7.7906,7.8989,7.8989,8.0498,0.0,8.2896,8.367,8.4482,8.5449,8.6184,8.661,8.661,8.661,8.661,8.661,8.6726,8.6803,8.6803,8.7538,8.7963,8.8118,8.8969,8.9395,8.9395,9.0246,9.0594,9.0633,0.0,0.0,9.1716,9.1716,9.1716,9.1716,9.1716,9.1716,9.1716,9.1716,9.1716,9.1716,0.0,0.0,0.0,0.0,0.0,0.0,0.0,0.0,0.0,0.0,0.0,0.0,0.0,0.0,0.0,0.0,0.0,0.0,0.0,0.0,0.0,0.0,5.8349,5.8393,5.8393,5.8609,5.8698,5.8698,5.8698,5.8739,5.8784,5.9505,6.015,6.0734,6.0757,6.0781,6.0781,0.0,0.0,0.0,6.0781,0.0,0.0,0.0,0.0,0.0,0.0,0.0,0.0,6.5628,6.5897,6.5897,6.5897,0.0,0.0,0.0,0.0,0.0,7.0475,7.0898,7.0898,7.0898,7.1491,7.2353,7.3459,0.0,0.0,0.0,0.0,0.0,0.0,7.6397,7.6397,0.0,0.0,7.6397,0.0,0.0,7.8989,7.8989,0.0,8.2122,8.3747,8.4018,8.4753,8.63,8.6532,8.661,8.661,8.661,8.661,8.661,8.7306,8.7693,8.7693,8.7847,8.8273,8.9008,8.982,9.0207,9.0246,9.1097,9.1484,9.1522,0.0,9.1716,9.1716,9.1716,9.1716,9.1716,9.1716,9.1716,9.1716,9.1716,9.1716,9.1716,0.0,0.0,0.0,0.0,0.0,0.0,0.0,0.0,0.0,0.0,0.0,0.0,0.0,0.0,0.0,0.0,0.0,0.0,0.0,0.0,0.0,5.8215,5.8349,5.8437,5.8443,5.8614,5.8698,5.8698,5.8698,5.8698,5.8698,5.947,6.0179,6.0781,6.0781,6.0781,6.0781,6.0781,0.0,6.0781,0.0,0.0,0.0,0.0,0.0,0.0,0.0,0.0,0.0,0.0,6.5897,6.5897,6.5897,0.0,0.0,0.0,0.0,0.0,7.0437,7.0898,7.0898,7.0952,7.1633,7.2572,7.3498,0.0,0.0,0.0,0.0,0.0,0.0,0.0,7.6397,7.6397,0.0,7.6552,7.7055,7.8216,7.9144,0.0,0.0,8.2703,8.3979,8.4482,8.5256,8.6532,8.661,8.661,8.661,8.661,8.6842,8.7306,8.7693,8.835,8.924,8.924,8.9433,8.9859,9.071,9.1097,9.1135,9.1522,9.1716,9.1716,0.0,9.1716,9.1716,9.1716,9.1716,9.1716,9.1716,9.1716,9.1716,9.1716,9.1716,9.1716,0.0,0.0,0.0,0.0,0.0,0.0,0.0,0.0,0.0,0.0,0.0,0.0,0.0,0.0,0.0,0.0,0.0,0.0,0.0,0.0,5.8088,5.826,5.8349,5.8437,5.8529,5.8614,5.8698,5.8698,5.8698,5.8781,5.8984,5.954,6.0179,6.0781,6.0781,6.0781,6.0781,6.0781,6.0781,6.0781,0.0,0.0,0.0,0.0,0.0,0.0,0.0,0.0,0.0,0.0,0.0,0.0,0.0,0.0,0.0,6.7898,6.8398,6.8783,7.0437,7.0898,7.0925,7.0979,0.0,7.2829,0.0,0.0,0.0,0.0,0.0,0.0,0.0,7.6397,0.0,7.6397,7.6397,7.6707,7.7558,7.8448,7.9299,8.0111,8.1736,8.3128,8.4018,8.483,8.5681,8.6532,8.661,8.661,8.661,8.661,8.6996,8.7886,8.8118,8.8931,9.04,9.0594,9.071,9.071,9.1367,9.1716,9.1716,9.1716,9.1716,9.1716,9.1716,9.1716,9.1716,9.1716,9.1716,9.1716,9.1716,9.1716,9.1716,9.1716,9.1716,9.1716,0.0,0.0,0.0,0.0,0.0,0.0,0.0,0.0,0.0,0.0,0.0,0.0,0.0,0.0,0.0,0.0,0.0,0.0,0.0,0.0,5.8088,5.8393,5.8393,5.8437,5.8529,5.8614,5.8698,5.8698,5.8698,5.9063,5.9744,5.9777,6.0179,6.0781,6.0781,6.0781,6.0781,6.0781,6.0781,6.0781,6.0781,0.0,0.0,0.0,0.0,0.0,0.0,0.0,0.0,0.0,0.0,0.0,0.0,0.0,6.6244,6.7898,6.8398,6.8783,7.0437,7.0898,7.0925,7.0979,0.0,0.0,0.0,0.0,0.0,0.0,0.0,0.0,0.0,7.6397,7.6397,7.6397,7.6397,7.6707,7.7558,0.0,7.9299,8.0111,8.1736,8.3128,8.4018,8.483,8.5681,8.6532,8.661,8.661,8.661,8.661,8.6996,8.7886,8.8698,8.9511,9.04,9.1213,9.16,9.16,9.1677,9.1716,9.1716,9.1716,9.1716,9.1716,9.1716,9.1716,9.1716,9.1716,9.1716,9.1716,9.1716,9.1716,9.1716,9.1716,9.1716,9.1716,0.0,0.0,0.0,0.0,0.0,0.0,0.0,0.0,0.0,0.0,0.0,0.0,0.0,0.0,0.0,0.0,0.0,0.0,0.0,0.0,5.8305,5.8393,5.8443,5.8529,5.8614,5.8656,5.8698,5.8698,5.8945,5.9252,5.9809,6.003,6.0349,6.0781,6.0781,6.0781,6.0781,6.0781,6.0781,6.0781,6.0781,6.0781,0.0,0.0,0.0,0.0,0.0,0.0,0.0,0.0,6.5897,6.5897,6.5897,6.5897,6.6244,6.7898,6.8398,6.8783,7.0437,7.0925,0.0,0.0,0.0,0.0,0.0,0.0,0.0,0.0,0.0,0.0,0.0,0.0,7.6397,7.6397,7.6862,7.7519,7.837,7.9221,8.0072,8.0923,8.2548,8.3747,8.4057,8.5333,8.6261,8.6571,8.661,8.661,8.661,8.7112,8.7809,8.8698,8.9511,9.0362,9.1213,9.1522,9.1716,9.1716,9.1716,9.1716,9.1716,9.1716,9.1716,9.1716,9.1716,9.1716,9.1716,9.1716,9.1716,9.1716,9.1716,9.1716,9.1716,9.1716,9.1716,9.1716,0.0,0.0,0.0,0.0,0.0,0.0,0.0,0.0,0.0,0.0,0.0,0.0,0.0,0.0,0.0,0.0,0.0,0.0,0.0,5.8393,5.8393,5.8393,5.8443,5.8572,5.8698,5.8698,5.8698,5.8698,5.8908,5.9215,5.9605,5.9962,6.0321,6.066,6.0757,6.0781,6.0781,6.0781,6.0781,6.0781,6.0781,6.0781,0.0,0.0,0.0,0.0,0.0,0.0,0.0,0.0,6.5897,6.5897,6.5897,6.5897,6.6244,6.7898,6.8398,6.8783,7.0437,7.0952,7.1223,0.0,0.0,0.0,0.0,0.0,0.0,0.0,0.0,0.0,0.0,0.0,0.0,0.0,7.7132,7.7983,7.8873,7.9685,8.0653,8.1774,8.3206,8.4211,8.4443,8.5759,8.661,8.661,8.661,8.661,8.661,8.7422,8.8312,8.9163,8.9975,9.0826,9.1677,9.1716,9.1716,9.1716,9.1716,9.1716,9.1716,9.1716,9.1716,9.1716,9.1716,9.1716,9.1716,9.1716,9.1716,9.1716,9.1716,9.1716,9.1716,9.1716,9.1716,9.1716,0.0,0.0,0.0,0.0,0.0,0.0,0.0,0.0,0.0,0.0,0.0,0.0,0.0,0.0,0.0,0.0,0.0,0.0,5.8393,5.8393,5.8393,5.8393,5.8486,5.8572,5.8698,5.8698,5.8698,5.8698,5.8698,5.8865,5.9215,5.9605,6.0,6.0321,6.0622,6.0781,6.0781,6.0781,6.0781,6.0781,6.0781,6.0781,6.0781,0.0,0.0,0.0,0.0,0.0,0.0,0.0,6.5897,6.5897,6.5897,6.5897,6.6244,6.7898,6.8398,6.8783,7.0437,7.0952,7.1223,0.0,0.0,0.0,0.0,0.0,0.0,0.0,0.0,0.0,0.0,0.0,0.0,7.6397,7.7132,7.8022,7.8873,7.9685,8.0846,8.2587,8.3554,8.4405,8.5217,8.6107,8.661,8.661,8.661,8.661,8.661,8.7422,8.8312,8.9163,8.9975,9.0826,9.1677,9.1716,9.1716,9.1716,9.1716,9.1716,9.1716,9.1716,9.1716,9.1716,9.1716,9.1716,9.1716,9.1716,9.1716,9.1716,9.1716,9.1716,9.1716,9.1716,9.1716,9.1716,0.0,0.0,0.0,0.0,0.0,0.0,0.0,0.0,0.0,0.0,0.0,0.0,0.0,0.0,0.0,0.0,0.0,0.0,5.8486,5.8529,5.8572,5.8486,5.8572,5.8656,5.8698,5.8698,5.8698,5.8698,5.8908,5.9103,5.9215,5.9868,6.0208,6.0321,6.0622,6.0781,6.0781,6.0781,6.0781,6.0781,6.0781,6.0781,6.0781,0.0,0.0,0.0,0.0,0.0,0.0,0.0,0.0,0.0,6.5897,6.6282,6.6974,6.809,6.8821,6.9552,7.0683,7.103,0.0,0.0,0.0,0.0,0.0,0.0,0.0,0.0,0.0,0.0,0.0,0.0,0.0,0.0,7.8061,7.8912,7.9724,8.0575,8.1542,8.2664,8.3554,8.4405,8.5217,8.6107,8.661,8.661,8.661,8.661,8.661,8.8002,8.8931,8.9201,9.0594,9.1445,9.1716,9.1716,9.1716,9.1716,9.1716,9.1716,9.1716,9.1716,9.1716,9.1716,9.1716,9.1716,9.1716,9.1716,9.1716,9.1716,9.1716,9.1716,9.1716,9.1716,9.1716,9.1716,0.0,0.0,0.0,0.0,0.0,0.0,0.0,0.0,0.0,0.0,0.0,0.0,0.0,0.0,0.0,0.0,0.0,0.0,0.0,0.0,5.8656,5.8529,5.8614,5.8698,5.8698,5.8698,5.8698,5.8698,5.8905,5.8986,5.9025,5.9568,5.9962,6.0121,6.0468,6.0685,6.0781,6.0781,6.0781,6.0781,6.0781,6.0781,6.0781,0.0,0.0,0.0,0.0,0.0,0.0,0.0,0.0,0.0,6.5897,6.6436,6.7282,6.8129,6.9013,6.9886,7.0748,7.1287,0.0,0.0,0.0,0.0,0.0,0.0,0.0,0.0,0.0,0.0,0.0,7.6397,0.0,7.7558,7.8409,7.9299,8.0111,8.0962,8.1968,8.3167,8.3786,8.4559,8.572,8.63,8.661,8.661,8.661,8.661,8.661,8.8234,8.9201,8.9201,9.0826,9.1716,9.1716,9.1716,9.1716,9.1716,9.1716,9.1716,9.1716,9.1716,9.1716,9.1716,9.1716,9.1716,9.1716,9.1716,9.1716,9.1716,9.1716,9.1716,9.1716,9.1716,9.1716,9.1716,0.0,0.0,0.0,0.0,0.0,0.0,0.0,0.0,0.0,0.0,0.0,0.0,0.0,0.0,0.0,0.0,0.0,0.0,0.0,0.0,5.8656,5.8492,5.8656,5.8698,5.8698,5.8698,5.8698,5.8698,5.8698,5.8698,5.8698,5.9102,5.9467,5.9842,6.0179,6.052,6.0781,6.0781,6.0781,6.0781,6.0781,6.0781,6.0781,6.0781,0.0,0.0,0.0,0.0,0.0,0.0,0.0,0.0,6.5897,6.6513,6.7359,6.8167,6.909,7.0002,7.0786,0.0,0.0,0.0,0.0,0.0,0.0,0.0,0.0,0.0,0.0,7.6397,7.6397,7.6397,7.6707,7.7674,7.8486,7.9299,8.0188,8.1001,8.2161,8.3902,8.4095,8.4753,8.6455,8.661,8.661,8.661,8.661,8.661,8.661,8.8234,8.9201,8.9201,9.0826,9.1716,9.1716,9.1716,9.1716,9.1716,9.1716,9.1716,9.1716,9.1716,9.1716,9.1716,9.1716,9.1716,9.1716,9.1716,9.1716,9.1716,9.1716,9.1716,9.1716,9.1716,9.1716,9.1716,0.0,0.0,0.0,0.0,0.0,0.0,0.0,0.0,0.0,0.0,0.0,0.0,0.0,0.0,0.0,0.0,0.0,0.0,0.0,0.0,5.8698,5.8656,5.8656,5.8698,5.8698,5.8698,5.8698,5.8698,5.8698,5.8698,5.8698,5.9399,5.9744,5.9842,6.0441,6.0734,6.0781,6.0781,6.0781,6.0781,6.0781,6.0781,6.0781,6.0781,6.132,0.0,0.0,0.0,0.0,0.0,0.0,0.0,6.5897,6.6936,6.8167,6.8359,6.9475,7.0695,7.1017,7.1723,0.0,0.0,7.5005,7.6165,7.6359,7.6397,7.6397,7.6397,7.6397,7.6397,7.6397,7.6397,7.69,7.8486,7.8873,7.9531,8.1001,8.1387,8.2161,8.3902,8.4095,8.4753,8.6455,8.661,8.661,8.661,8.661,8.661,8.661,8.8234,8.9201,8.9201,9.0826,9.1716,9.1716,9.1716,9.1716,0.0,9.1716,9.1716,9.1716,9.1716,9.1716,9.1716,9.1716,9.1716,9.1716,9.1716,9.1716,9.1716,9.1716,9.1716,9.1716,9.1716,9.1716,9.1716,0.0,0.0,0.0,0.0,0.0,0.0,0.0,0.0,0.0,0.0,0.0,0.0,0.0,0.0,0.0,0.0,0.0,0.0,0.0,0.0,0.0,5.8698,5.8698,5.8698,5.8698,5.8698,5.8698,5.8698,5.8698,5.8698,5.8698,5.929,5.9605,5.9842,6.0321,6.0622,6.0781,6.0781,6.0781,6.0781,6.0781,6.0781,6.0858,6.1243,6.1959,6.2829,6.3628,0.0,0.0,0.0,0.0,0.0,0.0,0.0,6.8475,6.8898,6.9925,7.1056,7.1582,0.0,0.0,7.475,0.0,7.6397,7.6397,7.6397,7.6397,7.6397,7.6397,7.6397,7.6397,7.6746,7.7442,7.8796,7.9337,8.0034,8.131,8.1504,8.2161,8.3902,8.4095,8.4753,8.6455,8.661,8.661,8.661,8.661,8.661,8.661,8.8234,8.9201,8.9201,9.0826,9.1716,9.1716,9.1716,9.1716,9.1716,9.1716,9.1716,9.1716,9.1716,9.1716,9.1716,9.1716,9.1716,9.1716,9.1716,9.1716,9.1716,9.1716,9.1716,9.1716,9.1716,9.1716,9.1716,0.0,0.0,0.0,0.0,0.0,0.0,0.0,0.0,0.0,0.0,0.0,0.0,0.0,0.0,0.0,0.0,0.0,0.0,0.0,0.0,0.0,5.8698,5.8698,5.8698,5.8698,5.8698,5.8739,5.8821,5.8821,0.0,0.0,0.0,5.9502,5.9906,6.0237,6.0546,6.0781,6.0781,6.0781,6.0819,6.0973,6.1012,6.1151,6.1997,6.2891,6.3746,6.4407,6.524,6.5996,6.5947,0.0,0.0,0.0,0.0,6.859,6.9436,7.0336,7.1223,7.2147,0.0,7.4393,7.6011,7.6397,0.0,7.6397,7.6397,7.6397,7.6397,7.6397,7.6397,7.6397,7.7094,7.7983,7.8873,7.9685,8.0498,8.1387,8.1504,8.2161,8.3902,8.4095,8.4753,8.6455,8.661,8.661,8.661,8.661,8.661,8.661,8.8234,8.9201,8.9201,9.0826,9.1716,9.1716,9.1716,9.1716,9.1716,9.1716,9.1716,9.1716,9.1716,9.1716,9.1716,9.1716,9.1716,9.1716,9.1716,9.1716,9.1716,9.1716,9.1716,9.1716,9.1716,9.1716,9.1716,0.0,0.0,0.0,0.0,0.0,0.0,0.0,0.0,0.0,0.0,0.0,0.0,0.0,0.0,0.0,0.0,0.0,0.0,5.8698,0.0,0.0,5.8698,5.8698,5.8698,5.8698,5.8698,5.8825,5.914,0.0,0.0,0.0,0.0,0.0,6.0237,0.0,6.0757,6.0781,6.0781,6.0781,6.0858,6.1627,6.1982,6.2105,6.2914,6.3785,6.4624,6.4717,6.5311,6.5996,6.5996,6.5947,0.0,0.0,0.0,6.859,6.9436,7.0336,7.1223,0.0,0.0,7.5136,0.0,7.6397,7.6397,0.0,0.0,7.6397,0.0,7.6397,7.6397,7.6397,7.7094,7.7983,7.8873,7.9685,8.0498,8.1387,8.1504,8.2161,8.3902,8.4095,8.4753,8.6455,8.661,8.661,8.661,8.661,8.661,8.661,8.8234,8.9201,8.9201,9.0826,9.1716,9.1716,9.1716,9.1716,9.1716,9.1716,9.1716,9.1716,9.1716,9.1716,9.1716,9.1716,9.1716,9.1716,9.1716,9.1716,9.1716,9.1716,9.1716,9.1716,9.1716,9.1716,9.1716,0.0,0.0,0.0,0.0,0.0,0.0,0.0,0.0,0.0,0.0,0.0,0.0,0.0,0.0,0.0,5.8698,5.8698,5.8698,5.8698,5.8698,5.8698,5.8698,5.8698,5.8698,5.8698,5.8698,5.8865,5.9215,0.0,0.0,0.0,6.0091,6.0179,0.0,0.0,0.0,6.0819,6.132,6.1535,6.1636,6.2483,6.2852,6.2953,6.3846,6.4447,6.4855,6.5318,6.5681,6.6005,6.602,6.6255,6.6705,6.7552,0.0,0.0,0.0,7.0735,7.1389,7.2839,7.4494,7.5933,0.0,7.6397,7.6397,7.6397,7.6397,7.6397,7.6397,7.6397,7.6397,7.6397,7.7519,7.8564,7.895,8.0072,8.1078,8.1465,8.1504,8.2161,8.3902,8.4095,8.4753,8.6455,8.661,8.661,8.661,8.661,8.661,8.661,8.8234,8.9201,8.9201,9.0826,9.1716,9.1716,9.1716,9.1716,9.1716,9.1716,9.1716,9.1716,9.1716,9.1716,9.1716,9.1716,9.1716,9.1716,9.1716,9.1716,9.1716,9.1716,9.1716,9.1716,9.1716,9.1716,9.1716,0.0,0.0,0.0,0.0,0.0,0.0,0.0,0.0,0.0,0.0,0.0,0.0,0.0,0.0,0.0,0.0,5.8698,5.8698,5.8698,5.8698,5.8698,5.8698,5.8698,5.8698,5.8698,5.8743,5.8986,0.0,0.0,0.0,6.0441,6.0441,6.0556,0.0,6.1017,0.0,0.0,0.0,0.0,6.2567,6.3415,6.3746,6.3885,6.4778,6.5131,6.5209,6.5826,6.6036,6.6013,6.6005,6.6511,6.7269,6.8129,6.9013,0.0,0.0,0.0,0.0,0.0,0.0,7.6397,7.6397,7.6397,7.6397,0.0,0.0,7.6397,0.0,7.6397,7.6397,7.6397,7.7829,7.8989,7.8989,8.042,8.1504,8.1504,8.1504,8.2161,8.3902,8.4095,8.4753,8.6455,8.661,8.661,8.661,8.661,8.661,8.661,8.8041,8.8969,8.9201,9.0594,9.1484,9.1716,9.1716,9.1716,9.1716,9.1716,9.1716,9.1716,9.1716,9.1716,9.1716,9.1716,9.1716,9.1716,9.1716,9.1716,9.1716,9.1716,9.1716,9.1716,9.1716,9.1716,9.1716,0.0,0.0,0.0,0.0,0.0,0.0,0.0,0.0,0.0,0.0,0.0,0.0,0.0,5.8698,5.8698,5.8698,5.8698,5.8698,5.8698,5.8698,5.8698,5.8698,5.8698,0.0,5.8698,5.9025,0.0,0.0,0.0,0.0,6.0757,6.0757,6.1219,6.2012,6.2012,6.2012,6.2089,0.0,0.0,0.0,6.4263,6.4717,6.4904,6.5715,6.6046,6.6147,6.6185,0.0,0.0,0.0,0.0,0.0,6.8155,6.9013,6.986,0.0,0.0,0.0,0.0,7.5701,0.0,7.6397,7.6397,7.6397,0.0,0.0,7.6397,7.6397,7.6397,7.6397,7.6397,7.7829,7.8989,7.8989,8.042,8.1504,8.1504,8.1504,8.2161,8.3902,8.4095,8.4753,8.6455,8.661,8.661,8.661,8.661,8.661,8.661,8.7461,8.835,8.9163,9.0014,9.0865,9.1677,9.1716,9.1716,9.1716,9.1716,9.1716,9.1716,9.1716,9.1716,9.1716,9.1716,9.1716,9.1716,9.1716,9.1716,9.1716,9.1716,9.1716,9.1716,9.1716,9.1716,9.1716,0.0,0.0,0.0,0.0,0.0,0.0,0.0,0.0,0.0,0.0,0.0,0.0,0.0,5.9253,5.9434,5.9434,5.9178,5.8908,5.8698,5.8698,5.8698,5.8698,5.8698,5.8784,5.9025,5.914,0.0,0.0,0.0,6.0494,6.0819,6.1358,6.1781,6.2089,6.2089,6.2397,6.2935,6.383,0.0,0.0,0.0,6.5633,6.5715,6.6028,6.6144,0.0,0.0,0.0,0.0,0.0,0.0,0.0,0.0,0.0,0.0,0.0,0.0,0.0,0.0,0.0,0.0,7.6397,7.6397,7.6397,7.6397,7.6397,7.6397,7.6397,7.6397,7.6397,7.6397,7.7829,7.8989,7.8989,8.042,8.1504,8.1504,8.1504,8.2161,8.3902,8.4095,8.4753,8.6455,8.661,8.661,8.661,8.661,8.661,8.661,8.7422,8.8312,8.9163,8.9975,9.0826,9.1677,9.1716,9.1716,9.1716,9.1716,9.1716,9.1716,9.1716,9.1716,9.1716,9.1716,9.1716,9.1716,9.1716,9.1716,9.1716,9.1716,9.1716,9.1716,9.1716,9.1716,9.1716,0.0,0.0,0.0,0.0,0.0,0.0,0.0,0.0,0.0,0.0,0.0,0.0,0.0,0.0,5.9777,5.9605,5.9467,5.9252,5.8905,5.9024,5.9101,5.9101,5.9101,5.9178,5.9397,0.0,0.0,0.0,0.0,0.0,0.0,6.182,6.2397,6.2935,6.2935,6.3243,0.0,0.0,0.0,6.5241,0.0,0.0,6.6123,0.0,0.0,0.0,0.0,0.0,0.0,0.0,0.0,0.0,0.0,0.0,0.0,0.0,0.0,0.0,7.5469,0.0,0.0,0.0,7.6397,7.6397,7.6397,7.6397,7.6397,7.6397,7.6397,7.6397,7.6397,7.7597,7.8641,7.895,8.042,8.1504,8.1504,8.1504,8.2161,8.3902,8.4095,8.4753,8.6455,8.661,8.661,8.661,8.661,0.0,8.661,8.7151,8.8002,8.9163,8.9975,9.0826,9.1677,9.1716,9.1716,9.1716,9.1716,9.1716,9.1716,9.1716,9.1716,9.1716,9.1716,9.1716,9.1716,9.1716,9.1716,9.1716,9.1716,9.1716,9.1716,9.1716,9.1716,9.1716,0.0,0.0,0.0,0.0,0.0,0.0,0.0,0.0,0.0,0.0,0.0,0.0,0.0,0.0,0.0,5.9289,5.9571,5.9639,5.9252,5.9571,5.9809,5.9809,5.9809,5.9809,5.9842,0.0,0.0,0.0,0.0,0.0,0.0,0.0,6.3051,6.4589,6.4628,6.4628,6.4705,0.0,6.6005,6.6013,0.0,6.6183,6.6224,0.0,0.0,0.0,6.7578,6.8119,0.0,6.879,0.0,0.0,0.0,0.0,0.0,0.0,0.0,0.0,0.0,0.0,0.0,7.6397,7.6397,7.6397,7.6397,7.6397,7.6397,7.6397,7.6397,7.6397,7.6397,7.7094,7.7983,7.8873,8.0382,8.1465,8.1504,8.1504,8.2161,8.3863,8.4095,8.4753,8.6416,8.6571,8.661,8.661,8.661,8.661,8.661,8.661,8.7422,8.9163,8.9975,9.0826,9.1677,9.1716,9.1716,9.1716,9.1716,9.1716,9.1716,9.1716,9.1716,9.1716,9.1716,9.1716,9.1716,9.1716,9.1716,9.1716,9.1716,9.1716,9.1716,9.1716,9.1716,9.1716,0.0,0.0,0.0,0.0,0.0,0.0,5.9639,0.0,0.0,0.0,0.0,0.0,0.0,0.0,6.0376,6.0023,6.0121,5.9992,5.9639,5.9744,5.9809,5.9809,5.9809,5.9899,6.0179,0.0,0.0,0.0,0.0,0.0,0.0,0.0,0.0,0.0,6.5243,6.5551,6.5551,6.5866,0.0,6.6052,6.6819,6.7132,0.0,0.0,0.0,0.0,0.0,6.9473,6.9744,0.0,7.066,7.0969,0.0,0.0,0.0,0.0,0.0,7.6088,7.632,0.0,0.0,0.0,0.0,0.0,7.6397,7.6397,7.6397,7.6397,7.6397,7.6397,7.6397,7.7094,7.7983,7.8873,7.9879,8.0769,8.1426,8.1504,8.1929,8.3012,8.3708,8.4521,8.5565,8.6223,8.661,0.0,8.661,8.661,8.661,8.719,8.8041,8.9163,8.9975,9.0826,9.1677,9.1716,9.1716,9.1716,9.1716,9.1716,9.1716,9.1716,9.1716,9.1716,9.1716,9.1716,9.1716,9.1716,9.1716,9.1716,9.1716,9.1716,9.1716,9.1716,9.1716,9.1716,0.0,0.0,0.0,0.0,0.0,6.003,6.003,6.003,6.0061,0.0,0.0,0.0,0.0,0.0,0.0,6.0321,6.0441,6.0349,6.003,6.015,6.039,6.0733,6.0771,6.1009,6.1555,6.1555,0.0,0.0,0.0,0.0,0.0,6.4359,0.0,0.0,0.0,0.0,0.0,0.0,0.0,0.0,6.7652,0.0,0.0,6.8622,6.9009,0.0,0.0,0.0,7.0672,7.1479,7.202,0.0,0.0,0.0,0.0,0.0,0.0,7.6397,7.6397,7.6397,7.6397,7.6397,0.0,0.0,7.6397,7.6397,7.6397,7.6397,7.6397,7.6397,7.6397,7.6823,7.7558,7.8796,7.9376,8.0111,8.1349,8.1504,8.1813,8.2703,8.3244,8.4018,8.5178,8.5759,8.6223,8.6571,8.661,8.661,8.661,8.7074,8.777,8.8621,8.9472,9.0284,9.1135,9.1522,9.1716,9.1716,9.1716,9.1716,9.1716,9.1716,9.1716,9.1716,9.1716,9.1716,9.1716,9.1716,9.1716,9.1716,9.1716,9.1716,9.1716,9.1716,9.1716,9.1716,0.0,0.0,6.071,6.0403,6.0349,6.0349,6.0349,6.0349,6.0468,0.0,0.0,0.0,0.0,0.0,0.0,0.0,6.0929,6.0954,6.0644,6.0929,6.1435,6.2204,6.2204,6.2551,6.3281,6.332,6.3358,0.0,0.0,0.0,0.0,0.0,6.5166,0.0,0.0,0.0,0.0,0.0,0.0,6.7657,6.858,6.8932,0.0,0.0,6.9512,7.017,7.0247,7.0789,7.1562,7.2452,7.3303,0.0,0.0,0.0,0.0,0.0,7.5779,7.6397,7.6397,7.6397,7.6397,7.6397,7.6397,0.0,7.6397,7.6397,7.6397,7.6397,7.6397,7.6397,7.6397,7.6397,7.6939,7.8602,7.895,7.9608,8.1271,8.1504,8.1774,8.2548,8.2741,8.3399,8.5024,8.5256,8.5681,8.6532,8.661,8.661,8.661,8.661,8.6996,8.7886,8.866,8.9472,9.04,9.1174,9.16,9.1716,9.1716,9.1716,9.1716,9.1716,9.1716,9.1716,9.1716,9.1716,9.1716,9.1716,9.1716,9.1716,9.1716,9.1716,9.1716,9.1716,9.1716,9.1716,0.0,0.0,6.0757,6.071,6.071,6.071,6.071,6.071,6.0734,0.0,0.0,0.0,0.0,0.0,0.0,0.0,6.2796,6.2796,6.2708,6.2796,6.2897,6.3051,6.3089,6.3128,6.332,6.332,6.3628,6.4359,0.0,0.0,0.0,0.0,0.0,0.0,0.0,0.0,0.0,0.0,0.0,6.9501,6.9684,0.0,6.9821,7.0556,7.0905,7.1137,7.1833,7.2181,7.2491,7.3342,7.4193,7.4889,0.0,0.0,0.0,7.6165,0.0,0.0,0.0,0.0,0.0,0.0,0.0,0.0,7.6397,7.6397,7.6397,7.6397,7.6397,7.6397,7.6397,7.6397,7.6746,7.779,7.8525,7.9608,8.1271,8.1504,8.1581,8.1736,8.2355,8.3206,8.4211,8.4908,8.5681,8.6532,8.661,8.661,8.661,8.661,8.6996,8.7886,8.8079,8.8892,9.04,9.0555,9.1019,9.1716,9.1716,9.1716,9.1716,9.1716,9.1716,9.1716,9.1716,9.1716,9.1716,9.1716,9.1716,9.1716,9.1716,9.1716,9.1716,9.1716,9.1716,9.1716,0.0,6.0781,6.0781,6.0781,6.0781,6.0781,6.0781,6.1166,0.0,0.0,0.0,0.0,0.0,0.0,0.0,0.0,0.0,6.332,6.332,6.332,6.3512,6.3935,6.3935,6.4166,6.4589,6.4589,6.482,6.5243,6.5243,0.0,0.0,0.0,0.0,0.0,0.0,0.0,0.0,0.0,7.0235,7.0628,7.0672,0.0,7.075,7.1601,7.1949,7.2065,7.2955,7.3496,7.3922,7.4347,7.5044,0.0,7.574,7.6049,7.6397,0.0,7.6397,7.6397,0.0,0.0,0.0,7.6397,0.0,0.0,0.0,7.6397,7.6397,7.6397,7.6397,7.6397,7.6397,7.6397,7.6668,7.7558,7.8409,7.9415,8.0691,8.1233,8.1504,8.1504,8.189,8.2471,8.336,8.4211,8.5217,8.6494,8.661,8.661,8.661,8.661,8.6803,8.7228,8.7693,8.8505,8.9782,9.0207,9.0826,9.1716,9.1716,9.1716,9.1716,9.1716,9.1716,9.1716,9.1716,9.1716,9.1716,9.1716,9.1716,9.1716,9.1716,9.1716,9.1716,9.1716,9.1716,9.1716,6.0781,0.0,6.0781,6.0781,6.0935,6.105,6.105,6.1781,0.0,0.0,0.0,0.0,0.0,0.0,0.0,0.0,0.0,0.0,0.0,0.0,6.4128,6.482,6.4859,6.5166,6.5859,6.5897,6.5897,6.5897,6.6051,6.6128,6.6128,6.6974,0.0,0.0,0.0,0.0,0.0,0.0,0.0,7.1562,0.0,7.1562,7.164,7.2529,7.2839,7.2955,7.3806,7.4657,7.5353,7.5353,7.5817,7.6397,7.6397,7.6397,0.0,0.0,0.0,0.0,0.0,0.0,0.0,0.0,0.0,7.6397,0.0,0.0,0.0,7.6397,7.6397,7.6397,7.6397,7.6397,7.663,7.7326,7.8177,7.9028,7.984,8.073,8.131,8.1504,8.1504,8.1852,8.2703,8.3708,8.4908,8.6261,8.6532,8.661,8.661,8.661,8.661,8.661,8.7267,8.8079,8.8931,8.9743,9.0594,9.1445,9.1638,9.1716,9.1716,9.1716,9.1716,9.1716,9.1716,9.1716,9.1716,9.1716,9.1716,9.1716,9.1716,9.1716,9.1716,9.1716,9.1716,9.1716,6.0781,6.0781,0.0,6.0781,6.1435,6.1935,6.1935,6.2627,0.0,0.0,0.0,0.0,0.0,0.0,0.0,0.0,0.0,0.0,6.559,0.0,0.0,6.5743,6.5743,6.5782,6.5897,6.5897,6.5897,6.5897,6.659,6.6974,6.6974,6.7859,6.827,0.0,6.9271,0.0,0.0,0.0,7.1595,0.0,7.2452,7.2452,0.0,7.3419,7.3767,7.3844,7.4657,7.5508,7.6243,0.0,7.632,7.6397,0.0,7.6397,7.6397,7.6397,0.0,0.0,0.0,0.0,0.0,0.0,7.6397,0.0,0.0,0.0,7.6397,7.6397,0.0,7.6397,7.6397,0.0,0.0,7.6514,7.7287,7.8138,7.9028,7.984,8.0653,8.1426,8.1504,8.1852,8.2703,8.4211,8.5256,8.5449,8.6145,8.661,8.661,8.661,8.661,8.661,8.6687,8.719,8.8041,8.8892,8.9743,9.0555,9.1329,9.1716,9.1716,9.1716,9.1716,9.1716,9.1716,9.1716,9.1716,9.1716,9.1716,9.1716,9.1716,9.1716,9.1716,9.1716,9.1716,9.1716,6.1627,6.155,0.0,6.2166,6.2551,6.2781,6.2781,6.3512,0.0,0.0,0.0,0.0,0.0,0.0,0.0,0.0,0.0,6.609,0.0,0.0,0.0,6.7321,6.7359,6.7359,6.7359,6.7359,6.7359,6.7359,6.7705,6.7859,6.7859,6.877,6.9246,6.9271,7.0194,0.0,7.1472,0.0,7.2545,0.0,0.0,0.0,0.0,7.4463,7.4928,7.5392,7.574,7.6088,7.6397,0.0,7.6397,0.0,0.0,0.0,0.0,7.6397,0.0,0.0,0.0,0.0,0.0,0.0,0.0,0.0,7.6397,0.0,7.6397,0.0,0.0,0.0,0.0,0.0,0.0,0.0,7.7132,7.7829,7.8177,7.8989,7.9995,8.1349,8.1504,8.1852,8.2703,8.3438,8.425,8.5217,8.5643,8.6068,8.6571,8.661,8.661,8.661,8.661,8.7035,8.7886,8.8776,8.9588,9.04,9.129,9.1716,9.1716,9.1716,9.1716,9.1716,9.1716,9.1716,9.1716,9.1716,9.1716,9.1716,9.1716,9.1716,9.1716,9.1716,9.1716,9.1716,6.2858,0.0,0.0,0.0,6.3512,6.3743,6.3974,6.4551,0.0,0.0,0.0,0.0,6.6244,6.6436,0.0,0.0,6.659,6.6821,0.0,0.0,6.7744,0.0,0.0,0.0,0.0,6.8398,6.8398,6.8398,6.8629,6.877,6.8809,6.9733,7.0144,7.0208,0.0,7.192,7.2538,0.0,7.3458,7.427,7.485,7.5237,7.5469,7.5469,7.5856,7.6397,7.6397,7.6397,7.6397,7.6397,7.6397,0.0,7.6397,0.0,7.6397,0.0,0.0,0.0,7.6397,0.0,0.0,0.0,0.0,0.0,0.0,0.0,0.0,0.0,0.0,0.0,0.0,0.0,7.6397,7.6397,0.0,7.7442,7.7674,7.8254,7.926,8.0962,8.1349,8.1736,8.2393,8.2664,8.3283,8.4521,8.5024,8.5565,8.6223,8.6455,8.661,8.661,8.661,8.6919,8.7538,8.8428,8.924,9.0091,9.0942,9.1484,9.1716,9.1716,9.1716,9.1716,9.1716,9.1716,9.1716,9.1716,9.1716,9.1716,9.1716,9.1716,9.1716,9.1716,9.1716,9.1716,6.4359,6.3858,0.0,0.0,0.0,6.4859,0.0,0.0,0.0,0.0,0.0,0.0,0.0,0.0,0.0,0.0,0.0,6.8321,6.8359,0.0,6.8359,0.0,0.0,6.8398,0.0,0.0,6.8398,6.8398,6.9297,6.9772,6.9772,7.0632,7.1091,7.1201,7.2051,7.2523,7.2645,7.3496,7.4309,7.5082,7.5082,7.5624,7.6359,0.0,7.6359,7.6397,7.6397,0.0,0.0,7.6397,7.6397,0.0,0.0,0.0,0.0,0.0,0.0,0.0,0.0,0.0,0.0,7.6397,0.0,0.0,0.0,0.0,7.6397,0.0,0.0,0.0,0.0,0.0,7.6397,7.6397,7.6397,0.0,0.0,7.7713,7.837,8.0034,8.1001,8.1504,8.1542,8.2316,8.2819,8.2857,8.4366,8.5294,8.5333,8.6145,8.661,8.661,8.661,8.661,8.6648,8.7499,8.8389,8.924,9.0052,9.0865,9.1716,9.1716,9.1716,9.1716,9.1716,9.1716,9.1716,9.1716,9.1716,9.1716,9.1716,9.1716,9.1716,9.1716,9.1716,9.1716,0.0,0.0,0.0,0.0,0.0,0.0,0.0,6.6359,0.0,0.0,0.0,0.0,0.0,6.8244,6.8398,0.0,0.0,6.8706,6.9258,6.9348,0.0,0.0,0.0,7.0183,0.0,0.0,0.0,0.0,7.0516,7.0632,7.0695,7.1593,7.2028,7.209,7.3025,7.3744,0.0,0.0,0.0,0.0,0.0,7.6127,7.6397,0.0,7.6397,7.6397,7.6397,7.6397,0.0,7.6397,7.6397,7.6397,7.6397,7.6397,7.6397,7.6397,7.6397,0.0,0.0,0.0,7.6397,7.6397,0.0,0.0,0.0,0.0,0.0,0.0,0.0,0.0,0.0,0.0,7.6397,7.6397,7.6397,7.6514,0.0,7.7326,7.8099,7.926,8.0653,8.1504,8.1504,8.1774,8.2161,8.2741,8.3863,8.4753,8.5256,8.6145,8.661,8.661,8.661,8.661,8.661,8.7461,8.8041,8.835,8.9743,9.0555,9.0865,9.1445,9.1716,9.1716,9.1716,9.1716,9.1716,9.1716,9.1716,9.1716,9.1716,9.1716,9.1716,9.1716,9.1716,9.1716,6.5897,0.0,0.0,0.0,0.0,0.0,0.0,0.0,0.0,0.0,6.8347,0.0,6.8937,0.0,6.9335,0.0,6.9387,6.9784,7.067,7.0464,0.0,7.153,7.126,0.0,0.0,0.0,0.0,0.0,0.0,7.2056,7.2056,7.2708,7.3025,7.3064,7.3938,7.4618,7.5121,7.543,7.5895,0.0,0.0,7.6397,0.0,0.0,7.6397,7.6397,0.0,7.6397,7.6397,7.6397,7.6397,7.6397,7.6397,7.6397,7.6397,7.6397,7.6397,7.6397,7.6397,7.6397,0.0,7.6397,7.6397,0.0,7.6397,0.0,7.6397,0.0,0.0,0.0,0.0,0.0,7.6397,7.6397,7.6397,7.6397,0.0,7.7132,7.8022,7.8912,8.0227,8.1155,8.1465,8.1504,8.1736,8.2316,8.3167,8.3979,8.483,8.5681,8.63,8.661,8.661,8.661,8.661,8.7151,8.7577,8.7925,8.9317,9.013,9.0439,9.129,9.1716,9.1716,9.1716,9.1716,9.1716,9.1716,9.1716,9.1716,9.1716,9.1716,9.1716,9.1716,9.1716,9.1716,0.0,0.0,0.0,0.0,6.6667,0.0,0.0,0.0,6.8501,0.0,6.9258,6.9797,6.9948,7.0593,7.103,7.1144,7.1183,7.153,7.2404,7.1684,0.0,0.0,7.1684,7.1607,7.2481,0.0,0.0,0.0,0.0,0.0,7.379,7.3899,7.396,7.3999,7.4811,7.516,7.5237,7.6049,7.6397,7.6397,7.6397,7.6397,7.6397,7.6397,7.6397,7.6397,7.6397,7.6397,7.6397,7.6397,7.6397,7.6397,7.6397,7.6397,7.6397,7.6397,7.6397,7.6397,7.6397,7.6397,7.6397,7.6397,0.0,0.0,0.0,0.0,7.6436,0.0,0.0,0.0,0.0,0.0,7.6436,7.6397,7.6397,7.6397,7.6397,7.7094,7.7983,7.8873,7.9685,8.0498,8.1426,8.1504,8.1504,8.1504,8.2316,8.3167,8.4057,8.4869,8.572,8.6571,8.661,8.661,8.661,8.661,8.7035,8.7847,8.8776,8.9588,9.0362,9.129,9.1716,9.1716,9.1716,9.1716,9.1716,9.1716,9.1716,9.1716,9.1716,9.1716,9.1716,9.1716,9.1716,9.1716,6.7744,6.7782,6.777,0.0,6.7962,6.8078,0.0,0.0,0.0,0.0,7.0246,7.0747,7.0797,7.0965,7.1351,7.1993,7.2119,0.0,0.0,0.0,0.0,7.3528,7.3296,7.3296,7.3528,7.3528,0.0,7.3837,0.0,0.0,7.3899,7.4502,7.4811,7.485,7.5701,7.6049,7.6088,7.632,7.6397,7.6397,7.6397,7.6397,7.6397,0.0,7.6397,7.6397,7.6397,7.6397,7.6397,7.6397,7.6397,7.6397,7.6397,7.6397,7.6397,7.6397,7.6397,7.6397,7.6397,7.6397,7.6397,7.6397,7.6397,7.6397,0.0,0.0,0.0,0.0,0.0,0.0,0.0,0.0,0.0,7.6514,7.6397,7.6397,7.6397,7.6591,7.7287,7.8834,7.9183,7.9879,8.1349,8.1504,8.1504,8.1504,8.2316,8.3167,8.4057,8.4869,8.572,8.6571,8.661,8.661,8.661,8.661,8.6726,8.6958,8.8466,8.9317,8.9549,9.1019,9.1716,9.1716,9.1716,9.1716,9.1716,9.1716,9.1716,9.1716,9.1716,9.1716,9.1716,9.1716,9.1716,9.1716,6.85,0.0,0.0,6.9128,0.0,0.0,6.9167,0.0,0.0,7.1,7.14,0.0,7.2259,7.2274,7.2467,7.3017,7.3079,0.0,7.4301,0.0,0.0,7.4425,7.4077,7.4077,7.4425,7.4425,0.0,7.5005,0.0,7.5005,7.5005,7.5469,7.5662,7.5701,7.6165,7.6397,7.6397,7.6397,7.6397,7.6397,7.6397,7.6397,0.0,7.6397,7.6397,7.6436,7.6823,7.6707,7.6397,7.6397,7.6397,7.6475,7.6862,7.6978,7.7055,7.7403,7.7519,7.7519,7.7519,7.7519,7.7519,7.7519,7.7519,7.7519,7.7519,7.7906,7.8254,0.0,7.8641,7.8834,0.0,0.0,0.0,7.7635,7.7519,7.7519,7.7519,7.7519,7.8022,7.9376,7.9531,8.0034,8.1387,8.1504,8.1504,8.1504,8.1968,8.278,8.4018,8.4521,8.5333,8.6571,8.661,8.661,8.661,8.661,8.661,8.661,8.7963,8.8814,8.924,9.0555,9.1329,9.1716,9.1716,9.1716,9.1716,9.1716,9.1716,9.1716,9.1716,9.1716,9.1716,9.1716,9.1716,9.1716,0.0,0.0,0.0,0.0,0.0,0.0,0.0,7.0899,0.0,7.2553,0.0,7.2916,7.3783,7.3837,7.3876,7.4038,0.0,7.4386,7.5237,7.4618,7.4541,7.5237,7.4618,7.4541,7.5276,7.5276,7.5624,0.0,0.0,7.6397,7.6397,7.6397,7.6397,7.6397,7.6397,7.6397,7.6397,7.6397,7.6397,7.6397,7.6397,7.6397,7.6397,7.6514,7.6552,7.6668,7.7558,7.7287,7.6591,7.6707,7.6746,7.6862,7.7635,7.7867,7.8022,7.8796,7.8989,7.8989,7.8989,7.8989,7.8989,7.8989,7.8989,7.8989,7.8989,7.9067,7.9144,7.9144,7.926,7.9299,0.0,0.0,0.0,7.8989,7.8989,0.0,0.0,0.0,7.9299,8.0111,8.0188,0.0,8.1426,8.1504,8.1504,8.1504,8.1504,8.2277,8.4018,0.0,8.4869,8.6571,8.661,8.661,8.661,8.661,8.661,8.661,8.7499,8.835,8.924,9.0014,9.0865,9.1716,9.1716,9.1716,9.1716,9.1716,9.1716,9.1716,9.1716,9.1716,9.1716,9.1716,9.1716,9.1716,0.0,0.0,0.0,0.0,0.0,7.2476,7.3103,7.2654,7.2592,7.3512,7.3628,7.3706,7.3883,7.3883,7.4131,7.485,7.4889,0.0,0.0,0.0,0.0,7.6165,7.6049,7.6011,7.6165,7.6165,7.6243,0.0,7.6397,7.6397,7.6397,7.6397,7.6397,7.6397,7.6397,7.6397,7.6397,7.6397,0.0,7.6397,7.6397,7.6397,7.6475,7.721,7.7481,7.7597,7.8448,7.8216,7.7558,7.8293,7.8525,7.8564,7.8718,7.8757,7.8796,7.895,7.8989,7.8989,7.8989,7.8989,7.8989,7.8989,7.8989,7.8989,7.8989,7.9531,7.9995,7.9995,8.0575,8.0846,8.0111,0.0,0.0,0.0,0.0,0.0,0.0,0.0,7.9299,8.0111,8.0188,8.0536,8.1426,8.1504,8.1504,8.1504,8.1504,8.2277,8.4018,0.0,8.4869,0.0,8.661,8.661,0.0,0.0,8.661,8.661,8.7499,8.835,8.924,9.0014,9.0865,9.1716,9.1716,9.1716,9.1716,9.1716,9.1716,9.1716,9.1716,9.1716,9.1716,9.1716,9.1716,9.1716,0.0,0.0,0.0,0.0,0.0,0.0,0.0,7.4131,0.0,7.4463,7.4541,7.4695,7.516,7.5198,7.5353,7.574,7.5779,7.5933,7.6359,7.6397,7.6397,7.6397,7.6397,7.6397,7.6397,7.6397,7.6397,7.6397,7.6397,7.6397,7.6397,7.6397,7.6397,7.6397,7.6397,7.6397,7.6397,0.0,0.0,7.6436,7.69,7.7055,7.7171,7.8022,7.837,7.8486,7.9376,7.9453,7.9105,7.9105,7.9067,7.9105,7.9569,7.9685,7.9724,8.015,8.0304,8.0304,8.0304,8.0304,8.0304,8.0304,8.0304,8.0304,8.0304,8.0614,8.0885,8.0885,8.1233,8.1387,8.0962,8.0575,0.0,0.0,0.0,0.0,0.0,0.0,8.0459,8.0846,8.0885,8.1039,8.1465,8.1504,8.1504,8.1504,8.1504,8.2277,8.4018,0.0,8.4869,0.0,0.0,0.0,8.661,0.0,8.661,8.661,8.7035,8.7693,8.8544,8.9395,9.0246,9.1058,9.1484,9.1716,9.1716,9.1716,9.1716,9.1716,9.1716,9.1716,9.1716,9.1716,9.1716,9.1716,0.0,7.3883,0.0,0.0,7.4154,0.0,7.5237,7.5392,7.5392,7.5392,7.5392,7.5624,7.632,7.6397,7.6397,7.6397,7.6397,7.6397,7.6397,7.6397,7.6397,7.6397,7.6397,7.6397,7.6397,7.6397,7.6397,0.0,0.0,7.6397,7.6397,7.6397,7.6397,7.6397,7.6397,0.0,0.0,0.0,7.6668,7.6746,7.7635,7.7983,7.8061,7.895,7.9299,7.9415,8.0382,8.0725,8.0622,8.0004,7.9718,7.9748,8.0508,8.0614,8.0653,8.1349,8.1542,8.1504,8.1504,8.1504,8.1504,8.1504,8.1504,8.1504,8.1504,8.1504,8.1504,8.1504,8.1504,8.1504,8.1504,8.1504,0.0,0.0,0.0,0.0,0.0,0.0,8.1504,8.1504,8.1504,8.1504,8.1504,8.1504,8.1504,8.1504,8.1504,8.2277,8.4018,0.0,0.0,0.0,0.0,8.661,8.661,0.0,8.661,8.661,8.661,8.7074,8.7925,8.8814,8.9627,9.0439,9.1329,9.1716,9.1716,9.1716,9.1716,9.1716,9.1716,9.1716,9.1716,9.1716,9.1716,9.1716,0.0,0.0,0.0,0.0,0.0,0.0,7.6165,7.6281,7.6281,7.6281,7.6281,7.632,7.6397,7.6397,7.6397,7.6397,7.6397,7.6397,7.6397,7.6397,7.6397,7.6397,7.6397,7.6397,7.6397,7.6397,7.6397,0.0,0.0,7.6397,7.6397,7.6397,7.6397,7.6397,0.0,0.0,0.0,7.7248,7.7558,7.7635,7.8525,7.8873,7.8989,7.9918,8.029,8.0382,8.1387,8.1757,8.1749,8.1824,8.1757,8.1633,8.1724,8.1658,8.1581,8.1658,8.162,8.1504,8.1504,8.1504,8.1504,8.1504,8.1504,8.1504,8.1504,8.1504,8.1504,8.1504,8.1504,8.1504,8.1504,8.1504,8.1504,0.0,0.0,0.0,0.0,0.0,8.1504,8.1504,8.1504,8.1504,8.1504,8.1504,8.1504,8.1504,8.1504,8.2277,0.0,0.0,0.0,8.6571,8.661,8.661,8.661,8.661,8.661,8.661,8.661,8.7074,8.7925,8.8814,8.9627,9.0439,9.1329,9.1716,9.1716,9.1716,9.1716,9.1716,9.1716,9.1716,9.1716,9.1716,9.1716,9.1716,0.0,0.0,0.0,0.0,0.0,0.0,0.0,7.6397,7.6397,7.6397,7.6397,7.6397,7.6397,7.6397,7.6397,7.6397,7.6397,7.6397,7.6397,7.6397,7.6397,7.6397,7.6397,7.6397,7.6397,7.6397,7.6397,0.0,0.0,7.6397,7.6397,7.6397,7.6397,7.6397,0.0,7.7171,7.7248,7.8099,7.8486,7.8564,7.9376,7.9763,7.9918,8.0846,8.1226,8.1424,8.2437,8.2809,8.2901,8.3576,8.2922,8.1999,8.2591,8.2645,8.257,8.3125,8.3167,8.3051,8.3051,8.3051,8.3051,8.3051,8.3051,8.3051,8.3051,8.3051,8.3051,8.3051,8.2625,8.2122,8.162,8.1504,8.1504,8.1504,0.0,0.0,0.0,0.0,8.1504,8.1504,8.1504,8.1504,8.1504,8.1504,8.1504,8.1504,8.1504,8.2045,0.0,0.0,0.0,8.5797,0.0,8.661,8.661,8.661,8.661,8.661,8.661,8.6803,8.719,8.8544,8.9936,9.1213,9.1561,9.1716,9.1716,9.1716,9.1716,9.1716,9.1716,9.1716,9.1716,9.1716,9.1716,9.1716,7.6397,0.0,7.6397,0.0,7.6397,7.6475,7.6746,7.6784,7.6862,7.7132,7.7171,7.7055,7.6823,7.7016,7.7171,7.7171,7.7171,7.7171,7.7171,7.7171,7.7171,7.7171,7.7171,0.0,7.7171,7.7171,7.7171,7.7171,7.7171,0.0,0.0,7.7171,0.0,0.0,7.779,7.8061,7.8138,7.8989,7.9337,7.9415,8.0304,8.0691,8.0885,8.1852,8.2277,8.2481,8.3481,8.3832,8.3938,8.4651,8.3948,8.289,8.3628,8.3672,8.3623,8.4266,8.4289,8.4173,8.4173,8.4134,8.4095,8.4095,8.4095,8.4095,8.4095,8.4095,8.4095,8.4095,8.3592,8.2973,8.2393,8.2277,8.22,8.1929,0.0,0.0,0.0,8.1504,8.1504,8.1504,8.1504,8.1504,8.1504,8.1504,8.1504,8.1504,8.1736,0.0,0.0,0.0,0.0,0.0,0.0,0.0,8.661,8.661,8.661,8.661,8.661,8.661,8.6648,8.8389,9.0091,9.1716,9.1716,9.1716,9.1716,9.1716,9.1716,9.1716,9.1716,9.1716,9.1716,9.1716,9.1561,9.1329,7.6397,7.6397,7.6397,7.6397,7.6397,7.6668,7.7558,7.7674,7.7983,7.8873,7.8989,7.8641,7.779,7.8448,7.8989,7.8989,7.8989,7.8989,7.8989,7.8989,7.8989,0.0,0.0,7.8989,7.8989,7.8989,7.8989,7.8989,0.0,0.0,7.8989,0.0,7.8989,7.8989,7.8989,7.8989,7.9028,7.984,8.0188,8.0266,8.1271,8.1697,8.1813,8.296,8.3386,8.3491,8.4525,8.4891,8.487,8.4915,8.4882,8.4883,8.4883,8.4804,8.4671,8.4704,8.4495,8.4289,8.4289,8.4211,8.4095,8.4095,8.4095,8.4095,8.4095,8.4095,8.4095,8.4095,8.4095,8.4095,8.4057,8.4057,8.3786,8.2896,0.0,0.0,0.0,8.1504,8.1504,8.1504,8.1504,8.1504,8.1504,8.1504,8.1504,8.1504,0.0,0.0,0.0,0.0,0.0,8.6532,8.661,0.0,8.661,8.661,8.661,8.661,8.661,8.661,8.6648,8.8389,9.0091,9.1716,9.1716,9.1716,9.1716,9.1716,9.1716,9.1716,9.1716,9.1716,9.1716,9.1716,9.1174,9.04,7.6668,7.7156,7.7543,7.7442,7.7906,7.8394,7.8704,7.8641,7.8757,7.9221,7.9647,7.9903,7.971,7.9361,7.9168,0.0,7.9144,7.9183,0.0,7.9183,7.9183,7.926,7.926,7.926,7.926,7.926,7.9221,7.9144,0.0,0.0,0.0,7.8989,7.8989,7.9028,7.9569,7.984,7.9879,8.073,8.1155,8.131,8.22,8.2689,8.296,8.3914,8.4318,8.4544,8.5463,8.5807,8.5871,8.6481,8.6679,8.6679,8.6679,8.6172,8.5701,8.623,8.6286,8.6145,8.6015,8.5952,8.5952,8.5952,8.5952,8.5952,8.6068,8.5991,8.5759,8.5062,8.4908,8.4753,8.4211,8.4095,8.4018,8.3708,8.367,0.0,8.3322,0.0,8.3051,8.2471,8.2393,8.2393,8.2393,8.2393,8.2625,8.3244,0.0,0.0,0.0,0.0,0.0,0.0,8.63,0.0,8.661,8.661,8.661,8.661,8.661,8.6919,8.7538,8.866,8.9782,9.0865,9.1445,9.1716,9.1716,9.1716,9.1716,9.1716,9.1716,9.1329,9.0826,9.0826,9.0284,8.9588,7.7797,7.8224,7.8573,7.8476,7.8934,7.94,7.9671,7.9675,7.9794,8.0251,8.0993,8.1485,8.1563,8.1375,0.0,8.0262,8.0223,8.0239,8.0329,8.0256,8.0243,8.0339,8.0339,8.0339,8.0339,8.0339,0.0,8.0223,8.0206,8.0188,8.0072,8.0034,7.9995,8.0034,8.0498,8.0691,8.0769,8.1658,8.2122,8.2277,8.3231,8.3734,8.3977,8.4902,8.5322,8.5508,8.6367,8.6679,8.6758,8.7304,8.75,8.75,8.75,8.707,8.664,8.7187,8.7206,8.7047,8.6964,8.6919,8.688,8.688,8.6878,8.6877,8.6909,8.6867,8.661,8.5913,8.5797,8.5643,8.514,8.5024,8.4946,8.4598,8.4559,8.4443,8.4134,8.4095,8.3902,8.336,8.3283,0.0,0.0,8.3283,8.3515,0.0,0.0,0.0,0.0,0.0,0.0,8.5797,8.6339,8.661,8.661,8.661,8.661,8.661,8.661,8.7074,8.7925,8.8466,8.9317,9.0439,9.0981,9.1406,9.1677,9.1367,9.1213,9.1174,9.0865,9.0439,8.9936,8.9936,8.9433,8.8698,7.9411,7.945,7.9528,0.0,7.9558,0.0,8.0662,8.0781,8.1088,8.1979,8.282,8.3299,8.3324,8.4145,8.4001,8.2245,0.0,0.0,0.0,8.2081,8.2091,8.2089,8.2089,8.2089,8.2089,8.205,8.1972,8.1894,8.1912,8.1901,8.1901,8.1824,8.1799,8.1774,8.1736,8.1697,8.1736,8.2689,8.3101,8.3203,8.434,8.4815,8.4898,8.5891,8.6289,8.6406,8.7226,8.75,8.75,8.75,8.75,8.75,8.75,8.75,8.75,8.75,8.7383,8.721,8.7194,8.7088,8.6996,8.6996,8.7001,8.6975,8.6849,8.6821,8.6803,8.6648,8.661,8.661,8.661,8.661,8.6339,8.5526,8.5372,8.514,8.4366,8.425,8.425,8.4173,0.0,0.0,8.4173,8.4173,8.4211,0.0,0.0,0.0,0.0,0.0,8.5759,8.6571,8.661,8.661,8.661,8.661,8.661,8.661,8.661,8.7035,8.7809,8.7886,8.8737,9.0246,9.0284,9.0787,9.1445,9.0633,9.0323,9.0246,8.9472,8.9163,8.9124,8.9124,8.8544,8.7809,0.0,0.0,8.0576,8.0498,8.1031,8.1743,8.2615,8.2647,8.2981,8.405,8.428,8.4359,8.4468,8.4709,8.466,8.4233,8.4083,8.4085,8.4179,8.4093,8.4076,8.4202,8.4209,8.4209,8.4209,8.3545,8.2803,8.2058,8.1945,8.189,8.1929,8.2552,8.2786,8.2741,8.336,8.3554,8.3515,8.385,8.4023,8.4248,8.5281,8.5754,8.5942,8.6832,8.7187,8.7226,8.7422,8.75,8.75,8.75,8.75,8.75,8.75,8.75,8.75,8.75,8.7461,8.7382,8.7236,8.7183,8.7151,8.7151,8.7269,8.733,8.7167,8.7121,8.7074,8.6919,8.6803,8.6764,8.6764,8.6687,8.6532,8.6339,8.63,8.6223,8.6029,8.6029,8.5759,0.0,8.5024,8.5024,8.5024,8.5024,8.5294,0.0,0.0,8.63,8.63,8.63,8.6377,8.661,8.661,8.661,8.661,8.661,8.661,8.661,8.661,8.6726,8.6919,8.7615,8.8118,8.8544,8.9201,8.9588,8.9782,8.9549,8.9472,8.9472,8.9279,8.8776,8.8196,8.8196,8.7654,8.6919,8.1406,8.1875,8.2304,8.2617,8.3086,8.3542,8.3987,8.4025,8.4185,8.4804,8.5166,8.5427,8.5504,8.5827,8.6104,8.6104,8.5278,8.4804,8.4883,8.4833,8.4805,8.4882,8.4883,8.4883,8.4883,8.4453,8.3945,8.3398,8.3296,8.3263,8.3263,8.3692,8.3839,8.3803,8.4195,8.4327,8.4327,8.4856,8.5125,8.5269,8.6295,8.6714,8.6836,8.7304,8.75,8.75,8.75,8.75,8.75,8.75,8.75,8.75,8.75,8.75,8.75,8.75,8.75,8.7461,8.7383,8.7323,8.7323,8.7323,8.744,8.7461,8.7265,8.7198,8.716,8.704,8.6961,8.6899,8.6817,8.6726,8.6687,8.661,8.661,8.661,8.661,8.661,8.6416,8.5952,8.5875,8.5875,8.5875,8.5875,8.6107,8.6571,8.661,0.0,8.661,8.661,8.661,8.661,8.661,8.661,8.661,8.661,8.661,8.661,8.661,8.661,8.661,8.7112,8.7538,8.7925,8.8389,8.8814,8.9163,8.8776,8.8621,8.8582,8.8157,8.7731,8.7306,8.7306,8.6996,8.661,8.3633,8.3789,8.4023,8.4765,8.4883,8.4922,8.5078,8.5117,8.5156,8.5273,8.5948,8.6421,8.6403,8.707,8.75,8.75,8.6133,8.5273,8.5273,8.5273,8.5273,8.5273,8.5273,8.5273,8.5273,8.5156,8.5039,8.4883,8.4883,8.4883,8.4883,8.4922,8.4922,8.4882,8.4903,8.4909,8.4916,8.5797,8.6184,8.6258,8.7134,8.75,8.75,8.75,8.75,8.75,8.75,8.75,8.75,8.75,8.75,8.7539,8.7656,8.7695,8.7695,8.7695,8.7695,8.7656,8.7539,8.75,8.75,8.75,8.75,8.7461,8.7265,8.7265,8.7221,8.7117,8.7036,8.6987,8.6871,8.6817,8.6764,8.661,8.661,8.661,8.661,0.0,8.661,8.661,8.661,8.661,8.661,8.661,8.661,8.661,8.661,8.661,8.661,8.661,8.661,8.661,8.661,8.661,8.661,8.661,8.661,8.661,8.661,8.661,8.661,8.661,8.6996,8.7693,8.7693,8.8118,8.8737,8.8002,8.7693,8.7654,8.688,8.661,8.661,8.661,8.661,8.661,8.4687,8.4687,8.4726,8.4883,8.4883,8.5156,8.5898,8.6015,8.625,8.6992,8.7221,8.7294,8.7304,8.7422,8.75,8.75,8.7265,8.7109,8.7109,8.7109,8.7109,8.7109,8.7109,8.7109,8.7109,8.6367,8.5625,8.4883,8.4883,8.4883,8.4922,8.5625,8.5898,8.582,8.6474,8.6714,8.6615,8.6886,8.7023,8.7022,8.7362,8.75,8.75,8.75,8.75,8.75,8.75,8.75,8.75,8.75,8.75,8.7617,8.8281,8.8515,8.8515,8.8515,8.8515,8.8359,8.7695,8.75,8.75,8.75,8.75,8.75,8.7461,8.7461,8.7461,8.7418,8.7299,8.7118,8.7,8.686,8.6764,8.661,8.661,8.661,8.661,0.0,8.661,8.661,8.661,8.661,8.661,8.661,8.661,8.661,8.661,8.661,8.661,8.661,8.661,8.661,8.661,8.661,8.661,8.661,8.661,8.661,8.661,8.661,8.661,8.661,8.6687,8.6803,8.6803,8.688,8.6996,8.688,8.6803,8.6803,8.6648,8.661,8.661,8.661,8.661,8.661,8.5508,8.5586,8.5742,8.6211,8.6289,8.6445,8.6836,8.6914,8.7031,8.7461,8.75,8.75,8.75,8.75,8.75,8.75,8.75,8.75,8.75,8.75,8.75,8.75,8.75,8.75,8.75,8.7109,8.6719,8.6289,8.6289,8.6289,8.6328,8.6719,8.6875,8.6836,8.7187,8.7336,8.7258,8.7331,8.7364,8.7376,8.7447,8.75,8.75,8.75,8.75,8.7578,8.8008,8.8164,8.8203,8.8672,8.8867,8.8906,8.9297,8.9414,8.9414,8.9414,8.875,8.7969,8.7617,8.75,8.75,8.75,8.75,8.75,8.75,8.75,8.75,8.75,8.7422,8.7294,8.7025,8.6941,8.6842,8.6648,8.661,0.0,8.661,8.661,8.661,8.661,8.661,8.661,8.661,8.661,8.661,8.661,8.661,8.661,8.661,8.661,8.661,8.661,8.661,8.661,8.661,8.661,8.661,8.661,8.661,8.661,8.661,8.661,8.661,8.661,8.661,8.661,8.661,8.661,8.661,8.661,8.661,8.661,8.661,8.661,8.661,8.661,8.6367,8.6484,8.6719,8.7383,8.75,8.75,8.75,8.75,8.75,8.75,8.7656,8.7773,8.7773,8.7969,8.8086,8.8086,8.8086,8.8086,8.8086,8.8086,8.789,8.7539,8.75,8.75,8.75,8.75,8.75,8.75,8.75,8.75,8.75,8.75,8.75,8.75,8.75,8.75,8.75,8.75,8.75,8.75,8.75,8.7617,8.7773,8.7773,8.789,8.8164,8.8789,8.8984,8.9101,8.9765,9.0,9.0039,9.0234,9.0312,9.0312,9.0312,8.9258,8.8086,8.8086,8.8086,8.8086,8.8086,8.7929,8.7773,8.7773,8.7617,8.75,8.75,8.75,8.7416,8.7087,8.7021,8.6919,8.6687,0.0,8.661,8.661,8.661,8.661,8.661,8.661,8.661,8.661,8.661,8.661,8.661,8.661,8.661,8.661,8.661,8.661,8.661,8.661,8.661,8.661,8.661,8.661,8.661,8.661,8.661,8.661,8.661,8.661,8.661,8.661,8.661,8.661,8.661,8.661,8.661,8.661,8.661,8.661,8.661,8.661,8.661,8.7383,8.7383,8.7422,8.75,8.75,8.75,8.75,8.75,8.75,8.75,8.8164,8.8594,8.8594,8.9336,8.9804,8.9804,8.9804,8.9804,8.9804,8.9804,8.9101,8.7578,8.75,8.75,8.75,8.75,8.75,8.75,8.75,8.75,8.75,8.75,8.75,8.75,8.75,8.75,8.75,8.75,8.75,8.75,8.75,8.7969,8.8594,8.8594,8.9101,8.9804,8.9883,8.9883,8.9922,8.9961,9.0,9.0156,9.0937,9.1211,9.1211,9.1211,9.0547,8.9804,8.9804,8.9804,8.9804,8.9804,8.9219,8.8594,8.8594,8.8047,8.75,8.75,8.75,8.7422,8.7226,8.7074,8.6958,8.6803,0.0,0.0,8.661,8.661,8.661,8.661,8.661,8.661,8.661,8.661,8.661,8.661,8.661,8.661,8.661,8.661,8.661,8.661,8.661,8.661,8.661,8.661,8.661,8.661,8.661,8.661,8.661,8.661,8.661,8.661,8.661,8.661,8.661,8.661,8.661,8.661,8.661,8.661,8.661,8.661,8.661,8.661,8.75,8.75,8.75,8.75,8.789,8.8242,8.8242,8.8711,8.9062,8.9062,8.9336,8.9492,8.9492,8.9804,9.0,9.0,9.0,9.0,9.0,9.0,8.9726,8.9062,8.9062,8.9062,8.9062,8.8515,8.8242,8.8242,8.7734,8.75,8.75,8.75,8.75,8.75,8.75,8.75,8.7539,8.8047,8.8242,8.8281,8.8828,8.9219,8.9492,8.9492,8.9726,9.0078,9.0625,9.082,9.0898,9.1445,9.1601,9.1679,9.1992,9.2109,9.2109,9.2109,9.1875,9.1601,9.1601,9.082,9.0,9.0,8.9765,8.9492,8.9492,8.8867,8.8242,8.8242,8.7851,8.7422,8.7226,8.7152,8.7039,8.6829,0.0,8.6687,8.661,8.661,8.661,8.661,8.661,8.661,8.661,8.661,8.661,8.661,8.661,8.661,8.661,8.661,8.661,8.661,8.661,8.661,8.661,8.661,8.661,8.661,8.661,8.661,8.661,8.661,8.661,8.661,8.661,8.661,8.661,8.661,8.661,8.661,8.661,8.661,8.661,8.661,8.661,8.661,8.8281,8.8281,8.8281,8.8281,8.875,8.9101,8.9101,8.9609,9.0,9.0,9.0234,9.039,9.039,9.0664,9.082,9.082,9.082,9.082,9.082,9.082,9.0586,9.0039,9.0,9.0,9.0,8.9414,8.9101,8.9101,8.8554,8.8281,8.8281,8.8281,8.8281,8.8281,8.8281,8.8281,8.832,8.8867,8.9101,8.914,8.9765,9.0156,9.039,9.039,9.0586,9.0898,9.1484,9.1719,9.1797,9.2383,9.2617,9.2617,9.2617,9.2617,9.2617,9.2617,9.2617,9.2617,9.2617,9.1719,9.082,9.082,9.0625,9.039,9.039,8.9726,8.9101,8.9101,8.8437,8.7812,8.7695,8.7422,8.7127,8.695,8.6871,8.6764,8.6687,8.6648,8.661,8.661,8.661,8.661,8.661,8.661,8.661,8.661,8.661,8.661,8.661,8.661,8.661,8.661,8.661,8.661,8.661,8.661,8.661,8.661,8.661,8.661,8.661,8.661,8.661,8.661,8.661,8.661,8.661,8.661,8.661,8.661,8.661,8.661,8.661,8.661,8.661,8.661,9.0,9.0,9.0,9.0,9.0,9.0,9.0,9.0039,9.0039,9.0039,9.0781,9.1328,9.1328,9.207,9.2617,9.2617,9.2617,9.2617,9.2617,9.2617,9.1836,9.0117,9.0039,9.0039,9.0039,9.0,9.0,9.0,9.0,9.0,9.0,9.0,9.0,9.0,9.0,9.0,9.0,9.0,9.0,9.0,9.0039,9.0547,9.1328,9.1328,9.1836,9.2617,9.2617,9.2617,9.2617,9.2617,9.2617,9.2617,9.2617,9.2617,9.2617,9.2617,9.2617,9.2617,9.2617,9.2617,9.2617,9.2617,9.1953,9.1328,9.1328,9.0625,9.0,9.0,8.9336,8.8711,8.8711,8.789,8.7226,8.7187,8.6996,8.6803,8.6803,8.6687,8.661,8.661,8.661,8.661,8.661,8.661,8.661,8.661,8.661,8.661,8.661,8.661,8.661,8.661,8.661,8.661,8.661,8.661,8.661,8.661,8.661,8.661,8.661,8.661,8.661,8.661,8.661,8.661,8.661,8.661,8.661,8.661,8.661,8.661,8.661,8.661,8.661,8.661,9.0,9.0,9.0,9.0,9.0508,9.0898,9.0898,9.1445,9.1836,9.1836,9.2031,9.2226,9.2226,9.2422,9.2617,9.2617,9.2617,9.2617,9.2617,9.2617,9.2383,9.1836,9.1836,9.1836,9.1836,9.1211,9.0898,9.0898,9.0312,9.0,9.0,9.0,9.0,9.0,9.0,9.0,9.0039,9.0664,9.0898,9.0976,9.1562,9.1992,9.2226,9.2226,9.2383,9.2617,9.2617,9.2617,9.2617,9.2617,9.2617,9.2617,9.2617,9.2617,9.2617,9.2617,9.2617,9.2617,9.2617,9.2617,9.2617,9.2617,9.2383,9.2226,9.2226,9.1523,9.0898,9.0898,9.0234,8.9414,8.8828,8.8437,8.8008,8.7304,8.7039,8.6924,8.6817,8.6687,8.661,8.661,8.661,8.661,8.661,8.661,8.661,8.661,8.661,8.661,8.661,8.661,8.661,8.661,8.661,8.661,8.661,8.661,8.661,8.661,8.661,8.661,8.661,8.661,8.661,8.661,8.661,8.661,8.661,8.661,8.661,8.661,8.661,8.661,8.661,8.661,8.661,8.661,9.1015,9.1015,9.1015,9.1015,9.1445,9.1797,9.1797,9.2265,9.2617,9.2617,9.2617,9.2617,9.2617,9.2617,9.2617,9.2617,9.2617,9.2617,9.2617,9.2617,9.2617,9.2617,9.2617,9.2617,9.2617,9.207,9.1797,9.1797,9.1289,9.1015,9.1015,9.1015,9.1015,9.1015,9.1015,9.1015,9.1054,9.1601,9.1797,9.1875,9.2383,9.2617,9.2617,9.2617,9.2617,9.2617,9.2617,9.2617,9.2617,9.2617,9.2617,9.2617,9.2617,9.2617,9.2617,9.2617,9.2617,9.2617,9.2617,9.2617,9.2617,9.2617,9.2617,9.2617,9.2617,9.2187,9.1797,9.1797,9.1133,9.0351,8.9844,8.914,8.8515,8.789,8.7397,8.704,8.6906,8.6764,8.6648,8.661,8.661,8.661,8.661,8.661,8.661,8.661,8.661,8.661,8.661,8.661,8.661,8.661,8.661,8.661,8.661,8.661,8.661,8.661,8.661,8.661,8.661,8.661,8.661,8.661,8.661,8.661,8.661,8.661,8.661,8.661,8.661,8.661,8.661,8.661,8.661,8.661,9.2617,9.2617,9.2617,9.2617,9.2617,9.2617,9.2617,9.2617,9.2617,9.2617,9.2617,9.2617,9.2617,9.2617,9.2617,9.2617,9.2617,9.2617,9.2617,9.2617,9.2617,9.2617,9.2617,9.2617,9.2617,9.2617,9.2617,9.2617,9.2617,9.2617,9.2617,9.2617,9.2617,9.2617,9.2617,9.2617,9.2617,9.2617,9.2617,9.2617,9.2617,9.2617,9.2617,9.2617,9.2617,9.2617,9.2617,9.2617,9.2617,9.2617,9.2617,9.2617,9.2617,9.2617,9.2617,9.2617,9.2617,9.2617,9.2617,9.2617,9.2617,9.2617,9.2617,9.2617,9.2617,9.2617,9.2617,9.2617,9.1953,9.1406,9.1328,8.9922,8.8789,8.8711,8.7851,8.7147,8.7026,8.6868,8.6764,8.661,8.661,8.661,8.661,8.661,8.661,8.661,8.661,8.661,8.661,8.661,8.661,8.661,8.661,8.661,8.661,8.661,8.661,8.661,8.661,8.661,8.661,8.661,8.661,8.661,8.661,8.661,8.661,8.661,8.661,8.661,8.661,8.661,8.661,8.661,8.661,8.661,9.2617,9.2617,9.2617,9.2617,9.2617,9.2617,9.2617,9.2617,9.2617,9.2617,9.2617,9.2617,9.2617,9.2617,9.2617,9.2617,9.2617,9.2617,9.2617,9.2617,9.2617,9.2617,9.2617,9.2617,9.2617,9.2617,9.2617,9.2617,9.2617,9.2617,9.2617,9.2617,9.2617,9.2617,9.2617,9.2617,9.2617,9.2617,9.2617,9.2617,9.2617,9.2617,9.2617,9.2617,9.2617,9.2617,9.2617,9.2617,9.2617,9.2617,9.2617,9.2617,9.2617,9.2617,9.2617,9.2617,9.2617,9.2617,9.2617,9.2617,9.2617,9.2617,9.2617,9.2617,9.2617,9.2617,9.2617,9.2617,9.2461,9.2109,9.1445,9.0429,8.9492,8.8828,8.7851,8.7131,8.7011,8.6877,8.6764,8.661,8.661,8.661,8.661,8.661,8.661,8.661,8.661,8.661,8.661,8.661,8.661,8.661,8.661,8.661,8.661,8.661,8.661,8.661,8.661,8.661,8.661,8.661,8.661,8.661,8.661,8.661,8.661,8.661,8.661,8.661,8.661,8.661,8.661,8.661,8.661,8.661,9.2617,9.2617,9.2617,9.2617,9.2617,9.2617,9.2617,9.2617,9.2617,9.2617,9.2617,9.2617,9.2617,9.2617,9.2617,9.2617,9.2617,9.2617,9.2617,9.2617,9.2617,9.2617,9.2617,9.2617,9.2617,9.2617,9.2617,9.2617,9.2617,9.2617,9.2617,9.2617,9.2617,9.2617,9.2617,9.2617,9.2617,9.2617,9.2617,9.2617,9.2617,9.2617,9.2617,9.2617,9.2617,9.2617,9.2617,9.2617,9.2617,9.2617,9.2617,9.2617,9.2617,9.2617,9.2617,9.2617,9.2617,9.2617,9.2617,9.2617,9.2617,9.2617,9.2617,9.2617,9.2617,9.2617,9.2617,9.2617,9.2617,9.2461,9.1992,9.1211,9.0312,8.9453,8.8515,8.7731,8.718,8.698,8.6842,8.6726,8.6648,8.661,8.661,8.661,8.661,8.661,8.661,8.661,8.661,8.661,8.661,8.661,8.661,8.661,8.661,8.661,8.661,8.661,8.661,8.661,8.661,8.661,8.661,8.661,8.661,8.661,8.661,8.661,8.661,8.661,8.661,8.661,8.661,8.661,8.661,8.661,9.2617,9.2617,9.2617,9.2617,9.2617,9.2617,9.2617,9.2617,9.2617,9.2617,9.2617,9.2617,9.2617,9.2617,9.2617,9.2617,9.2617,9.2617,9.2617,9.2617,9.2617,9.2617,9.2617,9.2617,9.2617,9.2617,9.2617,9.2617,9.2617,9.2617,9.2617,9.2617,9.2617,9.2617,9.2617,9.2617,9.2617,9.2617,9.2617,9.2617,9.2617,9.2617,9.2617,9.2617,9.2617,9.2617,9.2617,9.2617,9.2617,9.2617,9.2617,9.2617,9.2617,9.2617,9.2617,9.2617,9.2617,9.2617,9.2617,9.2617,9.2617,9.2617,9.2617,9.2617,9.2617,9.2617,9.2617,9.2617,9.2617,9.2617,9.2617,9.1875,9.1015,9.0156,8.9258,8.8359,8.7338,8.7074,8.6945,8.6803,8.6687,8.661,8.661,8.661,8.661,8.661,8.661,8.661,8.661,8.661,8.661,8.661,8.661,8.661,8.661,8.661,8.661,8.661,8.661,8.661,8.661,8.661,8.661,8.661,8.661,8.661,8.661,8.661,8.661,8.661,8.661,8.661,8.661,8.661,8.661,8.661,9.2617,9.2617,9.2617,9.2617,9.2617,9.2617,9.2617,9.2617,9.2617,9.2617,9.2617,9.2617,9.2617,9.2617,9.2617,9.2617,9.2617,9.2617,9.2617,9.2617,9.2617,9.2617,9.2617,9.2617,9.2617,9.2617,9.2617,9.2617,9.2617,9.2617,9.2617,9.2617,9.2617,9.2617,9.2617,9.2617,9.2617,9.2617,9.2617,9.2617,9.2617,9.2617,9.2617,9.2617,9.2617,9.2617,9.2617,9.2617,9.2617,9.2617,9.2617,9.2617,9.2617,9.2617,9.2617,9.2617,9.2617,9.2617,9.2617,9.2617,9.2617,9.2617,9.2617,9.2617,9.2617,9.2617,9.2617,9.2617,9.2617,9.2617,9.2617,9.1875,9.1015,9.0156,8.9258,8.8352,8.7331,8.7078,8.6959,8.6817,8.6687,8.661,8.661,8.661,8.661,8.661,8.661,8.661,8.661,8.661,8.661,8.661,8.661,8.661,8.661,8.661,8.661,8.661,8.661,8.661,8.661,8.661,8.661,8.661,8.661,8.661,8.661,8.661,8.661,8.661,8.661,8.661,8.661,8.661,8.661,8.661,9.2617,9.2617,9.2617,9.2617,9.2617,9.2617,9.2617,9.2617,9.2617,9.2617,9.2617,9.2617,9.2617,9.2617,9.2617,9.2617,9.2617,9.2617,9.2617,9.2617,9.2617,9.2617,9.2617,9.2617,9.2617,9.2617,9.2617,9.2617,9.2617,9.2617,9.2617,9.2617,9.2617,9.2617,9.2617,9.2617,9.2617,9.2617,9.2617,9.2617,9.2617,9.2617,9.2617,9.2617,9.2617,9.2617,9.2617,9.2617,9.2617,9.2617,9.2617,9.2617,9.2617,9.2617,9.2617,9.2617,9.2617,9.2617,9.2617,9.2617,9.2617,9.2617,9.2617,9.2617,9.2617,9.2617,9.2617,9.2617,9.2617,9.2617,9.2617,9.2304,9.1758,9.0859,9.0,8.9099,8.8167,8.7479,8.7032,8.6829,8.6687,8.661,8.661,8.661,8.661,8.661,8.661,8.661,8.661,8.661,8.661,8.661,8.661,8.661,8.661,8.661,8.661,8.661,8.661,8.661,8.661,8.661,8.661,8.661,8.661,8.661,8.661,8.661,8.661,8.661,8.661,8.661,8.661,8.661,8.661,8.661]},{"header":{"parameterUnit":"m.s-1","parameterCategory":1,"la1":30.6,"la2":28.766,"lo1":-90.7593,"lo2":-88.6598,"dy":0.0162,"dx":0.0183,"nx":116,"ny":114,"refTime":"2023-10-09T18:00:00:Z","depth":0,"parameterNumber":3,"parameterNumberName":"V-component_of_WINDS"},"data":[0.0,0.0,0.0,0.0,0.0,0.0,0.0,0.0,0.0,0.0,0.0,0.0,0.0,0.0,0.0,0.0,0.0,0.0,0.0,0.0,0.0,0.0,0.0,0.0,0.0,0.0,0.0,0.0,0.0,0.0,0.0,0.0,0.0,0.0,0.0,0.0,0.0,0.0,0.0,0.0,0.0,0.0,0.0,0.0,0.0,0.0,0.0,0.0,0.0,0.0,0.0,0.0,0.0,0.0,0.0,0.0,0.0,0.0,0.0,0.0,0.0,0.0,0.0,0.0,0.0,0.0,0.0,0.0,0.0,0.0,0.0,0.0,0.0,0.0,0.0,0.0,0.0,0.0,0.0,0.0,0.0,0.0,0.0,0.0,0.0,0.0,0.0,0.0,0.0,0.0,0.0,0.0,0.0,0.0,0.0,0.0,0.0,0.0,0.0,0.0,0.0,0.0,0.0,0.0,0.0,0.0,0.0,0.0,0.0,0.0,0.0,0.0,0.0,0.0,0.0,0.0,0.0,0.0,0.0,0.0,0.0,0.0,0.0,0.0,0.0,0.0,0.0,0.0,0.0,0.0,0.0,0.0,0.0,0.0,0.0,0.0,0.0,0.0,0.0,0.0,0.0,0.0,0.0,0.0,0.0,0.0,0.0,0.0,0.0,0.0,0.0,0.0,0.0,0.0,0.0,0.0,0.0,0.0,0.0,0.0,0.0,0.0,0.0,0.0,0.0,0.0,0.0,0.0,0.0,0.0,0.0,0.0,0.0,0.0,0.0,0.0,0.0,0.0,0.0,0.0,0.0,0.0,0.0,0.0,0.0,0.0,0.0,0.0,0.0,0.0,0.0,0.0,0.0,0.0,0.0,0.0,0.0,0.0,0.0,0.0,0.0,0.0,0.0,0.0,0.0,0.0,0.0,0.0,0.0,0.0,0.0,0.0,0.0,0.0,0.0,0.0,0.0,0.0,0.0,0.0,0.0,0.0,0.0,0.0,0.0,0.0,0.0,0.0,0.0,0.0,0.0,0.0,0.0,0.0,0.0,0.0,0.0,0.0,0.0,0.0,0.0,0.0,0.0,0.0,0.0,0.0,0.0,0.0,0.0,0.0,0.0,0.0,0.0,0.0,0.0,0.0,0.0,0.0,0.0,0.0,0.0,0.0,0.0,0.0,0.0,0.0,0.0,0.0,0.0,0.0,0.0,0.0,0.0,0.0,0.0,0.0,0.0,0.0,0.0,0.0,0.0,0.0,0.0,0.0,0.0,0.0,0.0,0.0,0.0,0.0,0.0,0.0,0.0,0.0,0.0,0.0,0.0,0.0,0.0,0.0,0.0,0.0,0.0,0.0,0.0,0.0,0.0,0.0,0.0,0.0,0.0,0.0,0.0,0.0,0.0,0.0,0.0,0.0,0.0,0.0,0.0,0.0,0.0,0.0,0.0,0.0,0.0,0.0,0.0,0.0,0.0,0.0,0.0,0.0,0.0,0.0,0.0,0.0,0.0,0.0,0.0,0.0,0.0,0.0,0.0,0.0,0.0,0.0,0.0,0.0,0.0,0.0,0.0,0.0,0.0,0.0,0.0,0.0,0.0,0.0,0.0,0.0,0.0,0.0,0.0,0.0,0.0,0.0,0.0,0.0,0.0,0.0,0.0,0.0,0.0,0.0,0.0,0.0,0.0,0.0,0.0,0.0,0.0,0.0,0.0,0.0,0.0,0.0,0.0,0.0,0.0,0.0,0.0,0.0,0.0,0.0,0.0,0.0,0.0,0.0,0.0,0.0,0.0,0.0,0.0,0.0,0.0,0.0,0.0,0.0,0.0,0.0,0.0,0.0,0.0,0.0,0.0,0.0,0.0,0.0,0.0,0.0,0.0,0.0,0.0,0.0,0.0,0.0,0.0,0.0,0.0,0.0,0.0,0.0,0.0,0.0,0.0,0.0,0.0,0.0,0.0,0.0,0.0,0.0,0.0,0.0,0.0,0.0,0.0,0.0,0.0,0.0,0.0,0.0,0.0,0.0,0.0,0.0,0.0,0.0,0.0,0.0,0.0,0.0,0.0,0.0,0.0,0.0,0.0,0.0,0.0,0.0,0.0,0.0,0.0,0.0,0.0,0.0,0.0,0.0,0.0,0.0,0.0,0.0,0.0,0.0,0.0,0.0,0.0,0.0,0.0,0.0,0.0,0.0,0.0,0.0,0.0,0.0,0.0,0.0,0.0,0.0,0.0,0.0,0.0,0.0,0.0,0.0,0.0,0.0,0.0,0.0,0.0,0.0,0.0,0.0,0.0,0.0,0.0,0.0,0.0,0.0,0.0,0.0,0.0,0.0,0.0,0.0,0.0,0.0,0.0,0.0,0.0,0.0,0.0,0.0,0.0,0.0,0.0,0.0,0.0,0.0,0.0,0.0,0.0,0.0,0.0,0.0,0.0,0.0,0.0,0.0,0.0,0.0,0.0,0.0,0.0,0.0,0.0,0.0,0.0,0.0,0.0,0.0,0.0,0.0,0.0,0.0,0.0,0.0,0.0,0.0,0.0,0.0,0.0,0.0,0.0,0.0,0.0,0.0,0.0,0.0,0.0,0.0,0.0,0.0,0.0,0.0,0.0,0.0,0.0,0.0,0.0,0.0,0.0,0.0,0.0,0.0,0.0,0.0,0.0,0.0,0.0,0.0,0.0,0.0,0.0,0.0,0.0,0.0,0.0,0.0,0.0,0.0,0.0,0.0,0.0,0.0,0.0,0.0,0.0,0.0,0.0,0.0,0.0,0.0,0.0,0.0,0.0,0.0,0.0,0.0,0.0,0.0,0.0,0.0,0.0,0.0,0.0,0.0,0.0,0.0,0.0,0.0,0.0,0.0,0.0,0.0,0.0,0.0,0.0,0.0,0.0,0.0,0.0,0.0,0.0,0.0,0.0,0.0,0.0,0.0,0.0,0.0,0.0,0.0,0.0,0.0,0.0,0.0,0.0,0.0,0.0,0.0,0.0,0.0,0.0,0.0,0.0,0.0,0.0,0.0,0.0,0.0,0.0,0.0,0.0,0.0,0.0,0.0,0.0,0.0,0.0,0.0,0.0,0.0,0.0,0.0,0.0,0.0,0.0,0.0,0.0,0.0,0.0,0.0,0.0,0.0,0.0,0.0,0.0,0.0,0.0,0.0,0.0,0.0,0.0,0.0,0.0,0.0,0.0,0.0,0.0,0.0,0.0,0.0,0.0,0.0,0.0,0.0,0.0,0.0,0.0,0.0,0.0,0.0,0.0,0.0,0.0,0.0,0.0,0.0,0.0,0.0,0.0,0.0,0.0,0.0,0.0,0.0,0.0,0.0,0.0,0.0,0.0,0.0,0.0,0.0,0.0,0.0,0.0,0.0,0.0,0.0,0.0,0.0,0.0,0.0,0.0,0.0,0.0,0.0,0.0,0.0,0.0,0.0,0.0,0.0,0.0,0.0,0.0,0.0,0.0,0.0,0.0,0.0,0.0,0.0,0.0,0.0,0.0,0.0,0.0,0.0,0.0,0.0,0.0,0.0,0.0,0.0,0.0,0.0,0.0,0.0,0.0,0.0,0.0,0.0,0.0,0.0,0.0,0.0,0.0,0.0,0.0,0.0,0.0,0.0,0.0,0.0,0.0,0.0,0.0,0.0,0.0,0.0,0.0,0.0,0.0,0.0,0.0,0.0,0.0,0.0,0.0,0.0,0.0,0.0,0.0,0.0,0.0,0.0,0.0,0.0,0.0,0.0,0.0,0.0,0.0,0.0,0.0,0.0,0.0,0.0,0.0,0.0,0.0,0.0,0.0,0.0,0.0,0.0,0.0,0.0,0.0,0.0,0.0,0.0,0.0,0.0,0.0,0.0,0.0,0.0,0.0,0.0,0.0,0.0,0.0,0.0,0.0,0.0,0.0,0.0,0.0,0.0,0.0,0.0,0.0,0.0,0.0,0.0,0.0,0.0,0.0,0.0,0.0,0.0,0.0,0.0,0.0,0.0,0.0,0.0,0.0,0.0,0.0,0.0,0.0,0.0,0.0,0.0,0.0,0.0,0.0,0.0,0.0,0.0,0.0,0.0,0.0,0.0,0.0,0.0,0.0,0.0,0.0,0.0,0.0,0.0,0.0,0.0,0.0,0.0,0.0,0.0,0.0,0.0,0.0,0.0,0.0,0.0,0.0,0.0,0.0,0.0,0.0,0.0,0.0,0.0,0.0,0.0,0.0,0.0,0.0,0.0,0.0,0.0,0.0,0.0,0.0,0.0,0.0,0.0,0.0,0.0,0.0,0.0,0.0,0.0,0.0,0.0,0.0,0.0,0.0,0.0,0.0,0.0,0.0,0.0,0.0,0.0,0.0,0.0,0.0,0.0,0.0,0.0,0.0,0.0,0.0,0.0,0.0,0.0,0.0,0.0,0.0,0.0,0.0,0.0,0.0,0.0,0.0,0.0,0.0,0.0,0.0,0.0,0.0,0.0,0.0,0.0,0.0,0.0,0.0,0.0,0.0,0.0,0.0,0.0,0.0,0.0,0.0,0.0,0.0,0.0,0.0,0.0,0.0,0.0,0.0,0.0,0.0,0.0,0.0,0.0,0.0,0.0,0.0,0.0,0.0,0.0,0.0,0.0,0.0,0.0,0.0,0.0,0.0,0.0,0.0,0.0,0.0,0.0,0.0,0.0,0.0,0.0,0.0,0.0,0.0,0.0,0.0,0.0,0.0,0.0,0.0,0.0,0.0,0.0,0.0,0.0,0.0,0.0,0.0,0.0,0.0,0.0,0.0,0.0,0.0,0.0,0.0,0.0,0.0,0.0,0.0,0.0,0.0,0.0,0.0,0.0,0.0,0.0,0.0,0.0,0.0,0.0,0.0,0.0,0.0,0.0,0.0,0.0,0.0,0.0,0.0,0.0,0.0,0.0,0.0,0.0,0.0,0.0,0.0,0.0,0.0,0.0,0.0,0.0,0.0,0.0,0.0,0.0,0.0,0.0,0.0,0.0,0.0,0.0,0.0,0.0,0.0,0.0,0.0,0.0,0.0,0.0,0.0,0.0,0.0,0.0,0.0,0.0,0.0,0.0,0.0,0.0,0.0,0.0,0.0,0.0,0.0,0.0,0.0,0.0,0.0,0.0,0.0,0.0,0.0,0.0,0.0,0.0,0.0,0.0,0.0,0.0,0.0,0.0,0.0,0.0,0.0,0.0,0.0,0.0,0.0,0.0,0.0,0.0,0.0,0.0,0.0,0.0,0.0,0.0,0.0,0.0,0.0,0.0,0.0,0.0,0.0,0.0,0.0,0.0,0.0,0.0,0.0,0.0,0.0,0.0,0.0,0.0,0.0,0.0,0.0,0.0,0.0,0.0,0.0,0.0,0.0,0.0,0.0,0.0,0.0,0.0,0.0,0.0,0.0,0.0,0.0,0.0,0.0,0.0,0.0,0.0,0.0,0.0,0.0,0.0,0.0,0.0,0.0,0.0,0.0,0.0,0.0,0.0,0.0,0.0,0.0,0.0,0.0,0.0,0.0,0.0,0.0,0.0,0.0,0.0,0.0,0.0,0.0,0.0,0.0,0.0,0.0,0.0,0.0,0.0,0.0,0.0,0.0,0.0,0.0,0.0,0.0,0.0,0.0,0.0,0.0,0.0,0.0,0.0,0.0,0.0,0.0,0.0,0.0,0.0,0.0,0.0,0.0,0.0,0.0,0.0,0.0,0.0,0.0,0.0,0.0,0.0,0.0,0.0,0.0,0.0,0.0,0.0,0.0,0.0,0.0,0.0,0.0,0.0,0.0,0.0,0.0,0.0,0.0,0.0,0.0,0.0,0.0,0.0,0.0,0.0,0.0,0.0,0.0,0.0,0.0,0.0,0.0,0.0,0.0,0.0,0.0,0.0,0.0,0.0,0.0,0.0,0.0,0.0,0.0,0.0,0.0,0.0,0.0,0.0,0.0,0.0,0.0,0.0,0.0,0.0,0.0,0.0,0.0,0.0,0.0,0.0,0.0,0.0,0.0,0.0,0.0,0.0,0.0,0.0,0.0,0.0,0.0,0.0,0.0,0.0,0.0,0.0,0.0,0.0,0.0,0.0,0.0,0.0,0.0,0.0,0.0,0.0,-1.4331,0.0,0.0,0.0,0.0,0.0,0.0,0.0,0.0,0.0,0.0,0.0,0.0,0.0,0.0,0.0,0.0,0.0,0.0,0.0,0.0,0.0,0.0,0.0,0.0,0.0,0.0,0.0,0.0,0.0,0.0,0.0,0.0,0.0,0.0,0.0,0.0,0.0,0.0,0.0,0.0,0.0,0.0,0.0,0.0,0.0,0.0,0.0,0.0,0.0,0.0,0.0,0.0,0.0,0.0,0.0,0.0,0.0,0.0,0.0,0.0,0.0,0.0,0.0,0.0,0.0,0.0,0.0,0.0,0.0,0.0,0.0,0.0,0.0,0.0,0.0,0.0,0.0,0.0,0.0,0.0,0.0,0.0,0.0,0.0,0.0,0.0,0.0,0.0,0.0,0.0,0.0,0.0,0.0,0.0,0.0,0.0,0.0,0.0,0.0,0.0,0.0,0.0,0.0,0.0,0.0,0.0,0.0,0.0,0.0,0.0,0.0,0.0,0.0,0.0,0.0,0.0,-1.233,0.0,0.0,0.0,0.0,0.0,0.0,0.0,0.0,0.0,0.0,0.0,0.0,0.0,0.0,0.0,0.0,0.0,0.0,0.0,0.0,0.0,0.0,0.0,0.0,0.0,0.0,0.0,0.0,0.0,0.0,0.0,0.0,0.0,0.0,0.0,0.0,0.0,0.0,0.0,0.0,0.0,0.0,0.0,0.0,0.0,0.0,0.0,0.0,0.0,0.0,0.0,0.0,0.0,0.0,0.0,0.0,0.0,0.0,0.0,0.0,0.0,0.0,0.0,0.0,0.0,0.0,0.0,0.0,0.0,0.0,0.0,0.0,0.0,0.0,0.0,0.0,0.0,0.0,0.0,0.0,0.0,0.0,0.0,0.0,0.0,0.0,0.0,0.0,0.0,0.0,0.0,0.0,0.0,0.0,0.0,0.0,0.0,0.0,0.0,0.0,0.0,0.0,0.0,0.0,0.0,0.0,0.0,0.0,-1.2251,-1.1755,-1.187,-1.187,-1.1938,-1.2047,-1.1803,-1.1694,-1.1694,-1.1694,0.0,0.0,0.0,0.0,0.0,0.0,0.0,0.0,0.0,0.0,0.0,0.0,0.0,0.0,0.0,0.0,0.0,0.0,0.0,0.0,0.0,0.0,-1.7479,-1.7479,-1.7479,-1.7479,0.0,0.0,0.0,0.0,0.0,0.0,0.0,0.0,0.0,0.0,0.0,0.0,-1.9072,-1.7893,-1.7227,-1.7323,-1.85,0.0,0.0,0.0,0.0,0.0,0.0,0.0,0.0,0.0,0.0,0.0,0.0,0.0,0.0,0.0,0.0,0.0,0.0,0.0,0.0,0.0,0.0,0.0,0.0,0.0,0.0,0.0,0.0,0.0,0.0,0.0,0.0,0.0,0.0,0.0,0.0,0.0,0.0,0.0,0.0,0.0,0.0,0.0,-1.9072,-1.9072,0.0,0.0,0.0,0.0,0.0,0.0,0.0,0.0,0.0,0.0,0.0,0.0,0.0,-1.2151,-1.2151,-1.2163,-1.2088,-1.2095,-1.2086,-1.2013,-1.2033,-1.2033,-1.204,-1.206,-1.202,0.0,-1.2006,-1.2006,0.0,0.0,0.0,0.0,0.0,0.0,0.0,0.0,0.0,0.0,0.0,0.0,0.0,0.0,0.0,0.0,0.0,0.0,0.0,0.0,0.0,-1.7479,-1.7479,-1.7479,-1.7612,-1.7696,-1.7696,0.0,0.0,0.0,0.0,0.0,0.0,0.0,0.0,0.0,-1.9072,-1.8688,-1.7893,-1.7238,-1.6592,-1.5814,-1.6462,-1.6343,-1.5814,-1.5814,0.0,0.0,0.0,0.0,0.0,0.0,0.0,0.0,0.0,0.0,0.0,0.0,0.0,0.0,0.0,0.0,0.0,0.0,0.0,0.0,0.0,0.0,0.0,0.0,0.0,0.0,0.0,0.0,0.0,0.0,0.0,0.0,0.0,0.0,0.0,0.0,0.0,0.0,0.0,-1.8419,-1.8162,-1.9072,-1.8547,-1.7848,0.0,0.0,0.0,0.0,0.0,0.0,0.0,0.0,0.0,-1.2364,-1.1949,-1.1735,-1.1735,-1.1884,-1.1959,-1.1965,-1.2033,-1.2108,-1.2189,-1.2189,-1.2237,-1.2311,-1.2311,-1.2311,-1.2298,-1.2128,-1.2115,-1.2189,0.0,0.0,0.0,0.0,-1.2311,-1.2311,0.0,0.0,0.0,0.0,0.0,0.0,0.0,0.0,0.0,0.0,0.0,0.0,-1.7479,-1.7479,-1.7503,-1.7575,-1.7756,-1.7901,-1.7974,0.0,0.0,0.0,0.0,0.0,0.0,0.0,0.0,0.0,-1.8547,-1.7893,-1.6462,-1.6063,-1.5424,-1.439,-1.3997,-1.3997,-1.439,-1.439,-1.4128,0.0,0.0,0.0,0.0,0.0,0.0,0.0,0.0,0.0,0.0,0.0,0.0,0.0,0.0,0.0,0.0,0.0,0.0,0.0,0.0,0.0,0.0,0.0,0.0,0.0,0.0,0.0,0.0,0.0,0.0,0.0,0.0,0.0,0.0,0.0,0.0,0.0,0.0,-1.8079,-1.7725,-1.7995,-1.7686,-1.7166,0.0,0.0,0.0,0.0,0.0,0.0,-1.1592,-1.1592,-1.1674,-1.1674,-1.1816,-1.1891,-1.1891,-1.2047,-1.2121,-1.2121,-1.2155,-1.2237,-1.2345,-1.2386,-1.2461,-1.2562,-1.2603,-1.2623,-1.2596,-1.2298,-1.2244,-1.2345,-1.2386,-1.2467,-1.2562,-1.2603,-1.2623,-1.2623,0.0,0.0,0.0,0.0,0.0,0.0,0.0,0.0,0.0,0.0,0.0,-1.7479,-1.7479,-1.7479,-1.7587,-1.7829,-1.7865,-1.7986,-1.8251,-1.8517,-1.8674,0.0,0.0,0.0,0.0,0.0,0.0,-1.7109,-1.7109,-1.6333,-1.5043,-1.3604,-1.2947,-1.2816,-1.1505,-1.1637,-1.2947,-1.2947,-1.2165,-1.085,0.0,0.0,0.0,0.0,0.0,0.0,0.0,0.0,0.0,0.0,0.0,0.0,0.0,0.0,0.0,0.0,0.0,0.0,0.0,0.0,0.0,0.0,0.0,0.0,0.0,0.0,0.0,0.0,0.0,0.0,0.0,0.0,0.0,0.0,0.0,0.0,0.0,0.0,0.0,-1.5585,-1.6717,0.0,0.0,0.0,0.0,-1.1657,-1.2925,-1.3159,-1.1606,-1.1742,-1.1823,-1.1823,-1.1972,-1.2047,-1.2047,-1.2203,-1.2277,-1.2277,-1.2413,-1.2481,-1.2494,-1.2644,-1.2712,-1.2725,-1.2874,-1.2935,-1.2915,-1.2603,-1.2481,-1.2508,-1.2651,-1.2712,-1.2732,-1.2881,-1.2935,-1.2935,0.0,0.0,0.0,0.0,0.0,0.0,0.0,0.0,0.0,-1.7479,-1.7479,-1.7479,-1.7479,-1.7479,-1.7587,-1.7853,-1.8034,-1.8263,-1.8529,-1.8794,-1.8939,0.0,0.0,0.0,0.0,0.0,-1.7109,-1.5684,-1.5684,-1.4903,-1.3604,-1.3079,-1.2297,-1.1372,-1.0982,-1.0982,-1.1505,-1.1505,-1.1115,-1.0717,-1.0717,-1.0717,0.0,0.0,0.0,0.0,0.0,0.0,0.0,0.0,0.0,0.0,0.0,0.0,0.0,0.0,0.0,0.0,0.0,0.0,0.0,0.0,0.0,0.0,0.0,0.0,0.0,0.0,0.0,0.0,0.0,0.0,0.0,0.0,0.0,0.0,0.0,0.0,0.0,-1.6614,-1.5719,0.0,-1.3522,-1.4097,-1.3641,-1.1681,-1.21,-1.2329,-1.1755,-1.1898,-1.1979,-1.1979,-1.2128,-1.221,-1.221,-1.2352,-1.2474,-1.2576,-1.2623,-1.2541,-1.2324,-1.2377,-1.2396,-1.2403,-1.2455,-1.2802,-1.2949,-1.284,-1.28,-1.28,-1.2861,-1.2881,-1.2888,-1.2942,-1.2963,-1.2963,0.0,0.0,0.0,0.0,0.0,0.0,0.0,0.0,0.0,-1.7479,-1.7479,-1.7479,-1.7479,-1.7563,-1.772,-1.7998,-1.8263,-1.8404,-1.8151,-1.8326,-1.8419,0.0,0.0,0.0,0.0,-1.6333,-1.5554,-1.4128,-1.4128,-1.3473,-1.2033,-1.2033,-1.1637,-1.0717,-1.0717,-1.0717,-1.0717,-1.0717,-1.0717,-1.0717,-1.0717,-1.0717,-1.0717,0.0,0.0,0.0,0.0,0.0,0.0,0.0,0.0,0.0,0.0,0.0,0.0,0.0,0.0,0.0,0.0,0.0,0.0,0.0,0.0,0.0,0.0,0.0,0.0,0.0,0.0,0.0,0.0,0.0,0.0,0.0,0.0,0.0,0.0,0.0,-1.4388,-1.5347,-1.4423,-1.356,-1.2871,-1.3016,-1.2827,-1.1687,-1.1823,-1.1911,-1.1911,-1.2054,-1.2142,-1.1992,-1.2132,-1.2079,-1.1978,-1.2063,-1.2181,-1.2331,-1.2331,-1.2224,-1.1993,-1.2037,-1.2062,-1.2062,-1.2274,-1.2618,-1.295,-1.295,-1.2943,-1.3105,-1.3051,-1.303,-1.3037,-1.3091,-1.3112,-1.3112,0.0,0.0,0.0,0.0,0.0,0.0,0.0,0.0,-1.7479,-1.7479,-1.7479,-1.7491,-1.7491,-1.772,-1.7986,-1.8275,-1.8541,-1.8277,-1.7098,-1.698,-1.698,0.0,0.0,0.0,-1.4912,-1.4782,-1.4128,-1.2684,-1.2684,-1.2033,-1.0717,-1.0717,-1.0717,-1.0717,-1.0717,-1.0717,-1.0717,-1.0717,-1.0717,-1.0717,-1.0717,-1.0717,-1.0717,0.0,0.0,0.0,0.0,0.0,0.0,0.0,0.0,0.0,0.0,0.0,0.0,0.0,0.0,0.0,0.0,0.0,0.0,0.0,0.0,0.0,0.0,0.0,0.0,0.0,0.0,0.0,0.0,0.0,0.0,0.0,0.0,0.0,-1.5409,-1.5569,-1.4588,-1.1818,-1.2932,-1.3174,-1.177,-1.1748,-1.183,-1.1837,-1.1979,-1.2067,-1.2067,-1.2216,-1.2146,-1.1695,-1.1824,-1.1804,-1.147,-1.147,-1.1543,-1.1678,-1.1678,-1.1678,-1.1529,-1.1649,-1.1867,-1.1873,-1.2344,-1.2733,-1.2733,-1.2733,-1.2899,-1.3383,-1.3234,-1.318,-1.32,-1.3349,-1.3403,-1.3403,0.0,0.0,0.0,0.0,0.0,0.0,0.0,-1.7479,-1.7479,-1.7479,-1.7479,-1.7551,-1.7744,-1.7829,-1.807,-1.8541,-1.8638,-1.8668,-1.8536,-1.7636,0.0,0.0,0.0,0.0,-1.3473,-1.3341,-1.2684,-1.1247,-1.1247,-1.1115,-1.0717,-1.0717,-1.0717,-1.0717,-1.0717,-1.0717,-1.0717,-1.0717,-1.0717,-1.0717,-1.0717,-1.0717,-1.0717,0.0,0.0,0.0,0.0,0.0,0.0,0.0,0.0,0.0,0.0,0.0,0.0,0.0,0.0,0.0,0.0,0.0,0.0,0.0,0.0,0.0,0.0,0.0,0.0,0.0,0.0,0.0,0.0,0.0,0.0,0.0,0.0,-1.4305,-1.425,-1.3412,-1.2821,-1.3105,-1.258,-1.2086,-1.1762,-1.1809,-1.1877,-1.1993,-1.2142,-1.2079,-1.1776,-1.1906,-1.1876,-1.151,-1.1547,-1.1476,-1.161,-1.1616,-1.1684,-1.1812,-1.1812,-1.1697,-1.1464,-1.1499,-1.1517,-1.1517,-1.1718,-1.1902,-1.2235,-1.2235,-1.2401,-1.2401,-1.2688,-1.3005,-1.3342,-1.3383,-1.3403,-1.3403,0.0,0.0,0.0,0.0,0.0,0.0,0.0,-1.7479,-1.7479,-1.7479,-1.7575,-1.7708,-1.7853,-1.8082,-1.8336,-1.8662,-1.8782,-1.8395,-1.7367,-1.6073,0.0,0.0,0.0,-1.3341,-1.1901,-1.1901,-1.1505,-1.0717,-1.0717,-1.0717,-1.0717,-1.0717,-1.0717,-1.0717,-1.0717,-1.0717,-1.0717,-1.0717,-1.0717,-1.0717,-1.0717,-1.0717,-1.0717,-1.0717,-1.0717,-1.0717,-1.0717,-1.0717,-1.0717,-1.0717,0.0,0.0,0.0,0.0,0.0,0.0,0.0,0.0,0.0,0.0,0.0,0.0,0.0,0.0,0.0,0.0,0.0,0.0,0.0,0.0,0.0,0.0,0.0,0.0,-1.3815,-1.3729,-1.2986,-1.2166,-1.1928,-1.2842,-1.228,-1.1769,-1.1911,-1.1986,-1.206,-1.1998,-1.1993,-1.1946,-1.1541,-1.1616,-1.1566,-1.1231,-1.1237,-1.1296,-1.1103,-1.1103,-1.1167,-1.1288,-1.1288,-1.1328,-1.107,-1.107,-1.107,-1.107,-1.1237,-1.157,-1.1736,-1.1736,-1.1902,0.0,0.0,0.0,0.0,0.0,-1.3403,-1.3403,0.0,0.0,0.0,0.0,0.0,0.0,0.0,-1.7479,-1.7479,-1.7479,-1.7708,-1.7889,-1.7913,-1.8372,-1.8698,-1.847,-1.8685,-1.7636,-1.4912,0.0,0.0,-1.0717,-1.1901,-1.2033,-1.0717,-1.0717,-1.0717,-1.0717,-1.0717,-1.0717,-1.0717,-1.0717,-1.0717,-1.0717,-1.0717,-1.0717,-1.0717,-1.0717,-1.0717,-1.0717,-1.0717,-1.0717,-1.0717,-1.0717,-1.0717,-1.0717,-1.0717,-1.0717,-1.0717,-1.0717,0.0,0.0,0.0,0.0,0.0,0.0,0.0,0.0,0.0,0.0,0.0,0.0,0.0,0.0,0.0,0.0,0.0,0.0,0.0,0.0,0.0,0.0,0.0,0.0,-1.3626,-1.3259,-1.1983,-1.1748,-1.1714,-1.1843,-1.1857,-1.1918,-1.2074,-1.221,-1.2146,-1.1702,-1.1831,-1.1648,-1.13,0.0,0.0,0.0,0.0,-1.0784,-1.0574,-1.0574,-1.0628,-1.0737,-1.0737,-1.0737,-1.0737,-1.0737,-1.0737,-1.0737,-1.107,-1.1403,-1.1403,-1.1403,-1.157,-1.1902,-1.2069,-1.2401,-1.2733,-1.3231,-1.3403,-1.3403,0.0,0.0,0.0,0.0,0.0,0.0,0.0,-1.7479,-1.7479,-1.7479,-1.7708,-1.7962,-1.8191,-1.8493,-1.838,-1.7418,-1.7345,-1.6203,0.0,0.0,-1.2165,-1.0717,-1.0982,-1.0982,-1.0717,-1.0717,-1.0717,-1.0717,-1.0717,-1.0717,-1.0717,-1.0717,-1.0717,-1.0717,-1.0717,-1.0717,-1.0717,-1.0717,-1.0717,-1.0717,-1.0717,-1.0717,-1.0717,-1.0717,-1.0717,-1.0717,-1.0717,-1.0717,-1.0717,-1.0717,-1.0717,-1.0717,-1.0717,-1.0717,0.0,0.0,0.0,0.0,0.0,0.0,0.0,0.0,0.0,0.0,0.0,0.0,0.0,0.0,0.0,0.0,0.0,0.0,0.0,-1.2344,-1.2219,-1.2129,-1.1993,-1.1993,-1.1986,-1.2013,-1.202,-1.2074,-1.223,-1.1967,-1.188,-1.1837,-1.166,-1.1282,-1.099,-1.1095,-1.0884,-1.0683,-1.0688,-1.0744,-1.0699,-1.0704,-1.0715,-1.0737,0.0,0.0,-1.0737,-1.0737,-1.0737,-1.0737,-1.0737,-1.0904,-1.0904,-1.0904,-1.0904,-1.107,-1.1736,-1.2401,-1.2733,-1.2733,-1.3065,-1.3403,0.0,0.0,0.0,0.0,0.0,0.0,0.0,-1.7479,-1.7527,-1.766,-1.7913,-1.8191,-1.8456,-1.8081,-1.7629,-1.7098,-1.5674,-1.425,0.0,-1.2165,-1.1372,-1.0717,-1.0717,-1.0717,-1.0717,-1.0717,-1.0717,-1.0717,-1.0717,-1.0717,-1.0717,-1.0717,-1.0717,-1.0717,-1.0717,-1.0591,-1.0459,-1.0459,-1.0326,-1.0199,-1.0264,-1.0424,-1.0551,-1.0618,-1.0717,-1.0717,-1.0717,-1.0717,-1.0731,-1.0806,-1.0833,-1.0846,-1.0921,-1.0941,-1.0941,0.0,0.0,0.0,0.0,0.0,0.0,0.0,0.0,0.0,0.0,0.0,0.0,0.0,0.0,-1.2488,0.0,0.0,-1.2634,-1.2065,-1.1945,-1.1999,-1.2155,-1.2176,-1.2176,-1.2176,-1.2025,-1.1934,-1.2073,-1.1695,-1.1448,-1.136,-1.1336,-1.1119,-1.07,-1.0762,-1.0688,-1.0645,-1.0645,-1.0677,-1.0737,-1.0737,-1.0737,-1.0737,-1.0737,-1.0737,-1.0737,-1.0737,-1.0737,-1.0737,-1.0737,-1.0737,-1.0737,-1.0737,-1.0737,-1.0737,-1.1237,-1.1736,-1.2069,-1.2235,-1.2733,-1.3065,0.0,0.0,0.0,0.0,0.0,0.0,0.0,0.0,-1.7575,-1.7841,-1.8118,-1.8396,-1.865,-1.7873,-1.7238,-1.6592,-1.3988,0.0,0.0,-1.1372,-1.0717,-1.0717,-1.0717,-1.0717,-1.0717,-1.0717,-1.0717,-1.0717,-1.0717,-1.0717,-1.0717,-1.0717,-1.0717,-1.0717,-1.0717,-1.0459,-1.0193,-1.0219,-1.0098,-0.971,-0.9838,-1.0023,-1.0425,-1.0578,-1.0672,-1.0806,-1.0806,-1.0806,-1.0826,-1.0948,-1.0989,-1.1009,-1.1124,-1.1165,-1.1165,-1.1165,-1.1185,0.0,0.0,0.0,0.0,0.0,0.0,0.0,0.0,0.0,-1.1626,-1.1653,-1.166,-1.1701,-1.185,-1.1877,-1.1925,-1.2081,-1.2108,-1.2155,-1.2311,-1.2359,-1.2226,-1.2226,-1.1913,-1.1805,-1.1759,-1.1584,-1.1189,-1.0872,-1.0833,-1.0784,-1.0552,-1.0579,-1.0634,-1.0732,-1.0737,-1.0737,-1.0737,-1.0737,-1.0737,-1.0737,-1.0737,-1.0737,-1.0737,-1.0737,-1.0737,-1.0737,-1.0737,-1.0737,-1.0737,-1.0737,-1.0737,-1.0737,-1.0737,-1.0904,-1.1403,-1.1736,-1.2235,-1.2567,0.0,0.0,0.0,0.0,0.0,0.0,0.0,0.0,0.0,-1.7841,-1.8118,-1.8396,-1.865,-1.8788,-1.7905,-1.5303,-1.2553,0.0,-1.0982,-1.085,-1.0717,-1.0717,-1.0717,-1.0717,-1.0717,-1.0717,-1.0717,-1.0717,-1.0717,-1.0717,-1.0717,-1.0717,-1.0717,-1.0717,-1.0717,-1.0459,-1.0199,-1.0328,-1.0109,-0.9838,-0.9979,-1.0172,-1.058,-1.0567,-1.0836,-1.1111,-1.1111,-1.1111,-1.1118,-1.1131,-1.1138,-1.1138,-1.1158,-1.1165,-1.1165,-1.1165,-1.126,-1.1362,-1.1362,-1.1463,-1.1572,-1.1592,-1.1606,-1.1619,0.0,0.0,-1.1653,-1.1782,-1.1809,-1.1857,-1.2006,-1.2033,-1.2088,-1.2237,-1.2264,-1.2318,-1.2461,-1.2284,-1.205,-1.205,-1.205,-1.1899,-1.1439,-1.1249,-1.1005,-1.1005,-1.0796,-1.0705,-1.0552,-1.0655,-1.0721,-1.0737,-1.0737,-1.0737,-1.0737,-1.0737,-1.0737,-1.0737,-1.0737,-1.0737,-1.0737,-1.0737,-1.0737,-1.0737,-1.0737,-1.0737,-1.0737,-1.0737,-1.0737,-1.0737,-1.0737,-1.0737,-1.0904,-1.1237,-1.1736,-1.2235,0.0,0.0,0.0,0.0,0.0,0.0,0.0,0.0,0.0,0.0,-1.8348,-1.8613,-1.8879,-1.758,-1.5814,-1.3866,0.0,0.0,-1.0717,-1.0717,-1.0717,-1.0717,-1.0717,-1.0717,-1.0717,-1.0717,-1.0717,-1.0717,-1.0717,-1.0717,-1.0717,-1.0717,-1.0717,-1.0717,-1.0717,-1.0365,-0.9912,-0.9968,-0.9763,-0.9297,-0.9427,-0.99,-1.0467,-1.0542,-1.0857,-1.1402,-1.1226,-1.1165,0.0,-1.1267,-1.1294,-1.1314,-1.1402,-1.143,-1.143,-1.143,-1.147,-1.1525,-1.1525,-1.1572,-1.1619,-1.1619,-1.1681,-1.1742,-1.1742,-1.1809,-1.1891,-1.1952,-1.1965,-1.2013,-1.2169,-1.2196,-1.2244,0.0,-1.2413,-1.2467,-1.2617,-1.2377,-1.1969,-1.1899,-1.1653,-1.1505,-1.1113,-1.0901,-1.0812,-1.0812,-1.076,-1.0661,-1.0661,-1.071,-1.0737,-1.0737,-1.0737,-1.0737,-1.0737,-1.0737,-1.0737,-1.0737,-1.0737,-1.0737,-1.0737,-1.0737,-1.0737,-1.0737,-1.0737,-1.0737,-1.0737,-1.0737,-1.0737,-1.0737,-1.0737,-1.0737,-1.0737,-1.0904,-1.1237,-1.1736,0.0,0.0,0.0,0.0,0.0,0.0,0.0,0.0,0.0,0.0,0.0,-1.8782,-1.9048,-1.699,-1.4903,-1.3473,0.0,0.0,0.0,-1.0717,-1.0717,-1.0717,-1.0717,-1.0717,-1.0717,-1.0717,-1.0717,-1.0717,-1.0717,-1.0717,-1.0717,-1.0717,-1.0717,-1.0724,-1.0765,-1.0437,-0.9857,-0.993,-0.9745,-0.9154,-0.9417,-0.9894,-1.0469,-1.0568,-1.1038,-1.1592,-1.1369,-1.1287,-1.1307,-1.1416,-1.1457,-1.147,-1.1586,-1.1619,-1.1619,-1.1619,-1.1619,-1.1619,-1.1619,-1.1619,-1.1626,-1.1667,-1.1755,-1.1843,-1.1884,-1.1979,-1.2074,-1.2115,-1.2128,-1.2169,-1.2318,-1.2345,-1.2393,-1.2542,-1.2562,-1.2617,-1.2615,-1.2192,-1.1936,-1.1553,-1.1353,-1.1066,-1.0975,-1.0721,-1.0606,-1.0606,-1.0688,-1.0737,-1.0737,-1.0737,-1.0737,-1.0737,-1.0737,-1.0737,-1.0737,-1.0737,-1.0737,-1.0737,-1.077,-1.0786,-1.0791,-1.0824,-1.084,-1.084,-1.084,-1.084,-1.084,-1.084,-1.084,-1.084,-1.084,-1.084,-1.084,-1.084,-1.0981,-1.1288,0.0,0.0,0.0,0.0,0.0,0.0,0.0,0.0,0.0,0.0,0.0,0.0,0.0,0.0,-1.6333,0.0,0.0,0.0,0.0,-1.0717,-1.0717,-1.0717,-1.0717,-1.0717,-1.0717,-1.0717,-1.0717,-1.0717,-1.0717,-1.0717,-1.0717,-1.0717,-1.0717,-1.0724,-1.0873,-1.0535,-0.9869,-1.055,-1.0395,-0.9706,-1.0257,-1.0599,-1.1038,-1.1044,-1.1188,-1.1619,-1.1606,-1.1606,-1.1606,-1.1613,-1.1613,-1.1613,-1.1619,-1.1619,-1.1619,-1.1619,-1.1619,-1.1619,-1.1619,-1.1619,-1.1653,-1.1789,-1.183,-1.187,-1.202,-1.206,-1.2101,-1.225,-1.2284,-1.2325,-1.2467,-1.2494,-1.2549,-1.2698,-1.2725,-1.2621,-1.2288,-1.21,-1.1691,-1.1201,-1.0986,-1.0732,0.0,-1.0732,-1.0732,-1.0732,-1.0737,-1.0737,-1.0737,-1.0737,-1.0737,-1.0737,-1.0737,-1.0737,-1.0737,-1.0737,-1.0737,-1.0737,-1.0857,-1.0916,-1.0916,-1.1036,-1.109,-1.109,-1.109,-1.109,-1.109,-1.109,-1.109,-1.109,-1.109,-1.109,-1.109,-1.109,-1.1014,-1.0916,0.0,0.0,0.0,0.0,0.0,0.0,0.0,0.0,0.0,0.0,0.0,0.0,0.0,0.0,0.0,0.0,0.0,0.0,0.0,-1.1769,-1.1115,-1.2033,-1.1247,-1.0717,-1.0717,-1.0717,-1.0717,-1.0717,-1.0717,-1.0717,-1.0717,-1.0717,-1.0717,-1.0724,-1.088,-1.0594,-0.9997,-1.0601,-1.0457,-0.9821,-1.0293,-1.075,-1.1044,-1.1044,-1.1188,-1.1619,0.0,-1.1619,-1.1619,-1.1619,-1.1619,-1.1619,-1.1619,-1.1619,-1.164,-1.1735,-1.1694,-1.166,-1.1857,-1.1837,-1.1796,-1.1945,-1.206,-1.2149,-1.2203,-1.2284,-1.2366,-1.242,-1.2515,-1.2596,-1.2644,-1.2739,-1.282,-1.2874,-1.2881,-1.2775,-1.243,-1.1999,-1.1734,-1.1328,-1.0876,0.0,0.0,0.0,0.0,-1.0737,-1.0737,-1.0737,-1.0737,-1.0737,-1.0737,-1.0737,-1.0737,-1.0775,-1.0857,-1.0857,-1.09,-1.0982,-1.102,-1.1041,-1.1041,-1.1085,-1.1101,-1.1101,-1.1101,-1.1101,-1.1101,-1.1101,-1.1101,-1.1101,-1.1101,-1.1101,-1.1101,-1.1101,-1.1123,-1.1145,0.0,0.0,0.0,0.0,0.0,0.0,0.0,0.0,0.0,0.0,0.0,0.0,0.0,0.0,0.0,0.0,0.0,0.0,0.0,-1.2684,-1.1901,-1.2816,-1.1505,-1.0717,-1.0717,-1.0717,-1.0717,-1.0717,-1.0717,-1.0717,-1.0717,-1.0717,-1.0717,-1.0731,-1.0934,-1.0665,-1.0209,-1.0818,-1.0811,-1.0317,-1.075,-1.1038,-1.1188,-1.1188,-1.1332,0.0,-1.1619,-1.1619,-1.1619,-1.1619,-1.1619,-1.1619,-1.1619,-1.1653,-1.1714,-1.1803,-1.1803,-1.1816,-1.2013,-1.1986,-1.1952,-1.2108,-1.2216,-1.2305,-1.2352,-1.2433,-1.2501,-1.2501,-1.2623,-1.2732,-1.2732,-1.2854,-1.2976,-1.303,-1.3037,-1.2923,-1.2408,-1.2099,-1.1641,-1.1225,-1.0904,-1.0737,0.0,0.0,0.0,-1.0737,-1.0737,-1.0737,-1.0737,-1.0737,-1.0759,-1.0802,-1.0802,-1.0862,-1.0987,-1.0987,-1.1047,-1.1161,-1.1161,-1.1188,-1.1226,-1.1226,-1.1226,-1.1226,-1.1226,-1.1226,-1.1226,-1.1226,-1.1226,-1.1226,-1.1226,-1.1226,-1.1226,-1.1226,-1.1275,-1.1319,0.0,0.0,0.0,0.0,0.0,0.0,0.0,0.0,0.0,0.0,0.0,0.0,0.0,0.0,0.0,0.0,0.0,0.0,-1.5173,-1.3735,-1.2947,-1.2947,-1.1505,-1.0717,-1.0717,-1.0717,-1.0717,-1.0717,-1.0717,-1.0717,-1.0717,-1.0717,-1.0724,-1.0744,-1.1036,-1.1027,-1.0638,-1.1348,-1.1332,-1.1044,-1.1476,-1.1619,-1.1619,-1.1619,-1.1619,-1.1619,-1.1619,-1.1619,-1.1619,-1.1619,-1.1619,-1.1619,-1.1619,-1.1714,-1.183,-1.1837,-1.1945,-1.2067,-1.2081,-1.2081,-1.2108,-1.2264,-1.2298,-1.2338,-1.2467,-1.2501,-1.2501,-1.2508,-1.2637,-1.2745,0.0,0.0,-1.303,-1.3159,-1.3186,-1.2906,-1.2216,-1.2069,-1.1736,0.0,0.0,0.0,0.0,0.0,0.0,-1.0737,0.0,-1.0737,-1.0742,-1.0748,-1.0802,-1.0927,-1.0927,-1.0987,-1.1112,-1.1118,-1.1172,-1.1281,-1.1281,-1.134,-1.1455,-1.1455,-1.1455,-1.1455,-1.1455,-1.1455,-1.1455,-1.1455,-1.1455,-1.1455,-1.1455,-1.1455,-1.1455,-1.1455,-1.1455,-1.1438,0.0,0.0,0.0,0.0,0.0,0.0,0.0,0.0,0.0,0.0,0.0,0.0,0.0,0.0,0.0,0.0,0.0,0.0,-1.8033,-1.5684,-1.439,-1.439,-1.3079,-1.1769,-1.0717,-1.0717,-1.0717,-1.0717,-1.0717,-1.0717,-1.0717,-1.0717,-1.0778,-1.09,-1.1084,-1.1087,-1.0786,-1.1395,-1.1332,-1.1044,-1.1476,-1.1619,-1.1619,-1.1619,-1.1619,-1.1619,-1.1619,-1.1619,-1.1619,-1.1619,-1.1619,-1.1619,-1.1619,-1.1714,-1.1857,-1.1972,-1.2033,-1.2108,-1.2332,-1.2311,-1.2271,-1.2413,-1.2447,-1.2454,-1.2185,-1.2347,-1.238,-1.2181,-1.2635,-1.2935,-1.3037,0.0,0.0,-1.3336,-1.3342,0.0,-1.2229,-1.2069,0.0,-1.0737,0.0,-1.0737,-1.0737,-1.0737,0.0,0.0,-1.0737,-1.0775,-1.0867,-1.0873,-1.0927,-1.1052,-1.1058,-1.1112,-1.1226,-1.1319,-1.1378,-1.1411,-1.1411,-1.1422,-1.1455,-1.1455,-1.1455,-1.1455,-1.1455,-1.1455,-1.1455,-1.1455,-1.1455,-1.1455,-1.1455,-1.1455,-1.1455,-1.1455,-1.1455,-1.1449,0.0,0.0,0.0,0.0,0.0,0.0,0.0,0.0,0.0,0.0,0.0,0.0,0.0,0.0,0.0,0.0,0.0,0.0,0.0,-1.699,-1.5554,-1.4912,-1.3604,-1.2165,-1.0717,-1.0717,-1.0717,-1.0717,-1.0717,-1.0717,-1.0717,-1.0717,-1.0806,-1.0955,-1.1097,-1.1107,-1.112,-1.1409,-1.1476,0.0,0.0,-1.1619,-1.1619,-1.1619,-1.1619,-1.1619,-1.1619,-1.1619,-1.1619,-1.1619,-1.1619,-1.1619,-1.1619,-1.1762,-1.1952,-1.204,-1.2155,-1.2291,-1.2454,-1.244,-1.2406,-1.2481,-1.2347,-1.2212,-1.2278,-1.2135,-1.2174,-1.2483,-1.2628,-1.2916,-1.3159,-1.3295,-1.3403,0.0,0.0,0.0,-1.2235,-1.1902,-1.157,0.0,-1.0737,0.0,-1.0737,-1.0737,-1.0759,0.0,-1.0819,-1.0846,-1.0916,-1.0971,-1.1052,-1.1172,-1.1177,-1.1232,-1.1351,-1.1476,-1.1536,-1.1536,-1.159,-1.1612,-1.1612,-1.1612,-1.1612,-1.1612,0.0,-1.1612,-1.1612,-1.1612,-1.1612,-1.1612,-1.1612,-1.1612,-1.1612,-1.1612,-1.1612,-1.1612,0.0,0.0,0.0,0.0,0.0,0.0,0.0,0.0,0.0,0.0,0.0,0.0,0.0,0.0,0.0,0.0,0.0,0.0,0.0,0.0,0.0,-1.5294,-1.3866,-1.2421,-1.0982,-1.085,-1.0717,-1.0717,-1.0717,-1.0717,-1.0717,-1.0717,-1.0806,-1.0955,-1.1097,-1.1246,-1.1402,-1.1552,-1.1619,-1.1619,-1.1619,-1.1619,-1.1619,0.0,-1.1619,-1.1619,-1.1619,-1.1619,-1.1619,-1.1619,-1.1619,-1.1619,-1.164,-1.1837,-1.2067,-1.2088,-1.2284,-1.2501,-1.2501,-1.2501,-1.2501,-1.2501,-1.2192,-1.2076,-1.2384,-1.1937,-1.1671,-1.2795,-1.2761,-1.2684,-1.32,-1.3308,-1.3403,-1.3403,0.0,-1.2567,-1.2235,-1.1736,-1.1237,-1.0737,-1.0737,-1.0737,-1.0737,-1.0753,-1.0808,-1.0911,-1.0949,-1.0965,-1.0965,-1.1069,-1.1177,-1.1291,-1.1313,-1.1373,-1.1476,-1.1601,-1.1661,-1.1661,-1.177,-1.1819,-1.1819,-1.1819,-1.1819,-1.1819,-1.1819,-1.1819,-1.1819,-1.1819,-1.1819,-1.1819,-1.1819,-1.1819,-1.1819,-1.1819,-1.1819,-1.1819,0.0,0.0,0.0,0.0,0.0,0.0,0.0,0.0,0.0,0.0,-1.9328,-1.9072,0.0,0.0,0.0,0.0,0.0,0.0,0.0,0.0,0.0,0.0,-1.5294,-1.3866,-1.2421,-1.1247,-1.0717,-1.0717,-1.0717,-1.0717,-1.0717,-1.0717,-1.0806,-1.0955,-1.1097,-1.1246,-1.1402,-1.1552,-1.1619,-1.1619,-1.1619,-1.1619,-1.1619,-1.1619,0.0,0.0,-1.1619,-1.1619,-1.1619,-1.1619,-1.1619,-1.164,-1.1755,-1.1918,-1.2088,-1.221,-1.2372,-1.2501,-1.2501,-1.2501,-1.2347,-1.2037,-1.1882,-1.1921,-1.1754,-1.1622,-1.1696,-1.243,-1.2501,-1.2716,-1.3336,-1.3383,-1.3403,-1.3403,-1.3065,-1.2567,-1.2235,-1.1736,-1.1237,0.0,-1.0737,-1.0737,-1.0737,-1.0829,0.0,0.0,-1.1101,-1.121,-1.121,-1.1232,-1.1297,-1.1422,-1.152,-1.1585,-1.1601,-1.1726,-1.1786,-1.1786,-1.1808,-1.1819,-1.1819,-1.1819,-1.1819,-1.1819,-1.1819,0.0,-1.1819,-1.1819,-1.1819,-1.1819,-1.1819,-1.1819,-1.1819,-1.1819,-1.1819,-1.1819,0.0,0.0,0.0,0.0,0.0,0.0,0.0,-1.92,-1.9456,-1.9584,-1.9584,-1.9584,-1.9328,-1.92,-1.9072,0.0,0.0,0.0,0.0,0.0,0.0,0.0,0.0,0.0,0.0,-1.1769,-1.1115,-1.1769,0.0,-1.0717,-1.0717,-1.0717,-1.0806,-1.0955,-1.1023,-1.1179,-1.1396,-1.147,-1.1545,-1.1619,-1.1619,-1.1619,-1.1619,0.0,0.0,0.0,0.0,-1.1619,-1.1619,-1.1619,-1.1619,-1.1647,-1.1789,-1.1938,-1.2094,-1.2244,-1.2393,-1.2501,-1.2501,-1.2501,-1.2347,-1.2037,-1.1727,-1.1629,-1.1525,-1.1255,-1.1165,-1.2408,-1.2465,-1.2484,-1.3217,-1.3403,-1.3403,-1.3403,-1.2899,-1.2401,-1.2069,-1.157,-1.0904,-1.0737,-1.0737,-1.0764,-1.0824,-1.0884,-1.0971,-1.1096,-1.121,-1.127,-1.127,-1.1395,-1.1487,-1.1547,-1.1667,-1.1732,-1.1732,-1.1851,-1.1906,-1.1906,-1.1971,-1.2004,-1.2004,-1.2004,-1.2004,-1.2004,-1.2004,-1.2004,-1.2004,-1.2004,-1.2004,-1.2004,-1.2004,-1.2004,-1.2004,-1.2004,-1.2004,-1.2004,0.0,0.0,0.0,0.0,0.0,0.0,0.0,-1.9456,-1.9699,-1.9839,-1.9966,-1.9979,-1.9711,-1.9456,-1.92,0.0,0.0,0.0,0.0,0.0,0.0,0.0,0.0,0.0,0.0,0.0,0.0,-1.2289,-1.1247,0.0,0.0,0.0,0.0,0.0,-1.0934,-1.1077,-1.1301,-1.1362,-1.1463,0.0,0.0,-1.1619,0.0,0.0,0.0,0.0,0.0,-1.1619,-1.1619,-1.1619,-1.164,-1.1687,-1.1837,-1.1965,-1.2101,-1.2284,-1.2413,-1.2501,-1.2501,-1.2501,-1.2347,-1.1882,-1.1572,-1.1335,-1.145,-1.1028,-1.0779,-1.2344,-1.2401,-1.2401,-1.3065,-1.3403,-1.3403,-1.3403,-1.2733,-1.2069,-1.2069,-1.1237,-1.0737,-1.0737,-1.0737,0.0,-1.0911,-1.0944,0.0,-1.1259,-1.1319,-1.1351,-1.1351,-1.1531,-1.165,-1.1672,-1.1792,-1.1857,-1.1857,-1.1971,-1.2025,-1.2031,-1.2123,-1.2172,-1.2172,-1.2172,-1.2172,-1.2172,-1.2172,-1.2172,0.0,-1.2172,-1.2172,-1.2172,-1.2172,-1.2172,-1.2172,-1.2172,-1.2172,-1.2172,0.0,0.0,0.0,0.0,0.0,0.0,0.0,-1.9584,-1.9839,-2.0475,-2.0234,-2.0106,-2.0106,-1.9711,-1.9456,0.0,0.0,0.0,0.0,0.0,0.0,0.0,0.0,0.0,0.0,0.0,0.0,-1.085,-1.0717,0.0,0.0,0.0,0.0,0.0,0.0,-1.0962,-1.1009,-1.1274,0.0,0.0,0.0,0.0,0.0,0.0,0.0,0.0,0.0,-1.1619,-1.1619,-1.1619,-1.1708,-1.1837,-1.1993,-1.2054,-1.2115,-1.24,-1.2488,-1.2501,-1.2501,-1.2501,-1.2347,-1.1572,-1.1262,-1.1335,-1.113,-1.0706,-1.0779,-1.1848,-1.2069,-1.2235,-1.2733,-1.3065,-1.3403,-1.3403,-1.2733,-1.2069,-1.2069,-1.1237,-1.0737,-1.0737,0.0,0.0,-1.0911,-1.102,-1.1139,-1.1264,-1.1476,-1.1601,-1.1601,-1.1623,-1.1688,-1.1797,-1.1911,-1.1971,-1.1971,-1.2096,-1.2156,-1.2156,-1.2167,-1.2172,-1.2172,-1.2172,-1.2172,-1.2172,-1.2172,-1.2172,0.0,-1.2172,-1.2172,-1.2172,-1.2172,-1.2172,-1.2172,-1.2172,-1.2172,-1.2172,0.0,0.0,0.0,0.0,0.0,0.0,-1.9571,-1.9711,-2.0094,-2.0475,-2.0615,-2.0615,-2.0361,-2.0106,-1.9711,-1.92,0.0,0.0,0.0,0.0,0.0,0.0,0.0,0.0,0.0,0.0,-1.2947,-1.321,-1.1505,0.0,0.0,0.0,0.0,0.0,0.0,-1.086,-1.0955,-1.1077,0.0,0.0,0.0,0.0,0.0,0.0,0.0,0.0,0.0,0.0,-1.1619,-1.1619,-1.1653,-1.1742,-1.1986,-1.206,-1.2121,-1.2413,-1.2501,-1.2501,-1.2501,-1.2501,-1.2347,-1.1727,-1.1479,-1.1276,-1.0988,-1.0762,-1.0699,-1.1535,-1.1736,-1.1902,-1.2567,-1.2899,-1.3065,-1.3403,-1.2733,-1.2069,-1.2069,-1.1237,-1.0737,-1.0737,-1.0802,-1.0895,0.0,0.0,-1.1286,-1.1476,-1.158,-1.1699,-1.1841,-1.1846,-1.1868,-1.1917,-1.2036,-1.2096,-1.2096,-1.2145,-1.2172,-1.2172,-1.2172,-1.2172,-1.2172,-1.2172,-1.2172,-1.2172,-1.2172,-1.2172,0.0,-1.2172,-1.2172,-1.2172,-1.2172,-1.2172,-1.2172,-1.2172,-1.2172,-1.2172,0.0,0.0,0.0,0.0,0.0,-1.92,-1.9711,-1.9979,-2.0234,-2.0729,-2.0982,-2.0982,-2.0615,-2.0361,-1.9851,-1.9468,-1.92,0.0,0.0,0.0,0.0,0.0,0.0,0.0,0.0,0.0,-1.4119,-1.4259,-1.2289,-1.1115,0.0,0.0,-1.0717,-1.0717,0.0,0.0,0.0,0.0,0.0,0.0,0.0,0.0,0.0,0.0,0.0,0.0,0.0,0.0,0.0,0.0,0.0,-1.1728,-1.1979,0.0,0.0,-1.2427,-1.2501,-1.2501,-1.2501,-1.2501,-1.2347,-1.2037,-1.1648,-1.1294,-1.0993,-1.0773,-1.0716,-1.1037,-1.1403,-1.1736,-1.2401,-1.2567,-1.2733,-1.3065,-1.2401,-1.1902,-1.1902,-1.1237,-1.0737,-1.0737,0.0,-1.0965,0.0,-1.127,-1.1449,-1.1623,-1.1699,-1.1813,-1.1982,-1.202,-1.2042,-1.2042,-1.2129,-1.2172,-1.2172,-1.2172,-1.2172,-1.2172,-1.2172,-1.2172,-1.2172,-1.2172,-1.2172,-1.2172,-1.2172,-1.2172,0.0,-1.2172,-1.2172,-1.2172,-1.2172,-1.2172,-1.2172,-1.2172,-1.2172,-1.2172,0.0,0.0,0.0,0.0,0.0,0.0,-1.9979,-2.0106,-2.0361,-2.0982,-2.1109,-2.0982,-2.0615,-2.0361,-2.0106,-2.0106,-1.9468,0.0,0.0,0.0,0.0,0.0,0.0,0.0,0.0,0.0,-1.5544,-1.2816,-1.2816,-1.2033,-1.0717,-1.0717,-1.0717,-1.0717,0.0,0.0,0.0,0.0,0.0,0.0,0.0,0.0,0.0,0.0,0.0,0.0,0.0,0.0,0.0,0.0,0.0,0.0,0.0,-1.2169,-1.2318,-1.2461,-1.2501,-1.2501,-1.2501,-1.2501,-1.2347,-1.2037,-1.1572,-1.1179,-1.097,-1.0711,-1.0454,-1.0688,-1.1403,-1.2069,-1.2069,-1.2401,-1.2733,-1.2733,-1.1902,-1.1403,-1.1403,-1.107,-1.0737,0.0,0.0,-1.0965,-1.109,-1.1422,-1.1634,-1.1634,-1.1851,0.0,-1.1987,-1.2102,-1.2172,-1.2172,-1.2172,-1.2172,-1.2172,-1.2172,-1.2172,-1.2172,-1.2172,-1.2172,-1.2172,-1.2172,-1.2172,-1.2172,-1.2172,-1.2172,0.0,-1.2172,-1.2172,-1.2172,-1.2172,-1.2172,-1.2172,-1.2172,-1.2172,-1.2172,0.0,0.0,0.0,0.0,0.0,0.0,0.0,-2.0106,-2.0361,-2.0982,-2.1109,-2.1109,-2.0982,-2.0488,-2.0106,-2.0106,-1.9711,0.0,0.0,0.0,0.0,0.0,0.0,0.0,0.0,0.0,-1.6581,-1.5674,-1.3726,-1.2553,-1.2165,-1.1115,-1.0717,-1.0717,-1.0717,-1.0717,0.0,0.0,0.0,0.0,0.0,0.0,0.0,0.0,0.0,0.0,0.0,0.0,0.0,0.0,0.0,0.0,0.0,0.0,0.0,-1.2311,-1.2427,-1.2501,-1.2501,-1.2501,-1.2501,-1.2347,-1.2115,-1.1767,-1.1468,-1.1091,-1.0874,-1.0704,-1.0904,-1.1237,-1.157,-1.1736,-1.1902,-1.2235,-1.1736,-1.1403,-1.1403,-1.107,0.0,-1.0737,-1.0922,-1.1123,0.0,0.0,-1.1672,-1.1754,-1.19,-1.2025,-1.2107,-1.215,-1.2172,-1.2172,-1.2172,-1.2172,-1.2172,-1.2172,-1.2172,-1.2172,-1.2172,-1.2172,-1.2172,-1.2172,-1.2172,-1.2172,-1.2172,-1.2221,-1.2297,-1.2297,-1.2346,-1.2422,-1.2422,-1.2422,-1.2422,-1.2422,-1.2422,-1.2422,0.0,0.0,0.0,0.0,0.0,0.0,0.0,-2.0106,-2.0361,-2.0982,-2.1109,-2.1109,-2.1109,-2.0602,-2.0361,-2.0488,-2.0221,0.0,0.0,0.0,0.0,0.0,0.0,0.0,0.0,-1.8291,-1.7496,-1.698,-1.5284,-1.3857,-1.2816,-1.1901,-1.1247,-1.0717,-1.0717,-1.0717,0.0,0.0,0.0,0.0,0.0,0.0,-1.1321,0.0,0.0,0.0,0.0,0.0,0.0,0.0,0.0,0.0,0.0,0.0,0.0,0.0,-1.2393,-1.2501,-1.2501,-1.2501,-1.2501,-1.2501,-1.2265,-1.1912,-1.1629,-1.1409,-1.1026,-1.0704,-1.0904,-1.107,-1.1403,-1.1403,-1.157,-1.1736,-1.1403,-1.107,-1.107,-1.0904,0.0,-1.0862,0.0,0.0,0.0,-1.1607,-1.1737,-1.1813,-1.1966,-1.2091,-1.2167,-1.2172,-1.2172,-1.2172,-1.2172,-1.2172,-1.2172,-1.2172,-1.2172,-1.2172,-1.2172,-1.2172,-1.2172,-1.2221,-1.2243,-1.2243,-1.2292,-1.2352,0.0,-1.2422,-1.2466,-1.2536,-1.2536,-1.2536,-1.2536,-1.2536,-1.2536,-1.2536,0.0,0.0,0.0,0.0,0.0,0.0,0.0,-2.0106,-2.0361,-2.0982,-2.1109,-2.1109,-2.1109,-2.0729,-2.0729,-2.0982,0.0,0.0,0.0,0.0,0.0,0.0,0.0,0.0,0.0,-1.9328,-1.8419,-1.7109,-1.7109,-1.5674,-1.3079,-1.2947,-1.2165,-1.085,-1.0717,-1.0717,0.0,0.0,0.0,0.0,0.0,0.0,0.0,0.0,0.0,0.0,0.0,0.0,0.0,0.0,0.0,0.0,0.0,0.0,0.0,0.0,0.0,0.0,0.0,-1.2501,-1.2501,-1.2501,-1.2192,-1.1959,-1.161,-1.135,0.0,-1.0688,-1.107,-1.1403,-1.1403,-1.1403,-1.1403,-1.1403,-1.0904,-1.0737,-1.0737,-1.0742,0.0,0.0,-1.1204,0.0,-1.1455,-1.1683,-1.1824,-1.183,-1.2042,-1.2172,-1.2172,-1.2172,-1.2172,-1.2172,-1.2172,-1.2172,-1.2172,-1.2172,-1.2172,-1.2172,-1.2178,-1.2183,-1.2188,-1.2314,-1.2368,0.0,-1.2487,-1.2542,0.0,-1.2547,-1.2553,-1.2564,-1.2564,-1.2564,-1.2564,-1.2564,-1.2564,-1.2564,0.0,0.0,0.0,0.0,0.0,0.0,0.0,0.0,0.0,0.0,-2.1109,-2.0982,-2.0729,-2.0602,-2.0488,0.0,0.0,0.0,0.0,0.0,0.0,0.0,0.0,0.0,0.0,-1.9328,-1.8944,-1.8547,-1.7496,-1.6721,-1.5934,-1.3857,-1.2684,-1.2297,-1.1247,-1.0717,0.0,0.0,0.0,0.0,0.0,0.0,0.0,0.0,0.0,0.0,-1.143,-1.1518,0.0,0.0,0.0,0.0,0.0,0.0,0.0,0.0,-1.2223,-1.2366,-1.2474,0.0,-1.2501,-1.2501,-1.2501,-1.2271,0.0,-1.1511,0.0,0.0,0.0,-1.0904,-1.0904,-1.0904,-1.0904,-1.0904,-1.0737,-1.0737,-1.0737,-1.0819,0.0,-1.1085,-1.1204,-1.1357,-1.1574,-1.1732,-1.1857,-1.1944,-1.2085,-1.2172,-1.2172,-1.2172,-1.2172,-1.2172,-1.2172,-1.2172,-1.2172,-1.2172,-1.2172,-1.2172,-1.2265,-1.2308,-1.2314,-1.2439,-1.2493,-1.2493,-1.2526,0.0,-1.2667,-1.2667,-1.2721,-1.2803,-1.2803,-1.2803,-1.2803,-1.2803,-1.2803,-1.2803,0.0,0.0,0.0,0.0,0.0,0.0,0.0,0.0,0.0,0.0,0.0,0.0,0.0,0.0,0.0,0.0,0.0,0.0,0.0,0.0,0.0,0.0,0.0,0.0,-1.9839,-1.9328,-1.9072,-1.9072,-1.8291,-1.7636,-1.698,-1.4772,-1.3473,-1.2684,-1.1372,-1.0717,0.0,0.0,0.0,0.0,-1.0812,0.0,0.0,0.0,0.0,0.0,-1.1369,-1.1491,0.0,-1.1619,-1.1619,-1.1619,0.0,0.0,0.0,0.0,-1.2169,-1.2325,-1.2461,-1.2501,-1.2501,-1.2501,-1.2501,-1.2271,-1.177,0.0,0.0,0.0,0.0,-1.0737,-1.0737,-1.0737,-1.0737,-1.0737,-1.0737,-1.0737,-1.0737,0.0,-1.1031,-1.1096,-1.1253,-1.1427,0.0,-1.1748,-1.1868,-1.1982,-1.2102,-1.2172,-1.2172,-1.2172,-1.2172,-1.2172,-1.2172,-1.2172,-1.2172,-1.2227,-1.2254,-1.2259,-1.2379,-1.2439,-1.2439,-1.2558,-1.2613,-1.2618,-1.2672,0.0,-1.2786,-1.2786,-1.2825,-1.289,-1.289,-1.289,-1.289,-1.289,-1.289,-1.289,0.0,0.0,0.0,0.0,0.0,0.0,0.0,0.0,0.0,0.0,0.0,0.0,0.0,0.0,0.0,0.0,0.0,0.0,0.0,0.0,0.0,0.0,0.0,-1.9839,-2.0106,-1.9468,-1.9072,-1.9072,-1.9072,-1.8547,-1.7238,-1.5684,-1.3997,-1.2421,-1.1247,-1.0717,0.0,0.0,0.0,0.0,-1.0717,0.0,0.0,0.0,0.0,0.0,0.0,0.0,0.0,-1.1613,-1.1619,-1.1619,-1.1619,0.0,0.0,0.0,0.0,0.0,-1.2461,-1.2501,-1.2501,-1.2501,-1.2522,-1.2298,-1.177,0.0,0.0,0.0,0.0,0.0,0.0,-1.0737,0.0,-1.0737,-1.0737,-1.0737,-1.0737,-1.0949,-1.1101,-1.1101,-1.1313,0.0,-1.165,-1.1759,-1.1873,-1.2009,-1.2112,-1.2172,-1.2172,-1.2172,-1.2172,-1.2172,-1.2188,-1.2199,-1.2199,-1.2303,-1.2362,-1.2384,-1.2504,-1.2564,-1.2564,-1.2683,-1.2732,-1.2738,0.0,0.0,-1.289,-1.289,-1.289,-1.289,-1.289,-1.289,-1.289,-1.289,-1.289,-1.289,0.0,0.0,0.0,0.0,0.0,0.0,0.0,0.0,0.0,0.0,0.0,0.0,0.0,0.0,0.0,0.0,0.0,0.0,0.0,0.0,0.0,0.0,-2.0234,-2.0106,-2.0106,-1.9468,-1.9072,-1.9072,-1.9072,-1.8944,-1.8676,-1.6084,-1.3473,-1.0982,-1.085,-1.0717,-1.0717,0.0,0.0,0.0,-1.0717,0.0,0.0,0.0,0.0,0.0,0.0,0.0,0.0,-1.1572,-1.1619,-1.1619,-1.1619,0.0,0.0,0.0,0.0,0.0,-1.2427,-1.2501,-1.2501,-1.2501,-1.2284,-1.2108,-1.1635,0.0,0.0,0.0,0.0,0.0,0.0,-1.0737,-1.0737,0.0,0.0,-1.0737,0.0,0.0,-1.1101,-1.1101,0.0,-1.1542,-1.177,-1.1808,-1.1911,-1.2129,-1.2161,-1.2172,-1.2172,-1.2172,-1.2172,-1.2172,-1.227,-1.2324,-1.2324,-1.2346,-1.2406,-1.2509,-1.2623,-1.2678,-1.2683,-1.2803,-1.2857,-1.2863,0.0,-1.289,-1.289,-1.289,-1.289,-1.289,-1.289,-1.289,-1.289,-1.289,-1.289,-1.289,0.0,0.0,0.0,0.0,0.0,0.0,0.0,0.0,0.0,0.0,0.0,0.0,0.0,0.0,0.0,0.0,0.0,0.0,0.0,0.0,0.0,-2.0615,-2.0234,-1.9979,-1.9839,-1.9328,-1.9072,-1.9072,-1.9072,-1.9072,-1.9072,-1.6213,-1.3341,-1.0717,-1.0717,-1.0717,-1.0717,-1.0717,0.0,-1.0717,0.0,0.0,0.0,0.0,0.0,0.0,0.0,0.0,0.0,0.0,-1.1619,-1.1619,-1.1619,0.0,0.0,0.0,0.0,0.0,-1.242,-1.2501,-1.2501,-1.2192,-1.2148,-1.1982,-1.1641,0.0,0.0,0.0,0.0,0.0,0.0,0.0,-1.0737,-1.0737,0.0,-1.0759,-1.0829,-1.0992,-1.1123,0.0,0.0,-1.1623,-1.1803,-1.1873,-1.1982,-1.2161,-1.2172,-1.2172,-1.2172,-1.2172,-1.2205,-1.227,-1.2324,-1.2417,-1.2542,-1.2542,-1.2569,-1.2629,-1.2748,-1.2803,-1.2808,-1.2863,-1.289,-1.289,0.0,-1.289,-1.289,-1.289,-1.289,-1.289,-1.289,-1.289,-1.289,-1.289,-1.289,-1.289,0.0,0.0,0.0,0.0,0.0,0.0,0.0,0.0,0.0,0.0,0.0,0.0,0.0,0.0,0.0,0.0,0.0,0.0,0.0,0.0,-2.0856,-2.0488,-2.0234,-1.9979,-1.9584,-1.9328,-1.9072,-1.9072,-1.9072,-1.8816,-1.8033,-1.5954,-1.3341,-1.0717,-1.0717,-1.0717,-1.0717,-1.0717,-1.0717,-1.0717,0.0,0.0,0.0,0.0,0.0,0.0,0.0,0.0,0.0,0.0,0.0,0.0,0.0,0.0,0.0,-1.1972,-1.206,-1.2128,-1.242,-1.2501,-1.2347,-1.2037,0.0,-1.1861,0.0,0.0,0.0,0.0,0.0,0.0,0.0,-1.0737,0.0,-1.0737,-1.0737,-1.078,-1.09,-1.1025,-1.1145,-1.1259,-1.1487,-1.1683,-1.1808,-1.1922,-1.2042,-1.2161,-1.2172,-1.2172,-1.2172,-1.2172,-1.2227,-1.2352,-1.2384,-1.2498,-1.2705,-1.2732,-1.2748,-1.2748,-1.2841,-1.289,-1.289,-1.289,-1.289,-1.289,-1.289,-1.289,-1.289,-1.289,-1.289,-1.289,-1.289,-1.289,-1.289,-1.289,-1.289,-1.289,0.0,0.0,0.0,0.0,0.0,0.0,0.0,0.0,0.0,0.0,0.0,0.0,0.0,0.0,0.0,0.0,0.0,0.0,0.0,0.0,-2.0856,-2.0106,-2.0106,-1.9979,-1.9584,-1.9328,-1.9072,-1.9072,-1.9072,-1.7776,-1.5173,-1.5043,-1.3341,-1.0717,-1.0717,-1.0717,-1.0717,-1.0717,-1.0717,-1.0717,-1.0717,0.0,0.0,0.0,0.0,0.0,0.0,0.0,0.0,0.0,0.0,0.0,0.0,0.0,-1.1681,-1.1972,-1.206,-1.2128,-1.242,-1.2501,-1.2347,-1.2037,0.0,0.0,0.0,0.0,0.0,0.0,0.0,0.0,0.0,-1.0737,-1.0737,-1.0737,-1.0737,-1.078,-1.09,0.0,-1.1145,-1.1259,-1.1487,-1.1683,-1.1808,-1.1922,-1.2042,-1.2161,-1.2172,-1.2172,-1.2172,-1.2172,-1.2227,-1.2352,-1.2466,-1.258,-1.2705,-1.2819,-1.2873,-1.2873,-1.2884,-1.289,-1.289,-1.289,-1.289,-1.289,-1.289,-1.289,-1.289,-1.289,-1.289,-1.289,-1.289,-1.289,-1.289,-1.289,-1.289,-1.289,0.0,0.0,0.0,0.0,0.0,0.0,0.0,0.0,0.0,0.0,0.0,0.0,0.0,0.0,0.0,0.0,0.0,0.0,0.0,0.0,-2.0361,-2.0106,-1.9839,-1.9584,-1.9328,-1.92,-1.9072,-1.9072,-1.8162,-1.685,-1.4912,-1.3997,-1.2553,-1.0717,-1.0717,-1.0717,-1.0717,-1.0717,-1.0717,-1.0717,-1.0717,-1.0717,0.0,0.0,0.0,0.0,0.0,0.0,0.0,0.0,-1.1619,-1.1619,-1.1619,-1.1619,-1.1681,-1.1972,-1.206,-1.2128,-1.242,-1.2347,0.0,0.0,0.0,0.0,0.0,0.0,0.0,0.0,0.0,0.0,0.0,0.0,-1.0737,-1.0737,-1.0802,-1.0895,-1.1014,-1.1134,-1.1253,-1.1373,-1.1601,-1.177,-1.1813,-1.1993,-1.2123,-1.2167,-1.2172,-1.2172,-1.2172,-1.2243,-1.2341,-1.2466,-1.258,-1.27,-1.2819,-1.2863,-1.289,-1.289,-1.289,-1.289,-1.289,-1.289,-1.289,-1.289,-1.289,-1.289,-1.289,-1.289,-1.289,-1.289,-1.289,-1.289,-1.289,-1.289,-1.289,-1.289,0.0,0.0,0.0,0.0,0.0,0.0,0.0,0.0,0.0,0.0,0.0,0.0,0.0,0.0,0.0,0.0,0.0,0.0,0.0,-2.0106,-2.0106,-2.0106,-1.9839,-1.9456,-1.9072,-1.9072,-1.9072,-1.9072,-1.815,-1.698,-1.5554,-1.4119,-1.2684,-1.138,-1.085,-1.0717,-1.0717,-1.0717,-1.0717,-1.0717,-1.0717,-1.0717,0.0,0.0,0.0,0.0,0.0,0.0,0.0,0.0,-1.1619,-1.1619,-1.1619,-1.1619,-1.1681,-1.1972,-1.206,-1.2128,-1.242,-1.2192,-1.1759,0.0,0.0,0.0,0.0,0.0,0.0,0.0,0.0,0.0,0.0,0.0,0.0,0.0,-1.084,-1.096,-1.1085,-1.1199,-1.1335,-1.1493,-1.1694,-1.1835,-1.1868,-1.2053,-1.2172,-1.2172,-1.2172,-1.2172,-1.2172,-1.2286,-1.2411,-1.2531,-1.2645,-1.2765,-1.2884,-1.289,-1.289,-1.289,-1.289,-1.289,-1.289,-1.289,-1.289,-1.289,-1.289,-1.289,-1.289,-1.289,-1.289,-1.289,-1.289,-1.289,-1.289,-1.289,-1.289,-1.289,0.0,0.0,0.0,0.0,0.0,0.0,0.0,0.0,0.0,0.0,0.0,0.0,0.0,0.0,0.0,0.0,0.0,0.0,-2.0106,-2.0106,-2.0106,-2.0106,-1.9711,-1.9456,-1.9072,-1.9072,-1.9072,-1.9072,-1.9072,-1.8419,-1.698,-1.5554,-1.4128,-1.2684,-1.1372,-1.0717,-1.0717,-1.0717,-1.0717,-1.0717,-1.0717,-1.0717,-1.0717,0.0,0.0,0.0,0.0,0.0,0.0,0.0,-1.1619,-1.1619,-1.1619,-1.1619,-1.1681,-1.1972,-1.206,-1.2128,-1.242,-1.2192,-1.1759,0.0,0.0,0.0,0.0,0.0,0.0,0.0,0.0,0.0,0.0,0.0,0.0,-1.0737,-1.084,-1.0965,-1.1085,-1.1199,-1.1362,-1.1607,-1.1743,-1.1862,-1.1976,-1.2102,-1.2172,-1.2172,-1.2172,-1.2172,-1.2172,-1.2286,-1.2411,-1.2531,-1.2645,-1.2765,-1.2884,-1.289,-1.289,-1.289,-1.289,-1.289,-1.289,-1.289,-1.289,-1.289,-1.289,-1.289,-1.289,-1.289,-1.289,-1.289,-1.289,-1.289,-1.289,-1.289,-1.289,-1.289,0.0,0.0,0.0,0.0,0.0,0.0,0.0,0.0,0.0,0.0,0.0,0.0,0.0,0.0,0.0,0.0,0.0,0.0,-1.9711,-1.9584,-1.9456,-1.9711,-1.9456,-1.92,-1.9072,-1.9072,-1.9072,-1.9072,-1.815,-1.7367,-1.698,-1.4511,-1.321,-1.2684,-1.1372,-1.0717,-1.0717,-1.0717,-1.0717,-1.0717,-1.0717,-1.0717,-1.0717,0.0,0.0,0.0,0.0,0.0,0.0,0.0,0.0,0.0,-1.1619,-1.1687,-1.1809,-1.2006,-1.2135,-1.2264,-1.2146,-1.1727,0.0,0.0,0.0,0.0,0.0,0.0,0.0,0.0,0.0,0.0,0.0,0.0,0.0,0.0,-1.0971,-1.109,-1.1204,-1.1324,-1.146,-1.1618,-1.1743,-1.1862,-1.1976,-1.2102,-1.2172,-1.2172,-1.2172,-1.2172,-1.2172,-1.2368,-1.2498,-1.2536,-1.2732,-1.2852,-1.289,-1.289,-1.289,-1.289,-1.289,-1.289,-1.289,-1.289,-1.289,-1.289,-1.289,-1.289,-1.289,-1.289,-1.289,-1.289,-1.289,-1.289,-1.289,-1.289,-1.289,-1.289,0.0,0.0,0.0,0.0,0.0,0.0,0.0,0.0,0.0,0.0,0.0,0.0,0.0,0.0,0.0,0.0,0.0,0.0,0.0,0.0,-1.92,-1.9584,-1.9328,-1.9072,-1.9072,-1.9072,-1.9072,-1.9072,-1.8291,-1.7893,-1.7765,-1.5544,-1.4119,-1.3604,-1.2165,-1.1247,-1.0717,-1.0717,-1.0717,-1.0717,-1.0717,-1.0717,-1.0717,0.0,0.0,0.0,0.0,0.0,0.0,0.0,0.0,0.0,-1.1619,-1.1714,-1.1864,-1.2013,-1.2169,-1.2166,-1.1998,-1.161,0.0,0.0,0.0,0.0,0.0,0.0,0.0,0.0,0.0,0.0,0.0,-1.0737,0.0,-1.09,-1.102,-1.1145,-1.1259,-1.1378,-1.152,-1.1688,-1.1775,-1.1884,-1.2047,-1.2129,-1.2172,-1.2172,-1.2172,-1.2172,-1.2172,-1.2401,-1.2536,-1.2536,-1.2765,-1.289,-1.289,-1.289,-1.289,-1.289,-1.289,-1.289,-1.289,-1.289,-1.289,-1.289,-1.289,-1.289,-1.289,-1.289,-1.289,-1.289,-1.289,-1.289,-1.289,-1.289,-1.289,-1.289,0.0,0.0,0.0,0.0,0.0,0.0,0.0,0.0,0.0,0.0,0.0,0.0,0.0,0.0,0.0,0.0,0.0,0.0,0.0,0.0,-1.92,-1.9571,-1.92,-1.9072,-1.9072,-1.9072,-1.9072,-1.9072,-1.9072,-1.9072,-1.9072,-1.7507,-1.6073,-1.4782,-1.3341,-1.1901,-1.0717,-1.0717,-1.0717,-1.0717,-1.0717,-1.0717,-1.0717,-1.0717,0.0,0.0,0.0,0.0,0.0,0.0,0.0,0.0,-1.1619,-1.1728,-1.1877,-1.202,-1.2182,-1.2186,-1.2004,0.0,0.0,0.0,0.0,0.0,0.0,0.0,0.0,0.0,0.0,-1.0737,-1.0737,-1.0737,-1.078,-1.0916,-1.1031,-1.1145,-1.127,-1.1384,-1.1547,-1.1792,-1.1819,-1.1911,-1.215,-1.2172,-1.2172,-1.2172,-1.2172,-1.2172,-1.2172,-1.2401,-1.2536,-1.2536,-1.2765,-1.289,-1.289,-1.289,-1.289,-1.289,-1.289,-1.289,-1.289,-1.289,-1.289,-1.289,-1.289,-1.289,-1.289,-1.289,-1.289,-1.289,-1.289,-1.289,-1.289,-1.289,-1.289,-1.289,0.0,0.0,0.0,0.0,0.0,0.0,0.0,0.0,0.0,0.0,0.0,0.0,0.0,0.0,0.0,0.0,0.0,0.0,0.0,0.0,-1.9072,-1.92,-1.92,-1.9072,-1.9072,-1.9072,-1.9072,-1.9072,-1.9072,-1.9072,-1.9072,-1.6473,-1.5173,-1.4782,-1.2297,-1.0982,-1.0717,-1.0717,-1.0717,-1.0717,-1.0717,-1.0717,-1.0717,-1.0717,-1.0812,0.0,0.0,0.0,0.0,0.0,0.0,0.0,-1.1619,-1.1803,-1.202,-1.2054,-1.225,-1.2306,-1.1566,-1.136,0.0,0.0,-1.0541,-1.0704,-1.0732,-1.0737,-1.0737,-1.0737,-1.0737,-1.0737,-1.0737,-1.0737,-1.0808,-1.1031,-1.1085,-1.1177,-1.1384,-1.1438,-1.1547,-1.1792,-1.1819,-1.1911,-1.215,-1.2172,-1.2172,-1.2172,-1.2172,-1.2172,-1.2172,-1.2401,-1.2536,-1.2536,-1.2765,-1.289,-1.289,-1.289,-1.289,0.0,-1.289,-1.289,-1.289,-1.289,-1.289,-1.289,-1.289,-1.289,-1.289,-1.289,-1.289,-1.289,-1.289,-1.289,-1.289,-1.289,-1.289,-1.289,0.0,0.0,0.0,0.0,0.0,0.0,0.0,0.0,0.0,0.0,0.0,0.0,0.0,0.0,0.0,0.0,0.0,0.0,0.0,0.0,0.0,-1.9072,-1.9072,-1.9072,-1.9072,-1.9072,-1.9072,-1.9072,-1.9072,-1.9072,-1.9072,-1.6861,-1.5554,-1.4782,-1.2684,-1.1372,-1.0717,-1.0717,-1.0717,-1.0717,-1.0717,-1.0717,-1.0731,-1.0799,-1.0786,-1.0796,-1.1219,0.0,0.0,0.0,0.0,0.0,0.0,0.0,-1.2074,-1.2149,-1.2172,-1.205,-1.1498,0.0,0.0,-1.0672,0.0,-1.0737,-1.0737,-1.0737,-1.0737,-1.0737,-1.0737,-1.0737,-1.0737,-1.0786,-1.0884,-1.1074,-1.115,-1.1248,-1.1427,-1.1455,-1.1547,-1.1792,-1.1819,-1.1911,-1.215,-1.2172,-1.2172,-1.2172,-1.2172,-1.2172,-1.2172,-1.2401,-1.2536,-1.2536,-1.2765,-1.289,-1.289,-1.289,-1.289,-1.289,-1.289,-1.289,-1.289,-1.289,-1.289,-1.289,-1.289,-1.289,-1.289,-1.289,-1.289,-1.289,-1.289,-1.289,-1.289,-1.289,-1.289,-1.289,0.0,0.0,0.0,0.0,0.0,0.0,0.0,0.0,0.0,0.0,0.0,0.0,0.0,0.0,0.0,0.0,0.0,0.0,0.0,0.0,0.0,-1.9072,-1.9072,-1.9072,-1.9072,-1.9072,-1.8944,-1.8688,-1.8688,0.0,0.0,0.0,-1.5944,-1.452,-1.3079,-1.1769,-1.0717,-1.0717,-1.0717,-1.0724,-1.0751,-1.0758,-1.0645,-1.0792,-1.0665,-1.0525,-1.1067,-1.1064,-1.1044,-1.1332,0.0,0.0,0.0,0.0,-1.2094,-1.2244,-1.2086,-1.1759,-1.1427,0.0,-1.0952,-1.0683,-1.0737,0.0,-1.0737,-1.0737,-1.0737,-1.0737,-1.0737,-1.0737,-1.0737,-1.0835,-1.096,-1.1085,-1.1199,-1.1313,-1.1438,-1.1455,-1.1547,-1.1792,-1.1819,-1.1911,-1.215,-1.2172,-1.2172,-1.2172,-1.2172,-1.2172,-1.2172,-1.2401,-1.2536,-1.2536,-1.2765,-1.289,-1.289,-1.289,-1.289,-1.289,-1.289,-1.289,-1.289,-1.289,-1.289,-1.289,-1.289,-1.289,-1.289,-1.289,-1.289,-1.289,-1.289,-1.289,-1.289,-1.289,-1.289,-1.289,0.0,0.0,0.0,0.0,0.0,0.0,0.0,0.0,0.0,0.0,0.0,0.0,0.0,0.0,0.0,0.0,0.0,0.0,-1.9072,0.0,0.0,-1.9072,-1.9072,-1.9072,-1.9072,-1.9072,-1.8547,-1.7238,0.0,0.0,0.0,0.0,0.0,-1.3079,0.0,-1.085,-1.0717,-1.0717,-1.0717,-1.0731,-1.0867,-1.065,-1.0393,-1.0528,-1.0531,-1.0235,-1.0395,-1.0637,-1.1044,-1.1044,-1.1332,0.0,0.0,0.0,-1.2094,-1.2244,-1.2086,-1.1759,0.0,0.0,-1.0727,0.0,-1.0737,-1.0737,0.0,0.0,-1.0737,0.0,-1.0737,-1.0737,-1.0737,-1.0835,-1.096,-1.1085,-1.1199,-1.1313,-1.1438,-1.1455,-1.1547,-1.1792,-1.1819,-1.1911,-1.215,-1.2172,-1.2172,-1.2172,-1.2172,-1.2172,-1.2172,-1.2401,-1.2536,-1.2536,-1.2765,-1.289,-1.289,-1.289,-1.289,-1.289,-1.289,-1.289,-1.289,-1.289,-1.289,-1.289,-1.289,-1.289,-1.289,-1.289,-1.289,-1.289,-1.289,-1.289,-1.289,-1.289,-1.289,-1.289,0.0,0.0,0.0,0.0,0.0,0.0,0.0,0.0,0.0,0.0,0.0,0.0,0.0,0.0,0.0,-1.9072,-1.9072,-1.9072,-1.9072,-1.9072,-1.9072,-1.9072,-1.9072,-1.9072,-1.9072,-1.9072,-1.8419,-1.698,0.0,0.0,0.0,-1.3735,-1.3341,0.0,0.0,0.0,-1.0724,-1.0812,-1.0712,-1.0591,-1.0736,-1.0659,-1.0535,-1.0398,-1.0352,-1.0272,-1.0345,-1.055,-1.075,-1.09,-1.1385,-1.1762,-1.1911,0.0,0.0,0.0,-1.1837,-1.1467,-1.1048,-1.0801,-1.0672,0.0,-1.0737,-1.0737,-1.0737,-1.0737,-1.0737,-1.0737,-1.0737,-1.0737,-1.0737,-1.0895,-1.1041,-1.1096,-1.1253,-1.1395,-1.1449,-1.1455,-1.1547,-1.1792,-1.1819,-1.1911,-1.215,-1.2172,-1.2172,-1.2172,-1.2172,-1.2172,-1.2172,-1.2401,-1.2536,-1.2536,-1.2765,-1.289,-1.289,-1.289,-1.289,-1.289,-1.289,-1.289,-1.289,-1.289,-1.289,-1.289,-1.289,-1.289,-1.289,-1.289,-1.289,-1.289,-1.289,-1.289,-1.289,-1.289,-1.289,-1.289,0.0,0.0,0.0,0.0,0.0,0.0,0.0,0.0,0.0,0.0,0.0,0.0,0.0,0.0,0.0,0.0,-1.9072,-1.9072,-1.9072,-1.9072,-1.9072,-1.9072,-1.9072,-1.9072,-1.9072,-1.8804,-1.7893,0.0,0.0,0.0,-1.2297,-1.2297,-1.232,0.0,-1.1171,0.0,0.0,0.0,0.0,-1.047,-1.0612,-1.0525,-1.0404,-1.026,-1.0025,-1.0037,-1.0132,-1.0311,-1.0455,-1.075,-1.1279,-1.171,-1.2013,-1.2169,0.0,0.0,0.0,0.0,0.0,0.0,-1.0737,-1.0737,-1.0737,-1.0737,0.0,0.0,-1.0737,0.0,-1.0737,-1.0737,-1.0737,-1.0938,-1.1101,-1.1101,-1.1302,-1.1455,-1.1455,-1.1455,-1.1547,-1.1792,-1.1819,-1.1911,-1.215,-1.2172,-1.2172,-1.2172,-1.2172,-1.2172,-1.2172,-1.2373,-1.2504,-1.2536,-1.2732,-1.2857,-1.289,-1.289,-1.289,-1.289,-1.289,-1.289,-1.289,-1.289,-1.289,-1.289,-1.289,-1.289,-1.289,-1.289,-1.289,-1.289,-1.289,-1.289,-1.289,-1.289,-1.289,-1.289,0.0,0.0,0.0,0.0,0.0,0.0,0.0,0.0,0.0,0.0,0.0,0.0,0.0,-1.9072,-1.9072,-1.9072,-1.9072,-1.9072,-1.9072,-1.9072,-1.9072,-1.9072,-1.9072,0.0,-1.9072,-1.7765,0.0,0.0,0.0,0.0,-1.085,-1.085,-1.0932,-1.0934,-1.0934,-1.0934,-1.0948,0.0,0.0,0.0,-1.0754,-1.0395,-0.97,-0.9821,-0.9723,-0.9296,-0.9302,0.0,0.0,0.0,0.0,0.0,-1.1864,-1.2169,-1.2318,0.0,0.0,0.0,0.0,-1.0639,0.0,-1.0737,-1.0737,-1.0737,0.0,0.0,-1.0737,-1.0737,-1.0737,-1.0737,-1.0737,-1.0938,-1.1101,-1.1101,-1.1302,-1.1455,-1.1455,-1.1455,-1.1547,-1.1792,-1.1819,-1.1911,-1.215,-1.2172,-1.2172,-1.2172,-1.2172,-1.2172,-1.2172,-1.2292,-1.2417,-1.2531,-1.2651,-1.277,-1.2884,-1.289,-1.289,-1.289,-1.289,-1.289,-1.289,-1.289,-1.289,-1.289,-1.289,-1.289,-1.289,-1.289,-1.289,-1.289,-1.289,-1.289,-1.289,-1.289,-1.289,-1.289,0.0,0.0,0.0,0.0,0.0,0.0,0.0,0.0,0.0,0.0,0.0,0.0,0.0,-1.699,-1.6343,-1.6343,-1.7249,-1.815,-1.9072,-1.9072,-1.9072,-1.9072,-1.9072,-1.8676,-1.7765,-1.7238,0.0,0.0,0.0,-1.2033,-1.0724,-1.0819,-1.0894,-1.0948,-1.0948,-1.1002,-1.1097,-1.0968,0.0,0.0,0.0,-1.0102,-0.9821,-0.9574,-0.959,0.0,0.0,0.0,0.0,0.0,0.0,0.0,0.0,0.0,0.0,0.0,0.0,0.0,0.0,0.0,0.0,-1.0737,-1.0737,-1.0737,-1.0737,-1.0737,-1.0737,-1.0737,-1.0737,-1.0737,-1.0737,-1.0938,-1.1101,-1.1101,-1.1302,-1.1455,-1.1455,-1.1455,-1.1547,-1.1792,-1.1819,-1.1911,-1.215,-1.2172,-1.2172,-1.2172,-1.2172,-1.2172,-1.2172,-1.2286,-1.2411,-1.2531,-1.2645,-1.2765,-1.2884,-1.289,-1.289,-1.289,-1.289,-1.289,-1.289,-1.289,-1.289,-1.289,-1.289,-1.289,-1.289,-1.289,-1.289,-1.289,-1.289,-1.289,-1.289,-1.289,-1.289,-1.289,0.0,0.0,0.0,0.0,0.0,0.0,0.0,0.0,0.0,0.0,0.0,0.0,0.0,0.0,-1.5043,-1.5554,-1.6073,-1.685,-1.8291,-1.7905,-1.7647,-1.7647,-1.7647,-1.7249,-1.6333,0.0,0.0,0.0,0.0,0.0,0.0,-1.09,-1.1002,-1.1097,-1.1097,-1.1151,0.0,0.0,0.0,-1.0333,0.0,0.0,-0.9735,0.0,0.0,0.0,0.0,0.0,0.0,0.0,0.0,0.0,0.0,0.0,0.0,0.0,0.0,0.0,-1.0606,0.0,0.0,0.0,-1.0737,-1.0737,-1.0737,-1.0737,-1.0737,-1.0737,-1.0737,-1.0737,-1.0737,-1.0905,-1.1052,-1.1096,-1.1302,-1.1455,-1.1455,-1.1455,-1.1547,-1.1792,-1.1819,-1.1911,-1.215,-1.2172,-1.2172,-1.2172,-1.2172,0.0,-1.2172,-1.2248,-1.2368,-1.2531,-1.2645,-1.2765,-1.2884,-1.289,-1.289,-1.289,-1.289,-1.289,-1.289,-1.289,-1.289,-1.289,-1.289,-1.289,-1.289,-1.289,-1.289,-1.289,-1.289,-1.289,-1.289,-1.289,-1.289,-1.289,0.0,0.0,0.0,0.0,0.0,0.0,0.0,0.0,0.0,0.0,0.0,0.0,0.0,0.0,0.0,-1.6721,-1.5684,-1.5424,-1.685,-1.5684,-1.4912,-1.4912,-1.4912,-1.4912,-1.4782,0.0,0.0,0.0,0.0,0.0,0.0,0.0,-1.1118,-1.1389,-1.1396,-1.1396,-1.1409,0.0,-1.075,-1.0455,0.0,-0.9596,-0.9307,0.0,0.0,0.0,-0.9497,-0.9574,0.0,-1.0127,0.0,0.0,0.0,0.0,0.0,0.0,0.0,0.0,0.0,0.0,0.0,-1.0737,-1.0737,-1.0737,-1.0737,-1.0737,-1.0737,-1.0737,-1.0737,-1.0737,-1.0737,-1.0835,-1.096,-1.1085,-1.1297,-1.1449,-1.1455,-1.1455,-1.1547,-1.1786,-1.1819,-1.1911,-1.2145,-1.2167,-1.2172,-1.2172,-1.2172,-1.2172,-1.2172,-1.2172,-1.2286,-1.2531,-1.2645,-1.2765,-1.2884,-1.289,-1.289,-1.289,-1.289,-1.289,-1.289,-1.289,-1.289,-1.289,-1.289,-1.289,-1.289,-1.289,-1.289,-1.289,-1.289,-1.289,-1.289,-1.289,-1.289,-1.289,0.0,0.0,0.0,0.0,0.0,0.0,-1.5424,0.0,0.0,0.0,0.0,0.0,0.0,0.0,-1.2421,-1.3857,-1.3604,-1.3988,-1.5424,-1.5173,-1.4912,-1.4912,-1.4912,-1.4381,-1.3341,0.0,0.0,0.0,0.0,0.0,0.0,0.0,0.0,0.0,-1.1504,-1.1558,-1.1558,-1.0875,0.0,-1.0462,-0.9837,-0.9584,0.0,0.0,0.0,0.0,0.0,-0.9764,-0.9802,0.0,-1.056,-1.0606,0.0,0.0,0.0,0.0,0.0,-1.0693,-1.0726,0.0,0.0,0.0,0.0,0.0,-1.0737,-1.0737,-1.0737,-1.0737,-1.0737,-1.0737,-1.0737,-1.0835,-1.096,-1.1085,-1.1226,-1.1351,-1.1444,-1.1455,-1.1514,-1.1667,-1.1764,-1.1879,-1.2025,-1.2118,-1.2172,0.0,-1.2172,-1.2172,-1.2172,-1.2254,-1.2373,-1.2531,-1.2645,-1.2765,-1.2884,-1.289,-1.289,-1.289,-1.289,-1.289,-1.289,-1.289,-1.289,-1.289,-1.289,-1.289,-1.289,-1.289,-1.289,-1.289,-1.289,-1.289,-1.289,-1.289,-1.289,-1.289,0.0,0.0,0.0,0.0,0.0,-1.3997,-1.3997,-1.3997,-1.3866,0.0,0.0,0.0,0.0,0.0,0.0,-1.2684,-1.2297,-1.2553,-1.3997,-1.3473,-1.3112,-1.3186,-1.3195,-1.2829,-1.2105,-1.2105,0.0,0.0,0.0,0.0,0.0,-1.1348,0.0,0.0,0.0,0.0,0.0,0.0,0.0,0.0,-0.9809,0.0,0.0,-0.9644,-0.9699,0.0,0.0,0.0,-0.9932,-1.0364,-1.0442,0.0,0.0,0.0,0.0,0.0,0.0,-1.0737,-1.0737,-1.0737,-1.0737,-1.0737,0.0,0.0,-1.0737,-1.0737,-1.0737,-1.0737,-1.0737,-1.0737,-1.0737,-1.0797,-1.09,-1.1074,-1.1156,-1.1259,-1.1433,-1.1455,-1.1498,-1.1623,-1.1699,-1.1808,-1.1971,-1.2053,-1.2118,-1.2167,-1.2172,-1.2172,-1.2172,-1.2237,-1.2335,-1.2455,-1.2574,-1.2689,-1.2808,-1.2863,-1.289,-1.289,-1.289,-1.289,-1.289,-1.289,-1.289,-1.289,-1.289,-1.289,-1.289,-1.289,-1.289,-1.289,-1.289,-1.289,-1.289,-1.289,-1.289,-1.289,0.0,0.0,-1.1115,-1.2289,-1.2553,-1.2553,-1.2553,-1.2553,-1.2165,0.0,0.0,0.0,0.0,0.0,0.0,0.0,-1.143,-1.1297,-1.2476,-1.143,-1.0833,-1.0968,-1.0968,-1.1029,-1.1158,-1.1165,-1.1172,0.0,0.0,0.0,0.0,0.0,-1.1491,0.0,0.0,0.0,0.0,0.0,0.0,-1.0564,-0.9944,-0.9688,0.0,0.0,-0.9769,-0.9862,-0.9873,-0.9949,-1.0057,-1.0182,-1.0302,0.0,0.0,0.0,0.0,0.0,-1.065,-1.0737,-1.0737,-1.0737,-1.0737,-1.0737,-1.0737,0.0,-1.0737,-1.0737,-1.0737,-1.0737,-1.0737,-1.0737,-1.0737,-1.0737,-1.0813,-1.1047,-1.1096,-1.1188,-1.1422,-1.1455,-1.1493,-1.1601,-1.1629,-1.1721,-1.1949,-1.1982,-1.2042,-1.2161,-1.2172,-1.2172,-1.2172,-1.2172,-1.2227,-1.2352,-1.246,-1.2574,-1.2705,-1.2814,-1.2873,-1.289,-1.289,-1.289,-1.289,-1.289,-1.289,-1.289,-1.289,-1.289,-1.289,-1.289,-1.289,-1.289,-1.289,-1.289,-1.289,-1.289,-1.289,-1.289,0.0,0.0,-1.085,-1.1115,-1.1115,-1.1115,-1.1115,-1.1115,-1.0982,0.0,0.0,0.0,0.0,0.0,0.0,0.0,-1.1214,-1.1214,-1.1481,-1.1214,-1.109,-1.1118,-1.1124,-1.1131,-1.1165,-1.1165,-1.1219,-1.1348,0.0,0.0,0.0,0.0,0.0,0.0,0.0,0.0,0.0,0.0,0.0,-1.0387,-0.9949,0.0,-0.9813,-0.9916,-0.9965,-0.9998,-1.0095,-1.0144,-1.0188,-1.0307,-1.0427,-1.0525,0.0,0.0,0.0,-1.0704,0.0,0.0,0.0,0.0,0.0,0.0,0.0,0.0,-1.0737,-1.0737,-1.0737,-1.0737,-1.0737,-1.0737,-1.0737,-1.0737,-1.0786,-1.0933,-1.1036,-1.1188,-1.1422,-1.1455,-1.1465,-1.1487,-1.1574,-1.1694,-1.1835,-1.1933,-1.2042,-1.2161,-1.2172,-1.2172,-1.2172,-1.2172,-1.2227,-1.2352,-1.2379,-1.2493,-1.2705,-1.2727,-1.2792,-1.289,-1.289,-1.289,-1.289,-1.289,-1.289,-1.289,-1.289,-1.289,-1.289,-1.289,-1.289,-1.289,-1.289,-1.289,-1.289,-1.289,-1.289,-1.289,0.0,-1.0717,-1.0717,-1.0717,-1.0717,-1.0717,-1.0717,-1.0785,0.0,0.0,0.0,0.0,0.0,0.0,0.0,0.0,0.0,-1.1165,-1.1165,-1.1165,-1.1199,-1.1274,-1.1274,-1.1314,-1.1389,-1.1389,-1.143,-1.1504,-1.1504,0.0,0.0,0.0,0.0,0.0,0.0,0.0,0.0,0.0,-1.0497,-1.0241,-0.9932,0.0,-0.9943,-1.0063,-1.0112,-1.0128,-1.0253,-1.0329,-1.0389,-1.0449,-1.0547,0.0,-1.0645,-1.0688,-1.0737,0.0,-1.0737,-1.0737,0.0,0.0,0.0,-1.0737,0.0,0.0,0.0,-1.0737,-1.0737,-1.0737,-1.0737,-1.0737,-1.0737,-1.0737,-1.0775,-1.09,-1.102,-1.1161,-1.134,-1.1417,-1.1455,-1.1455,-1.1509,-1.159,-1.1716,-1.1835,-1.1976,-1.2156,-1.2172,-1.2172,-1.2172,-1.2172,-1.2199,-1.2259,-1.2324,-1.2439,-1.2618,-1.2678,-1.2765,-1.289,-1.289,-1.289,-1.289,-1.289,-1.289,-1.289,-1.289,-1.289,-1.289,-1.289,-1.289,-1.289,-1.289,-1.289,-1.289,-1.289,-1.289,-1.289,-1.0717,0.0,-1.0717,-1.0717,-1.0744,-1.0765,-1.0765,-1.0894,0.0,0.0,0.0,0.0,0.0,0.0,0.0,0.0,0.0,0.0,0.0,0.0,-1.1307,-1.143,-1.1436,-1.1491,-1.1613,-1.1619,-1.1619,-1.1619,-1.1647,-1.166,-1.166,-1.1809,0.0,0.0,0.0,0.0,0.0,0.0,0.0,-1.0057,0.0,-1.0057,-1.0068,-1.0193,-1.0237,-1.0253,-1.0373,-1.0492,-1.059,-1.059,-1.0655,-1.0737,-1.0737,-1.0737,0.0,0.0,0.0,0.0,0.0,0.0,0.0,0.0,0.0,-1.0737,0.0,0.0,0.0,-1.0737,-1.0737,-1.0737,-1.0737,-1.0737,-1.077,-1.0867,-1.0987,-1.1107,-1.1221,-1.1346,-1.1427,-1.1455,-1.1455,-1.1504,-1.1623,-1.1764,-1.1933,-1.2123,-1.2161,-1.2172,-1.2172,-1.2172,-1.2172,-1.2172,-1.2265,-1.2379,-1.2498,-1.2613,-1.2732,-1.2852,-1.2879,-1.289,-1.289,-1.289,-1.289,-1.289,-1.289,-1.289,-1.289,-1.289,-1.289,-1.289,-1.289,-1.289,-1.289,-1.289,-1.289,-1.289,-1.0717,-1.0717,0.0,-1.0717,-1.0833,-1.0921,-1.0921,-1.1043,0.0,0.0,0.0,0.0,0.0,0.0,0.0,0.0,0.0,0.0,-1.1565,0.0,0.0,-1.1592,-1.1592,-1.1599,-1.1619,-1.1619,-1.1619,-1.1619,-1.1742,-1.1809,-1.1809,-1.1965,-1.1884,0.0,-1.1592,0.0,0.0,0.0,-1.0381,0.0,-1.0182,-1.0182,0.0,-1.0318,-1.0367,-1.0378,-1.0492,-1.0612,-1.0715,0.0,-1.0726,-1.0737,0.0,-1.0737,-1.0737,-1.0737,0.0,0.0,0.0,0.0,0.0,0.0,-1.0737,0.0,0.0,0.0,-1.0737,-1.0737,0.0,-1.0737,-1.0737,0.0,0.0,-1.0753,-1.0862,-1.0982,-1.1107,-1.1221,-1.1335,-1.1444,-1.1455,-1.1504,-1.1623,-1.1835,-1.1982,-1.2009,-1.2107,-1.2172,-1.2172,-1.2172,-1.2172,-1.2172,-1.2183,-1.2254,-1.2373,-1.2493,-1.2613,-1.2727,-1.2835,-1.289,-1.289,-1.289,-1.289,-1.289,-1.289,-1.289,-1.289,-1.289,-1.289,-1.289,-1.289,-1.289,-1.289,-1.289,-1.289,-1.289,-1.0867,-1.0853,0.0,-1.0962,-1.1029,-1.107,-1.107,-1.1199,0.0,0.0,0.0,0.0,0.0,0.0,0.0,0.0,0.0,-1.1653,0.0,0.0,0.0,-1.187,-1.1877,-1.1877,-1.1877,-1.1877,-1.1877,-1.1877,-1.1938,-1.1965,-1.1965,-1.1971,-1.1743,-1.1592,-1.1275,0.0,-1.0682,0.0,-1.0357,0.0,0.0,0.0,0.0,-1.0465,-1.053,-1.0596,-1.0645,-1.0693,-1.0737,0.0,-1.0737,0.0,0.0,0.0,0.0,-1.0737,0.0,0.0,0.0,0.0,0.0,0.0,0.0,0.0,-1.0737,0.0,-1.0737,0.0,0.0,0.0,0.0,0.0,0.0,0.0,-1.084,-1.0938,-1.0987,-1.1101,-1.1243,-1.1433,-1.1455,-1.1504,-1.1623,-1.1726,-1.1841,-1.1976,-1.2036,-1.2096,-1.2167,-1.2172,-1.2172,-1.2172,-1.2172,-1.2232,-1.2352,-1.2477,-1.2591,-1.2705,-1.283,-1.289,-1.289,-1.289,-1.289,-1.289,-1.289,-1.289,-1.289,-1.289,-1.289,-1.289,-1.289,-1.289,-1.289,-1.289,-1.289,-1.289,-1.1084,0.0,0.0,0.0,-1.1199,-1.124,-1.128,-1.1382,0.0,0.0,0.0,0.0,-1.1681,-1.1714,0.0,0.0,-1.1742,-1.1782,0.0,0.0,-1.1945,0.0,0.0,0.0,0.0,-1.206,-1.206,-1.206,-1.2101,-1.1971,-1.1978,-1.1669,-1.1581,-1.1434,0.0,-1.0588,-1.0679,0.0,-1.0324,-1.0438,-1.052,-1.0574,-1.0606,-1.0606,-1.0661,-1.0737,-1.0737,-1.0737,-1.0737,-1.0737,-1.0737,0.0,-1.0737,0.0,-1.0737,0.0,0.0,0.0,-1.0737,0.0,0.0,0.0,0.0,0.0,0.0,0.0,0.0,0.0,0.0,0.0,0.0,0.0,-1.0737,-1.0737,0.0,-1.0884,-1.0916,-1.0998,-1.1139,-1.1378,-1.1433,-1.1487,-1.158,-1.1618,-1.1705,-1.1879,-1.1949,-1.2025,-1.2118,-1.215,-1.2172,-1.2172,-1.2172,-1.2216,-1.2303,-1.2428,-1.2542,-1.2661,-1.2781,-1.2857,-1.289,-1.289,-1.289,-1.289,-1.289,-1.289,-1.289,-1.289,-1.289,-1.289,-1.289,-1.289,-1.289,-1.289,-1.289,-1.289,-1.1348,-1.126,0.0,0.0,0.0,-1.1436,0.0,0.0,0.0,0.0,0.0,0.0,0.0,0.0,0.0,0.0,0.0,-1.2047,-1.2054,0.0,-1.2054,0.0,0.0,-1.206,0.0,0.0,-1.206,-1.206,-1.1907,-1.1676,-1.1676,-1.1503,-1.1101,-1.0641,-1.0768,-1.0515,-1.021,-1.0329,-1.0443,-1.0552,-1.0552,-1.0628,-1.0732,0.0,-1.0732,-1.0737,-1.0737,0.0,0.0,-1.0737,-1.0737,0.0,0.0,0.0,0.0,0.0,0.0,0.0,0.0,0.0,0.0,-1.0737,0.0,0.0,0.0,0.0,-1.0737,0.0,0.0,0.0,0.0,0.0,-1.0737,-1.0737,-1.0737,0.0,0.0,-1.0922,-1.1014,-1.1248,-1.1384,-1.1455,-1.146,-1.1569,-1.1639,-1.1645,-1.1857,-1.1987,-1.1993,-1.2107,-1.2172,-1.2172,-1.2172,-1.2172,-1.2178,-1.2297,-1.2422,-1.2542,-1.2656,-1.277,-1.289,-1.289,-1.289,-1.289,-1.289,-1.289,-1.289,-1.289,-1.289,-1.289,-1.289,-1.289,-1.289,-1.289,-1.289,-1.289,0.0,0.0,0.0,0.0,0.0,0.0,0.0,-1.1701,0.0,0.0,0.0,0.0,0.0,-1.2033,-1.206,0.0,0.0,-1.1652,-1.1901,-1.1605,0.0,0.0,0.0,-1.1587,0.0,0.0,0.0,0.0,-1.1484,-1.1503,-1.1355,-1.1179,-1.0925,-1.0774,-1.0588,-1.0528,0.0,0.0,0.0,0.0,0.0,-1.0699,-1.0737,0.0,-1.0737,-1.0737,-1.0737,-1.0737,0.0,-1.0737,-1.0737,-1.0737,-1.0737,-1.0737,-1.0737,-1.0737,-1.0737,0.0,0.0,0.0,-1.0737,-1.0737,0.0,0.0,0.0,0.0,0.0,0.0,0.0,0.0,0.0,0.0,-1.0737,-1.0737,-1.0737,-1.0753,0.0,-1.0867,-1.0976,-1.1139,-1.1335,-1.1455,-1.1455,-1.1493,-1.1547,-1.1629,-1.1786,-1.1911,-1.1982,-1.2107,-1.2172,-1.2172,-1.2172,-1.2172,-1.2172,-1.2292,-1.2373,-1.2417,-1.2613,-1.2727,-1.277,-1.2852,-1.289,-1.289,-1.289,-1.289,-1.289,-1.289,-1.289,-1.289,-1.289,-1.289,-1.289,-1.289,-1.289,-1.289,-1.1619,0.0,0.0,0.0,0.0,0.0,0.0,0.0,0.0,0.0,-1.1898,0.0,-1.1691,0.0,-1.1914,0.0,-1.1611,-1.1365,-1.1509,-1.1318,0.0,-1.1329,-1.1286,0.0,0.0,0.0,0.0,0.0,0.0,-1.1252,-1.1252,-1.0866,-1.0588,-1.0594,-1.0556,-1.0487,-1.0558,-1.0601,-1.0666,0.0,0.0,-1.0737,0.0,0.0,-1.0737,-1.0737,0.0,-1.0737,-1.0737,-1.0737,-1.0737,-1.0737,-1.0737,-1.0737,-1.0737,-1.0737,-1.0737,-1.0737,-1.0737,-1.0737,0.0,-1.0737,-1.0737,0.0,-1.0737,0.0,-1.0737,0.0,0.0,0.0,0.0,0.0,-1.0737,-1.0737,-1.0737,-1.0737,0.0,-1.084,-1.0965,-1.109,-1.1275,-1.1406,-1.1449,-1.1455,-1.1487,-1.1569,-1.1688,-1.1803,-1.1922,-1.2042,-1.2129,-1.2172,-1.2172,-1.2172,-1.2172,-1.2248,-1.2308,-1.2357,-1.2553,-1.2667,-1.271,-1.283,-1.289,-1.289,-1.289,-1.289,-1.289,-1.289,-1.289,-1.289,-1.289,-1.289,-1.289,-1.289,-1.289,-1.289,0.0,0.0,0.0,0.0,-1.1755,0.0,0.0,0.0,-1.1925,0.0,-1.1901,-1.1993,-1.1079,-1.1497,-1.1727,-1.1268,-1.1274,-1.1329,-1.1306,-1.1354,0.0,0.0,-1.1354,-1.1341,-1.1318,0.0,0.0,0.0,0.0,0.0,-1.1028,-1.055,-1.0394,-1.04,-1.0514,-1.0563,-1.0574,-1.0688,-1.0737,-1.0737,-1.0737,-1.0737,-1.0737,-1.0737,-1.0737,-1.0737,-1.0737,-1.0737,-1.0737,-1.0737,-1.0737,-1.0737,-1.0737,-1.0737,-1.0737,-1.0737,-1.0737,-1.0737,-1.0737,-1.0737,-1.0737,-1.0737,0.0,0.0,0.0,0.0,-1.0742,0.0,0.0,0.0,0.0,0.0,-1.0742,-1.0737,-1.0737,-1.0737,-1.0737,-1.0835,-1.096,-1.1085,-1.1199,-1.1313,-1.1444,-1.1455,-1.1455,-1.1455,-1.1569,-1.1688,-1.1813,-1.1928,-1.2047,-1.2167,-1.2172,-1.2172,-1.2172,-1.2172,-1.2232,-1.2346,-1.2477,-1.2591,-1.27,-1.283,-1.289,-1.289,-1.289,-1.289,-1.289,-1.289,-1.289,-1.289,-1.289,-1.289,-1.289,-1.289,-1.289,-1.289,-1.1945,-1.1952,-1.1797,0.0,-1.1831,-1.1851,0.0,0.0,0.0,0.0,-1.144,-1.1522,-1.1213,-1.1399,-1.146,-1.1403,-1.11,0.0,0.0,0.0,0.0,-1.0661,-1.0627,-1.0627,-1.0661,-1.0661,0.0,-1.0706,0.0,0.0,-1.055,-1.0471,-1.0514,-1.052,-1.0639,-1.0688,-1.0693,-1.0726,-1.0737,-1.0737,-1.0737,-1.0737,-1.0737,0.0,-1.0737,-1.0737,-1.0737,-1.0737,-1.0737,-1.0737,-1.0737,-1.0737,-1.0737,-1.0737,-1.0737,-1.0737,-1.0737,-1.0737,-1.0737,-1.0737,-1.0737,-1.0737,-1.0737,-1.0737,0.0,0.0,0.0,0.0,0.0,0.0,0.0,0.0,0.0,-1.0753,-1.0737,-1.0737,-1.0737,-1.0764,-1.0862,-1.1079,-1.1128,-1.1226,-1.1433,-1.1455,-1.1455,-1.1455,-1.1569,-1.1688,-1.1813,-1.1928,-1.2047,-1.2167,-1.2172,-1.2172,-1.2172,-1.2172,-1.2188,-1.2221,-1.2433,-1.2553,-1.2585,-1.2792,-1.289,-1.289,-1.289,-1.289,-1.289,-1.289,-1.289,-1.289,-1.289,-1.289,-1.289,-1.289,-1.289,-1.289,-1.1463,0.0,0.0,-1.1258,0.0,0.0,-1.1265,0.0,0.0,-1.0928,-1.1149,0.0,-1.096,-1.1124,-1.1154,-1.0912,-1.0759,0.0,-1.0773,0.0,0.0,-1.046,-1.0411,-1.0411,-1.046,-1.046,0.0,-1.0541,0.0,-1.0541,-1.0541,-1.0606,-1.0634,-1.0639,-1.0704,-1.0737,-1.0737,-1.0737,-1.0737,-1.0737,-1.0737,-1.0737,0.0,-1.0737,-1.0737,-1.0742,-1.0797,-1.078,-1.0737,-1.0737,-1.0737,-1.0748,-1.0802,-1.0819,-1.0829,-1.0878,-1.0895,-1.0895,-1.0895,-1.0895,-1.0895,-1.0895,-1.0895,-1.0895,-1.0895,-1.0949,-1.0998,0.0,-1.1052,-1.1079,0.0,0.0,0.0,-1.0911,-1.0895,-1.0895,-1.0895,-1.0895,-1.0965,-1.1156,-1.1177,-1.1248,-1.1438,-1.1455,-1.1455,-1.1455,-1.152,-1.1634,-1.1808,-1.1879,-1.1993,-1.2167,-1.2172,-1.2172,-1.2172,-1.2172,-1.2172,-1.2172,-1.2362,-1.2482,-1.2542,-1.2727,-1.2835,-1.289,-1.289,-1.289,-1.289,-1.289,-1.289,-1.289,-1.289,-1.289,-1.289,-1.289,-1.289,-1.289,0.0,0.0,0.0,0.0,0.0,0.0,0.0,-1.1071,0.0,-1.0843,0.0,-1.106,-1.0534,-1.0706,-1.0711,-1.0405,0.0,-1.0454,-1.0574,-1.0487,-1.0476,-1.0574,-1.0487,-1.0476,-1.0579,-1.0579,-1.0628,0.0,0.0,-1.0737,-1.0737,-1.0737,-1.0737,-1.0737,-1.0737,-1.0737,-1.0737,-1.0737,-1.0737,-1.0737,-1.0737,-1.0737,-1.0737,-1.0753,-1.0759,-1.0775,-1.09,-1.0862,-1.0764,-1.078,-1.0786,-1.0802,-1.0911,-1.0944,-1.0965,-1.1074,-1.1101,-1.1101,-1.1101,-1.1101,-1.1101,-1.1101,-1.1101,-1.1101,-1.1101,-1.1112,-1.1123,-1.1123,-1.1139,-1.1145,0.0,0.0,0.0,-1.1101,-1.1101,0.0,0.0,0.0,-1.1145,-1.1259,-1.127,0.0,-1.1444,-1.1455,-1.1455,-1.1455,-1.1455,-1.1563,-1.1808,0.0,-1.1928,-1.2167,-1.2172,-1.2172,-1.2172,-1.2172,-1.2172,-1.2172,-1.2297,-1.2417,-1.2542,-1.2651,-1.277,-1.289,-1.289,-1.289,-1.289,-1.289,-1.289,-1.289,-1.289,-1.289,-1.289,-1.289,-1.289,-1.289,0.0,0.0,0.0,0.0,0.0,-1.0832,-1.0599,-1.0696,-1.0849,-1.0495,-1.0512,-1.0523,-1.0384,-1.0384,-1.0583,-1.052,-1.0525,0.0,0.0,0.0,0.0,-1.0704,-1.0688,-1.0683,-1.0704,-1.0704,-1.0715,0.0,-1.0737,-1.0737,-1.0737,-1.0737,-1.0737,-1.0737,-1.0737,-1.0737,-1.0737,-1.0737,0.0,-1.0737,-1.0737,-1.0737,-1.0748,-1.0851,-1.0889,-1.0905,-1.1025,-1.0992,-1.09,-1.1003,-1.1036,-1.1041,-1.1063,-1.1069,-1.1074,-1.1096,-1.1101,-1.1101,-1.1101,-1.1101,-1.1101,-1.1101,-1.1101,-1.1101,-1.1101,-1.1177,-1.1243,-1.1243,-1.1324,-1.1362,-1.1259,0.0,0.0,0.0,0.0,0.0,0.0,0.0,-1.1145,-1.1259,-1.127,-1.1319,-1.1444,-1.1455,-1.1455,-1.1455,-1.1455,-1.1563,-1.1808,0.0,-1.1928,0.0,-1.2172,-1.2172,0.0,0.0,-1.2172,-1.2172,-1.2297,-1.2417,-1.2542,-1.2651,-1.277,-1.289,-1.289,-1.289,-1.289,-1.289,-1.289,-1.289,-1.289,-1.289,-1.289,-1.289,-1.289,-1.289,0.0,0.0,0.0,0.0,0.0,0.0,0.0,-1.0583,0.0,-1.0465,-1.0476,-1.0498,-1.0563,-1.0568,-1.059,-1.0645,-1.065,-1.0672,-1.0732,-1.0737,-1.0737,-1.0737,-1.0737,-1.0737,-1.0737,-1.0737,-1.0737,-1.0737,-1.0737,-1.0737,-1.0737,-1.0737,-1.0737,-1.0737,-1.0737,-1.0737,-1.0737,0.0,0.0,-1.0742,-1.0808,-1.0829,-1.0846,-1.0965,-1.1014,-1.1031,-1.1156,-1.1166,-1.1118,-1.1118,-1.1112,-1.1118,-1.1183,-1.1199,-1.1204,-1.1264,-1.1286,-1.1286,-1.1286,-1.1286,-1.1286,-1.1286,-1.1286,-1.1286,-1.1286,-1.133,-1.1368,-1.1368,-1.1417,-1.1438,-1.1378,-1.1324,0.0,0.0,0.0,0.0,0.0,0.0,-1.1308,-1.1362,-1.1368,-1.1389,-1.1449,-1.1455,-1.1455,-1.1455,-1.1455,-1.1563,-1.1808,0.0,-1.1928,0.0,0.0,0.0,-1.2172,0.0,-1.2172,-1.2172,-1.2232,-1.2324,-1.2444,-1.2564,-1.2683,-1.2797,-1.2857,-1.289,-1.289,-1.289,-1.289,-1.289,-1.289,-1.289,-1.289,-1.289,-1.289,-1.289,0.0,-1.0384,0.0,0.0,-1.0422,0.0,-1.0574,-1.0596,-1.0596,-1.0596,-1.0596,-1.0628,-1.0726,-1.0737,-1.0737,-1.0737,-1.0737,-1.0737,-1.0737,-1.0737,-1.0737,-1.0737,-1.0737,-1.0737,-1.0737,-1.0737,-1.0737,0.0,0.0,-1.0737,-1.0737,-1.0737,-1.0737,-1.0737,-1.0737,0.0,0.0,0.0,-1.0775,-1.0786,-1.0911,-1.096,-1.0971,-1.1096,-1.1145,-1.1161,-1.1297,-1.0807,-1.0078,-1.0888,-1.0672,-1.0145,-1.0957,-1.133,-1.1335,-1.1433,-1.146,-1.1455,-1.1455,-1.1455,-1.1455,-1.1455,-1.1455,-1.1455,-1.1455,-1.1455,-1.1455,-1.1455,-1.1455,-1.1455,-1.1455,-1.1455,0.0,0.0,0.0,0.0,0.0,0.0,-1.1455,-1.1455,-1.1455,-1.1455,-1.1455,-1.1455,-1.1455,-1.1455,-1.1455,-1.1563,-1.1808,0.0,0.0,0.0,0.0,-1.2172,-1.2172,0.0,-1.2172,-1.2172,-1.2172,-1.2237,-1.2357,-1.2482,-1.2596,-1.271,-1.2835,-1.289,-1.289,-1.289,-1.289,-1.289,-1.289,-1.289,-1.289,-1.289,-1.289,-1.289,0.0,0.0,0.0,0.0,0.0,0.0,-1.0704,-1.0721,-1.0721,-1.0721,-1.0721,-1.0726,-1.0737,-1.0737,-1.0737,-1.0737,-1.0737,-1.0737,-1.0737,-1.0737,-1.0737,-1.0737,-1.0737,-1.0737,-1.0737,-1.0737,-1.0737,0.0,0.0,-1.0737,-1.0737,-1.0737,-1.0737,-1.0737,0.0,0.0,0.0,-1.0857,-1.09,-1.0911,-1.1036,-1.1085,-1.1101,-1.1232,-1.1105,-1.1297,-1.1438,-0.9134,-0.6793,-1.0228,-0.9134,-0.6783,-1.0397,-1.1476,-1.1465,-1.1476,-1.1471,-1.1455,-1.1455,-1.1455,-1.1455,-1.1455,-1.1455,-1.1455,-1.1455,-1.1455,-1.1455,-1.1455,-1.1455,-1.1455,-1.1455,-1.1455,-1.1455,0.0,0.0,0.0,0.0,0.0,-1.1455,-1.1455,-1.1455,-1.1455,-1.1455,-1.1455,-1.1455,-1.1455,-1.1455,-1.1563,0.0,0.0,0.0,-1.2167,-1.2172,-1.2172,-1.2172,-1.2172,-1.2172,-1.2172,-1.2172,-1.2237,-1.2357,-1.2482,-1.2596,-1.271,-1.2835,-1.289,-1.289,-1.289,-1.289,-1.289,-1.289,-1.289,-1.289,-1.289,-1.289,-1.289,0.0,0.0,0.0,0.0,0.0,0.0,0.0,-1.0737,-1.0737,-1.0737,-1.0737,-1.0737,-1.0737,-1.0737,-1.0737,-1.0737,-1.0737,-1.0737,-1.0737,-1.0737,-1.0737,-1.0737,-1.0737,-1.0737,-1.0737,-1.0737,-1.0737,0.0,0.0,-1.0737,-1.0737,-1.0737,-1.0737,-1.0737,0.0,-1.0846,-1.0857,-1.0976,-1.1031,-1.1041,-1.1156,-1.121,-1.1232,-1.1362,-0.9973,-0.8199,-1.067,-1.0535,-0.9445,-1.1003,-0.8898,-0.5554,-0.4871,-0.6867,-0.959,-1.1128,-1.1688,-1.1672,-1.1672,-1.1672,-1.1672,-1.1672,-1.1672,-1.1672,-1.1672,-1.1672,-1.1672,-1.1672,-1.1612,-1.1542,-1.1471,-1.1455,-1.1455,-1.1455,0.0,0.0,0.0,0.0,-1.1455,-1.1455,-1.1455,-1.1455,-1.1455,-1.1455,-1.1455,-1.1455,-1.1455,-1.1531,0.0,0.0,0.0,-1.2058,0.0,-1.2172,-1.2172,-1.2172,-1.2172,-1.2172,-1.2172,-1.2199,-1.2254,-1.2444,-1.264,-1.2819,-1.2868,-1.289,-1.289,-1.289,-1.289,-1.289,-1.289,-1.289,-1.289,-1.289,-1.289,-1.289,-1.0737,0.0,-1.0737,0.0,-1.0737,-1.0748,-1.0786,-1.0791,-1.0802,-1.084,-1.0846,-1.0829,-1.0797,-1.0824,-1.0846,-1.0846,-1.0846,-1.0846,-1.0846,-1.0846,-1.0846,-1.0846,-1.0846,0.0,-1.0846,-1.0846,-1.0846,-1.0846,-1.0846,0.0,0.0,-1.0846,0.0,0.0,-1.0933,-1.0971,-1.0982,-1.1101,-1.115,-1.1161,-1.1286,-1.134,-1.1368,-1.1504,-0.9738,-0.7398,-0.8038,-0.9551,-1.1237,-0.8897,-0.6238,-0.3619,-0.0912,-0.2556,-0.6398,-1.0533,-1.1846,-1.183,-1.183,-1.1824,-1.1819,-1.1819,-1.1819,-1.1819,-1.1819,-1.1819,-1.1819,-1.1819,-1.1748,-1.1661,-1.158,-1.1563,-1.1552,-1.1514,0.0,0.0,0.0,-1.1455,-1.1455,-1.1455,-1.1455,-1.1455,-1.1455,-1.1455,-1.1455,-1.1455,-1.1487,0.0,0.0,0.0,0.0,0.0,0.0,0.0,-1.2172,-1.2172,-1.2172,-1.2172,-1.2172,-1.2172,-1.2178,-1.2422,-1.2661,-1.289,-1.289,-1.289,-1.289,-1.289,-1.289,-1.289,-1.289,-1.289,-1.289,-1.289,-1.2868,-1.2835,-1.0737,-1.0737,-1.0737,-1.0737,-1.0737,-1.0775,-1.09,-1.0916,-1.096,-1.1085,-1.1101,-1.1052,-1.0933,-1.1025,-1.1101,-1.1101,-1.1101,-1.1101,-1.1101,-1.1101,-1.1101,0.0,0.0,-1.1101,-1.1101,-1.1101,-1.1101,-1.1101,0.0,0.0,-1.1101,0.0,-1.1101,-1.1101,-1.1101,-1.1101,-1.1107,-1.1221,-1.127,-1.1281,-1.1422,-1.1482,-1.1498,-1.1475,-1.1534,-1.0436,-0.2767,-0.5006,-1.0421,-0.278,-0.0185,-0.0,-0.0,-0.0,-0.1663,-0.9838,-1.2063,-1.1846,-1.1846,-1.1835,-1.1819,-1.1819,-1.1819,-1.1819,-1.1819,-1.1819,-1.1819,-1.1819,-1.1819,-1.1819,-1.1813,-1.1813,-1.1775,-1.165,0.0,0.0,0.0,-1.1455,-1.1455,-1.1455,-1.1455,-1.1455,-1.1455,-1.1455,-1.1455,-1.1455,0.0,0.0,0.0,0.0,0.0,-1.2161,-1.2172,0.0,-1.2172,-1.2172,-1.2172,-1.2172,-1.2172,-1.2172,-1.2178,-1.2422,-1.2661,-1.289,-1.289,-1.289,-1.289,-1.289,-1.289,-1.289,-1.289,-1.289,-1.289,-1.289,-1.2814,-1.2705,-1.0775,-1.0672,-1.0725,-1.0884,-1.0949,-1.0843,-1.0886,-1.1052,-1.1069,-1.1134,-1.1194,-1.1052,-1.1025,-1.0977,-1.095,0.0,-1.1123,-1.1128,0.0,-1.1128,-1.1128,-1.1139,-1.1139,-1.1139,-1.1139,-1.1139,-1.1134,-1.1123,0.0,0.0,0.0,-1.1101,-1.1101,-1.1107,-1.1183,-1.1221,-1.1226,-1.1346,-1.1406,-1.1427,-1.1552,-1.1437,-1.1475,-1.142,-0.8305,-0.3322,-0.0932,-0.1498,-0.3374,-0.0755,0.0,0.0,0.0,0.0,-0.0561,-0.32,-0.5845,-0.8485,-1.1324,-1.208,-1.208,-1.208,-1.208,-1.208,-1.2096,-1.2085,-1.2053,-1.1955,-1.1933,-1.1911,-1.1835,-1.1819,-1.1808,-1.1764,-1.1759,0.0,-1.171,0.0,-1.1672,-1.159,-1.158,-1.158,-1.158,-1.158,-1.1612,-1.1699,0.0,0.0,0.0,0.0,0.0,0.0,-1.2129,0.0,-1.2172,-1.2172,-1.2172,-1.2172,-1.2172,-1.2216,-1.2303,-1.246,-1.2618,-1.277,-1.2852,-1.289,-1.289,-1.289,-1.289,-1.289,-1.289,-1.2835,-1.2765,-1.2765,-1.2689,-1.2591,-0.8692,-0.874,-0.8779,-0.8941,-1.0042,-1.0982,-1.102,-0.9783,-0.9444,-1.11,-0.9945,-0.9104,-0.9113,-1.0352,0.0,-0.9145,-0.914,-0.9674,-1.1111,-0.9854,-0.8965,-0.9154,-0.9154,-0.9154,-0.9154,-0.9154,0.0,-0.914,-1.0559,-1.127,-1.1253,-1.1248,-1.1243,-1.1248,-1.1313,-1.134,-1.1351,-1.1476,-1.1542,-1.1563,-1.1512,-1.1582,-1.1242,-0.8362,-0.4285,0.0,0.0,0.0,0.0,0.0,0.0,0.0,0.0,0.0,0.0,0.0,-0.1903,-0.4943,-1.0678,-1.2216,-1.221,-1.221,-1.1052,-1.009,-1.0479,-1.1436,-1.2172,-1.2074,-1.2058,-1.2036,-1.1966,-1.1949,-1.1938,-1.1889,-1.1884,-1.1868,-1.1824,-1.1819,-1.1792,-1.1716,-1.1705,0.0,0.0,-1.1705,-1.1737,0.0,0.0,0.0,0.0,0.0,0.0,-1.2058,-1.2134,-1.2172,-1.2172,-1.2172,-1.2172,-1.2172,-1.2172,-1.2237,-1.2357,-1.2433,-1.2553,-1.271,-1.2786,-1.2846,-1.2884,-1.2841,-1.2819,-1.2814,-1.277,-1.271,-1.264,-1.264,-1.2569,-1.2466,-0.5031,-0.5033,-0.5038,0.0,-0.8011,0.0,-1.0978,-0.7956,-0.6738,-1.0247,-0.7975,-0.6007,-0.5644,-0.9215,-1.0128,-0.6473,0.0,0.0,0.0,-0.7904,-0.592,-0.538,-0.538,-0.538,-0.538,-0.5378,-0.5373,-0.5368,-0.9152,-1.1146,-1.1146,-1.1136,-1.1314,-1.1493,-1.1487,-1.1482,-1.1487,-1.1437,-1.131,-1.1139,-1.1478,-1.1166,-0.9861,-0.2812,0.0,0.0,0.0,0.0,0.0,0.0,0.0,0.0,0.0,0.0,0.0,0.0,0.0,-0.1713,-0.9357,-1.1852,-1.2227,-1.2227,-0.8952,-0.6082,-0.7217,-0.9892,-1.2199,-1.2178,-1.2172,-1.2172,-1.2172,-1.2172,-1.2134,-1.202,-1.1998,-1.1966,-1.1857,-1.1841,-1.1841,-1.183,0.0,0.0,-1.183,-1.183,-1.1835,0.0,0.0,0.0,0.0,0.0,-1.2053,-1.2167,-1.2172,-1.2172,-1.2172,-1.2172,-1.2172,-1.2172,-1.2172,-1.2232,-1.2341,-1.2352,-1.2471,-1.2683,-1.2689,-1.2759,-1.2852,-1.2738,-1.2694,-1.2683,-1.2574,-1.2531,-1.2526,-1.2526,-1.2444,-1.2341,0.0,0.0,-0.1231,-0.1229,-0.1945,-0.4642,-1.051,-0.814,-0.4894,-0.2935,-0.7003,-0.9053,-0.6092,-0.909,-1.1146,-1.0156,-0.4775,-0.1651,-0.2572,-0.7357,-0.7541,-0.1654,-0.1286,-0.1286,-0.1286,-0.1276,-0.1265,-0.1432,-0.5191,-0.6984,-0.6988,-0.7041,-0.8701,-1.1629,-1.1716,-1.1743,-1.1737,-1.1598,-0.9945,-0.7371,-1.0282,-0.8068,-0.2438,-0.0758,0.0,0.0,0.0,0.0,0.0,0.0,0.0,0.0,0.0,0.0,0.0,0.0,0.0,-0.0381,-0.2284,-0.7436,-1.2248,-1.2248,-0.6868,-0.1524,-0.1902,-0.7239,-1.2237,-1.2216,-1.2199,-1.2194,-1.2194,-1.2183,-1.2161,-1.2134,-1.2129,-1.2118,-1.2091,-1.2091,-1.2053,0.0,-1.1949,-1.1949,-1.1949,-1.1949,-1.1987,0.0,0.0,-1.2129,-1.2129,-1.2129,-1.214,-1.2172,-1.2172,-1.2172,-1.2172,-1.2172,-1.2172,-1.2172,-1.2172,-1.2188,-1.2216,-1.2314,-1.2384,-1.2444,-1.2536,-1.2591,-1.2618,-1.2585,-1.2574,-1.2574,-1.2547,-1.2477,-1.2395,-1.2395,-1.2319,-1.2216,0.0,0.0,0.0,0.0,0.0,-0.1458,-0.5689,-0.4404,-0.2388,-0.0185,-0.6703,-0.9356,-0.3733,-0.5061,-0.621,-0.621,-0.2419,0.0,0.0,-0.3889,-0.4444,-0.0185,0.0,0.0,0.0,0.0,0.0,-0.0,-0.1999,-0.3089,-0.3089,-0.3105,-0.421,-0.6595,-1.0151,-1.1851,-1.1851,-1.1737,-1.0264,-0.8211,-0.6792,-0.3786,0.0,0.0,0.0,0.0,0.0,0.0,0.0,0.0,0.0,0.0,0.0,0.0,0.0,0.0,0.0,0.0,0.0,-0.324,-0.6681,-0.6681,-0.3244,0.0,0.0,-0.3426,-0.7242,-0.8956,-0.9332,-0.9901,-1.1815,-1.2188,-1.2183,-1.2172,-1.2172,-1.2172,-1.2172,-1.2172,-1.2145,-1.208,-1.2069,-1.2069,-1.2069,-1.2069,-1.2102,-1.2167,-1.2172,0.0,-1.2172,-1.2172,-1.2172,-1.2172,-1.2172,-1.2172,-1.2172,-1.2172,-1.2172,-1.2172,-1.2172,-1.2172,-1.2172,-1.2243,-1.2303,-1.2357,-1.2422,-1.2482,-1.2531,-1.2477,-1.2455,-1.2449,-1.239,-1.233,-1.227,-1.227,-1.2227,-1.2172,0.0,0.0,0.0,0.0,0.0,0.0,0.0,0.0,0.0,0.0,-0.5633,-0.7181,-0.0754,0.0,0.0,0.0,0.0,0.0,0.0,0.0,0.0,0.0,0.0,0.0,0.0,0.0,0.0,0.0,0.0,0.0,0.0,0.0,0.0,-0.037,-0.7055,-1.0426,-1.0991,-1.1486,-1.1538,-1.0973,-0.3043,0.0,0.0,0.0,0.0,0.0,0.0,0.0,0.0,0.0,0.0,0.0,0.0,0.0,0.0,0.0,0.0,0.0,0.0,0.0,0.0,0.0,0.0,0.0,0.0,0.0,-0.0951,-0.4375,-0.5133,-0.6464,-1.0474,-1.1815,-1.2194,-1.2172,-1.2172,-1.2172,-1.2172,0.0,-1.2172,-1.2172,-1.2172,-1.2172,-1.2172,-1.2172,-1.2172,-1.2172,-1.2172,-1.2172,-1.2172,-1.2172,-1.2172,-1.2172,-1.2172,-1.2172,-1.2172,-1.2172,-1.2172,-1.2172,-1.2172,-1.2172,-1.2172,-1.2172,-1.2227,-1.2324,-1.2324,-1.2384,-1.2471,-1.2368,-1.2324,-1.2319,-1.221,-1.2172,-1.2172,-1.2172,-1.2172,-1.2172,0.0,0.0,0.0,0.0,0.0,0.0,0.0,0.0,0.0,0.0,-0.0951,-0.1333,-0.019,0.0,0.0,0.0,0.0,0.0,0.0,0.0,0.0,0.0,0.0,0.0,0.0,0.0,0.0,0.0,0.0,0.0,0.0,0.0,0.0,-0.0,-0.1321,-0.3786,-0.7197,-1.0668,-1.2037,-1.1457,-0.3242,0.0,0.0,0.0,0.0,0.0,0.0,0.0,0.0,0.0,0.0,0.0,0.0,0.0,0.0,0.0,0.0,0.0,0.0,0.0,0.0,0.0,0.0,0.0,0.0,0.0,-0.0191,-0.0763,-0.0952,-0.2281,-0.6274,-0.9896,-1.2194,-1.2172,-1.2172,-1.2172,-1.2172,0.0,-1.2172,-1.2172,-1.2172,-1.2172,-1.2172,-1.2172,-1.2172,-1.2172,-1.2172,-1.2172,-1.2172,-1.2172,-1.2172,-1.2172,-1.2172,-1.2172,-1.2172,-1.2172,-1.2172,-1.2172,-1.2172,-1.2172,-1.2172,-1.2172,-1.2183,-1.2199,-1.2199,-1.221,-1.2227,-1.221,-1.2199,-1.2199,-1.2178,-1.2172,-1.2172,-1.2172,-1.2172,-1.2172,0.0,0.0,0.0,0.0,0.0,0.0,0.0,0.0,0.0,0.0,0.0,0.0,0.0,0.0,0.0,0.0,0.0,0.0,0.0,0.0,0.0,0.0,0.0,0.0,0.0,0.0,0.0,0.0,0.0,0.0,0.0,0.0,0.0,0.0,0.0,-0.1143,-0.2857,-0.4768,-0.5535,-0.5344,-0.1526,0.0,0.0,0.0,0.0,0.0,0.0,0.0,0.0,0.0,0.0,0.0,0.0,0.0,0.0,0.0,0.0,0.0,0.0,0.0,0.0,0.0,0.0,0.0,0.0,0.0,0.0,0.0,0.0,-0.1333,-0.5323,-0.9522,-1.2205,-1.2178,-1.2172,0.0,-1.2172,-1.2172,-1.2172,-1.2172,-1.2172,-1.2172,-1.2172,-1.2172,-1.2172,-1.2172,-1.2172,-1.2172,-1.2172,-1.2172,-1.2172,-1.2172,-1.2172,-1.2172,-1.2172,-1.2172,-1.2172,-1.2172,-1.2172,-1.2172,-1.2172,-1.2172,-1.2172,-1.2172,-1.2172,-1.2172,-1.2172,-1.2172,-1.2172,-1.2172,-1.2172,-1.2172,-1.2172,-1.2172,-1.2172,-1.2172,0.0,0.0,0.0,0.0,0.0,0.0,0.0,0.0,0.0,0.0,0.0,0.0,0.0,0.0,0.0,0.0,0.0,0.0,0.0,0.0,0.0,0.0,0.0,0.0,0.0,0.0,0.0,0.0,0.0,0.0,0.0,0.0,0.0,0.0,0.0,0.0,0.0,0.0,0.0,0.0,0.0,0.0,0.0,0.0,0.0,0.0,0.0,0.0,0.0,0.0,0.0,0.0,0.0,0.0,0.0,0.0,0.0,0.0,0.0,0.0,0.0,0.0,0.0,0.0,0.0,0.0,0.0,0.0,0.0,-0.0954,-0.4183,-0.8763,-1.2216,-1.2183,0.0,-1.2172,-1.2172,-1.2172,-1.2172,-1.2172,-1.2172,-1.2172,-1.2172,-1.2172,-1.2172,-1.2172,-1.2172,-1.2172,-1.2172,-1.2172,-1.2172,-1.2172,-1.2172,-1.2172,-1.2172,-1.2172,-1.2172,-1.2172,-1.2172,-1.2172,-1.2172,-1.2172,-1.2172,-1.2172,-1.2172,-1.2172,-1.2172,-1.2172,-1.2172,-1.2172,-1.2172,-1.2172,-1.2172,-1.2172,-1.2172,-1.2172,0.0,0.0,0.0,0.0,0.0,0.0,0.0,0.0,0.0,0.0,0.0,0.0,0.0,0.0,0.0,0.0,0.0,0.0,0.0,0.0,0.0,0.0,0.0,0.0,0.0,0.0,0.0,0.0,0.0,0.0,0.0,0.0,0.0,0.0,0.0,0.0,0.0,0.0,0.0,0.0,0.0,0.0,0.0,0.0,0.0,0.0,0.0,0.0,0.0,0.0,0.0,0.0,0.0,0.0,0.0,0.0,0.0,0.0,0.0,0.0,0.0,0.0,0.0,0.0,0.0,0.0,0.0,0.0,0.0,-0.0,-0.0381,-0.6853,-1.2221,-1.2199,0.0,0.0,-1.2172,-1.2172,-1.2172,-1.2172,-1.2172,-1.2172,-1.2172,-1.2172,-1.2172,-1.2172,-1.2172,-1.2172,-1.2172,-1.2172,-1.2172,-1.2172,-1.2172,-1.2172,-1.2172,-1.2172,-1.2172,-1.2172,-1.2172,-1.2172,-1.2172,-1.2172,-1.2172,-1.2172,-1.2172,-1.2172,-1.2172,-1.2172,-1.2172,-1.2172,-1.2172,-1.2172,-1.2172,-1.2172,-1.2172,-1.2172,0.0,0.0,0.0,0.0,0.0,0.0,0.0,0.0,0.0,0.0,0.0,0.0,0.0,0.0,0.0,0.0,0.0,0.0,0.0,0.0,0.0,0.0,0.0,0.0,0.0,0.0,0.0,0.0,0.0,0.0,0.0,0.0,0.0,0.0,0.0,0.0,0.0,0.0,0.0,0.0,0.0,0.0,0.0,0.0,0.0,0.0,0.0,0.0,0.0,0.0,0.0,0.0,0.0,0.0,0.0,0.0,0.0,0.0,0.0,0.0,0.0,0.0,0.0,0.0,0.0,0.0,0.0,0.0,0.0,0.0,0.0,-0.2472,-0.6277,-1.1431,0.0,-1.2183,-1.2172,-1.2172,-1.2172,-1.2172,-1.2172,-1.2172,-1.2172,-1.2172,-1.2172,-1.2172,-1.2172,-1.2172,-1.2172,-1.2172,-1.2172,-1.2172,-1.2172,-1.2172,-1.2172,-1.2172,-1.2172,-1.2172,-1.2172,-1.2172,-1.2172,-1.2172,-1.2172,-1.2172,-1.2172,-1.2172,-1.2172,-1.2172,-1.2172,-1.2172,-1.2172,-1.2172,-1.2172,-1.2172,-1.2172,-1.2172,0.0,0.0,0.0,0.0,0.0,0.0,0.0,0.0,0.0,0.0,0.0,0.0,0.0,0.0,0.0,0.0,0.0,0.0,0.0,0.0,0.0,0.0,0.0,0.0,0.0,0.0,0.0,0.0,0.0,0.0,0.0,0.0,0.0,0.0,0.0,0.0,0.0,0.0,0.0,0.0,0.0,0.0,0.0,0.0,0.0,0.0,0.0,0.0,0.0,0.0,0.0,0.0,0.0,0.0,0.0,0.0,0.0,0.0,0.0,0.0,0.0,0.0,0.0,0.0,0.0,0.0,0.0,0.0,0.0,0.0,0.0,0.0,-0.1901,-0.7416,-1.0474,-1.2194,-1.2183,-1.2178,-1.2172,-1.2172,-1.2172,-1.2172,-1.2172,-1.2172,-1.2172,-1.2172,-1.2172,-1.2172,-1.2172,-1.2172,-1.2172,-1.2172,-1.2172,-1.2172,-1.2172,-1.2172,-1.2172,-1.2172,-1.2172,-1.2172,-1.2172,-1.2172,-1.2172,-1.2172,-1.2172,-1.2172,-1.2172,-1.2172,-1.2172,-1.2172,-1.2172,-1.2172,-1.2172,-1.2172,-1.2172,-1.2172,0.0,0.0,0.0,0.0,0.0,0.0,0.0,0.0,0.0,0.0,0.0,0.0,0.0,0.0,0.0,0.0,0.0,0.0,0.0,0.0,0.0,0.0,0.0,0.0,0.0,0.0,0.0,0.0,0.0,0.0,0.0,0.0,0.0,0.0,0.0,0.0,0.0,0.0,0.0,0.0,0.0,0.0,0.0,0.0,0.0,0.0,0.0,0.0,0.0,0.0,0.0,0.0,0.0,0.0,0.0,0.0,0.0,0.0,0.0,0.0,0.0,0.0,0.0,0.0,0.0,0.0,0.0,0.0,0.0,0.0,0.0,0.0,0.0,0.0,-0.6847,-1.2199,-1.2199,-1.2183,-1.2172,-1.2172,-1.2172,-1.2172,-1.2172,-1.2172,-1.2172,-1.2172,-1.2172,-1.2172,-1.2172,-1.2172,-1.2172,-1.2172,-1.2172,-1.2172,-1.2172,-1.2172,-1.2172,-1.2172,-1.2172,-1.2172,-1.2172,-1.2172,-1.2172,-1.2172,-1.2172,-1.2172,-1.2172,-1.2172,-1.2172,-1.2172,-1.2172,-1.2172,-1.2172,-1.2172,-1.2172,-1.2172,0.0,0.0,0.0,0.0,0.0,0.0,0.0,0.0,0.0,0.0,0.0,0.0,0.0,0.0,0.0,0.0,0.0,0.0,0.0,0.0,0.0,0.0,0.0,0.0,0.0,0.0,0.0,0.0,0.0,0.0,0.0,0.0,0.0,0.0,0.0,0.0,0.0,0.0,0.0,0.0,0.0,0.0,0.0,0.0,0.0,0.0,0.0,0.0,0.0,0.0,0.0,0.0,0.0,0.0,0.0,0.0,0.0,0.0,0.0,0.0,0.0,0.0,0.0,0.0,0.0,0.0,0.0,0.0,0.0,0.0,0.0,0.0,0.0,0.0,-0.4371,-0.8944,-1.1815,-1.2183,-1.2172,-1.2172,-1.2172,-1.2172,-1.2172,-1.2172,-1.2172,-1.2172,-1.2172,-1.2172,-1.2172,-1.2172,-1.2172,-1.2172,-1.2172,-1.2172,-1.2172,-1.2172,-1.2172,-1.2172,-1.2172,-1.2172,-1.2172,-1.2172,-1.2172,-1.2172,-1.2172,-1.2172,-1.2172,-1.2172,-1.2172,-1.2172,-1.2172,-1.2172,-1.2172,-1.2172,-1.2172,-1.2172,0.0,0.0,0.0,0.0,0.0,0.0,0.0,0.0,0.0,0.0,0.0,0.0,0.0,0.0,0.0,0.0,0.0,0.0,0.0,0.0,0.0,0.0,0.0,0.0,0.0,0.0,0.0,0.0,0.0,0.0,0.0,0.0,0.0,0.0,0.0,0.0,0.0,0.0,0.0,0.0,0.0,0.0,0.0,0.0,0.0,0.0,0.0,0.0,0.0,0.0,0.0,0.0,0.0,0.0,0.0,0.0,0.0,0.0,0.0,0.0,0.0,0.0,0.0,0.0,0.0,0.0,0.0,0.0,0.0,0.0,0.0,0.0,0.0,0.0,-0.2098,-0.5705,-1.1441,-1.2194,-1.2178,-1.2172,-1.2172,-1.2172,-1.2172,-1.2172,-1.2172,-1.2172,-1.2172,-1.2172,-1.2172,-1.2172,-1.2172,-1.2172,-1.2172,-1.2172,-1.2172,-1.2172,-1.2172,-1.2172,-1.2172,-1.2172,-1.2172,-1.2172,-1.2172,-1.2172,-1.2172,-1.2172,-1.2172,-1.2172,-1.2172,-1.2172,-1.2172,-1.2172,-1.2172,-1.2172,-1.2172,-1.2172,0.0,0.0,0.0,0.0,0.0,0.0,0.0,0.0,0.0,0.0,0.0,0.0,0.0,0.0,0.0,0.0,0.0,0.0,0.0,0.0,0.0,0.0,0.0,0.0,0.0,0.0,0.0,0.0,0.0,0.0,0.0,0.0,0.0,0.0,0.0,0.0,0.0,0.0,0.0,0.0,0.0,0.0,0.0,0.0,0.0,0.0,0.0,0.0,0.0,0.0,0.0,0.0,0.0,0.0,0.0,0.0,0.0,0.0,0.0,0.0,0.0,0.0,0.0,0.0,0.0,0.0,0.0,0.0,0.0,0.0,0.0,0.0,0.0,0.0,0.0,-0.2663,-1.0493,-1.2015,-1.2194,-1.2172,-1.2172,-1.2172,-1.2172,-1.2172,-1.2172,-1.2172,-1.2172,-1.2172,-1.2172,-1.2172,-1.2172,-1.2172,-1.2172,-1.2172,-1.2172,-1.2172,-1.2172,-1.2172,-1.2172,-1.2172,-1.2172,-1.2172,-1.2172,-1.2172,-1.2172,-1.2172,-1.2172,-1.2172,-1.2172,-1.2172,-1.2172,-1.2172,-1.2172,-1.2172,-1.2172,-1.2172,0.0,0.0,0.0,0.0,0.0,0.0,0.0,0.0,0.0,0.0,0.0,0.0,0.0,0.0,0.0,0.0,0.0,0.0,0.0,0.0,0.0,0.0,0.0,0.0,0.0,0.0,0.0,0.0,0.0,0.0,0.0,0.0,0.0,0.0,0.0,0.0,0.0,0.0,0.0,0.0,0.0,0.0,0.0,0.0,0.0,0.0,0.0,0.0,0.0,0.0,0.0,0.0,0.0,0.0,0.0,0.0,0.0,0.0,0.0,0.0,0.0,0.0,0.0,0.0,0.0,0.0,0.0,0.0,0.0,0.0,0.0,0.0,0.0,0.0,0.0,-0.1711,-0.6657,-1.009,-1.2194,-1.2172,-1.2172,-1.2172,-1.2172,-1.2172,-1.2172,-1.2172,-1.2172,-1.2172,-1.2172,-1.2172,-1.2172,-1.2172,-1.2172,-1.2172,-1.2172,-1.2172,-1.2172,-1.2172,-1.2172,-1.2172,-1.2172,-1.2172,-1.2172,-1.2172,-1.2172,-1.2172,-1.2172,-1.2172,-1.2172,-1.2172,-1.2172,-1.2172,-1.2172,-1.2172,-1.2172,-1.2172,0.0,0.0,0.0,0.0,0.0,0.0,0.0,0.0,0.0,0.0,0.0,0.0,0.0,0.0,0.0,0.0,0.0,0.0,0.0,0.0,0.0,0.0,0.0,0.0,0.0,0.0,0.0,0.0,0.0,0.0,0.0,0.0,0.0,0.0,0.0,0.0,0.0,0.0,0.0,0.0,0.0,0.0,0.0,0.0,0.0,0.0,0.0,0.0,0.0,0.0,0.0,0.0,0.0,0.0,0.0,0.0,0.0,0.0,0.0,0.0,0.0,0.0,0.0,0.0,0.0,0.0,0.0,0.0,0.0,0.0,0.0,0.0,0.0,0.0,0.0,-0.0766,-0.2854,-0.8375,-1.2205,-1.2188,-1.2178,-1.2172,-1.2172,-1.2172,-1.2172,-1.2172,-1.2172,-1.2172,-1.2172,-1.2172,-1.2172,-1.2172,-1.2172,-1.2172,-1.2172,-1.2172,-1.2172,-1.2172,-1.2172,-1.2172,-1.2172,-1.2172,-1.2172,-1.2172,-1.2172,-1.2172,-1.2172,-1.2172,-1.2172,-1.2172,-1.2172,-1.2172,-1.2172,-1.2172,-1.2172,-1.2172,0.0,0.0,0.0,0.0,0.0,0.0,0.0,0.0,0.0,0.0,0.0,0.0,0.0,0.0,0.0,0.0,0.0,0.0,0.0,0.0,0.0,0.0,0.0,0.0,0.0,0.0,0.0,0.0,0.0,0.0,0.0,0.0,0.0,0.0,0.0,0.0,0.0,0.0,0.0,0.0,0.0,0.0,0.0,0.0,0.0,0.0,0.0,0.0,0.0,0.0,0.0,0.0,0.0,0.0,0.0,0.0,0.0,0.0,0.0,0.0,0.0,0.0,0.0,0.0,0.0,0.0,0.0,0.0,0.0,0.0,0.0,0.0,0.0,0.0,0.0,-0.0193,-0.0953,-0.6853,-1.1447,-1.2199,-1.2183,-1.2172,-1.2172,-1.2172,-1.2172,-1.2172,-1.2172,-1.2172,-1.2172,-1.2172,-1.2172,-1.2172,-1.2172,-1.2172,-1.2172,-1.2172,-1.2172,-1.2172,-1.2172,-1.2172,-1.2172,-1.2172,-1.2172,-1.2172,-1.2172,-1.2172,-1.2172,-1.2172,-1.2172,-1.2172,-1.2172,-1.2172,-1.2172,-1.2172,-1.2172,-1.2172,0.0,0.0,0.0,0.0,0.0,0.0,0.0,0.0,0.0,0.0,0.0,0.0,0.0,0.0,0.0,0.0,0.0,0.0,0.0,0.0,0.0,0.0,0.0,0.0,0.0,0.0,0.0,0.0,0.0,0.0,0.0,0.0,0.0,0.0,0.0,0.0,0.0,0.0,0.0,0.0,0.0,0.0,0.0,0.0,0.0,0.0,0.0,0.0,0.0,0.0,0.0,0.0,0.0,0.0,0.0,0.0,0.0,0.0,0.0,0.0,0.0,0.0,0.0,0.0,0.0,0.0,0.0,0.0,0.0,0.0,0.0,0.0,0.0,0.0,0.0,-0.1157,-0.4768,-0.628,-0.8182,-1.1815,-1.2183,-1.2172,-1.2172,-1.2172,-1.2172,-1.2172,-1.2172,-1.2172,-1.2172,-1.2172,-1.2172,-1.2172,-1.2172,-1.2172,-1.2172,-1.2172,-1.2172,-1.2172,-1.2172,-1.2172,-1.2172,-1.2172,-1.2172,-1.2172,-1.2172,-1.2172,-1.2172,-1.2172,-1.2172,-1.2172,-1.2172,-1.2172,-1.2172,-1.2172,-1.2172,-1.2172,0.0,0.0,0.0,0.0,0.0,0.0,0.0,0.0,0.0,0.0,0.0,0.0,0.0,0.0,0.0,0.0,0.0,0.0,0.0,0.0,0.0,0.0,0.0,0.0,0.0,0.0,0.0,0.0,0.0,0.0,0.0,0.0,0.0,0.0,0.0,0.0,0.0,0.0,0.0,0.0,0.0,0.0,0.0,0.0,0.0,0.0,0.0,0.0,0.0,0.0,0.0,0.0,0.0,0.0,0.0,0.0,0.0,0.0,0.0,0.0,0.0,0.0,0.0,0.0,0.0,0.0,0.0,0.0,0.0,0.0,0.0,0.0,0.0,0.0,0.0,-0.0583,-0.2501,-0.6693,-1.0108,-1.201,-1.2183,-1.2172,-1.2172,-1.2172,-1.2172,-1.2172,-1.2172,-1.2172,-1.2172,-1.2172,-1.2172,-1.2172,-1.2172,-1.2172,-1.2172,-1.2172,-1.2172,-1.2172,-1.2172,-1.2172,-1.2172,-1.2172,-1.2172,-1.2172,-1.2172,-1.2172,-1.2172,-1.2172,-1.2172,-1.2172,-1.2172,-1.2172,-1.2172,-1.2172,-1.2172,-1.2172]}]]